     2              OBSERVATION DATA    GPS                 RINEX VERSION / TYPE
teqc 1999Jul19 20000201 02:04:21UTC                         PGM / RUN BY / DATE
                                                            COMMENT
L2: 1 -> 1; 5 -> 5; 60 -> 9                                 COMMENT
L2: 1 -> 1; 5 -> 5; 60 -> 9                                 COMMENT
L2: 1 -> 1; 5 -> 5; 60 -> 9                                 COMMENT
L2: 1 -> 1; 5 -> 5; 60 -> 9                                 COMMENT
L2: 1 -> 1; 5 -> 5; 60 -> 9                                 COMMENT
Original Marker Name: 0026                                  COMMENT
Campaign Name: Imperial Valley Leveling                     COMMENT
4-Character Station Name: 0026                              COMMENT
6-Character Antenna Code: TRMSST                            COMMENT
Vertical Measurement Point: BPA                             COMMENT
Vertical Offset to Rinex Ref. Point: 0.0000                 COMMENT
Radial Measurement Point: RRP                               COMMENT
Radial Offset to Rinex Ref. Point: 0.0000                   COMMENT
Antenna Height from Field Measurement: 1.8890 m             COMMENT
Additional Antenna Identification Info.:                    COMMENT
Model 14532.00                                              COMMENT
Original XYZ: -2303567.9381 -4815560.4176 3478777.4014      COMMENT
New XYZ position is based on association with SCEC monument COMMENT
E1D0I6U3+0011. Position of that monument is believed to be  COMMENT
valid to within 1 m horizontally; vertical accuracy         COMMENT
should be no worse than 3-times this value.                 COMMENT
                                                            COMMENT
Revised Rinex header created by UCSD GPS archive for        COMMENT
GSAC on 17-Jul-2000 (2000:199) 21:38:06 GMT                 COMMENT
For assistance contact dagnew@ucsd.edu                      COMMENT
or anderson@python.ucsd.edu                                 COMMENT
                                                            COMMENT
269 1928                                                    MARKER NAME
0026                                                        MARKER NUMBER
-Unknown- CALIF DEPT TRANSPORTATION                         OBSERVER / AGENCY
1531 TRIMBLE 4000 SSE NP 5.71; SP 1.26                      REC # / TYPE / VERS
503750 TR 4000SST L1/L2 GEO                                 ANT # / TYPE
 -2303570.8919 -4815558.6327  3478769.9993                  APPROX POSITION XYZ
        1.8890        0.0000        0.0000                  ANTENNA: DELTA H/E/N
     1     1     0                                          WAVELENGTH FACT L1/2
     7    C1    L1    L2    P1    P2    S1    S2            # / TYPES OF OBSERV
     0                                                      INTERVAL
  1995     4    21    15    16   15.000000                  TIME OF FIRST OBS
  1995     4    21    18    15   30.000000                  TIME OF LAST OBS
                                                            END OF HEADER
 95  4 21 15 16 15.0000000  0  7G14G18G19G22G28G29G31
                     44217.67915     34455.67115  23762794.094    23762798.824
         7.500           8.750
                    -20487.34717    -15964.16716  20444241.992    20444243.691
        21.750          22.000
                    -25165.36316    -19609.23016  21502063.133    21502065.668
        17.500          19.500
                     40343.60615     31436.11815  23774019.242    23774023.465
         7.750          10.500
                    -21977.67815    -17124.92115  23466581.266    23466583.695
        10.500          10.500
                      2398.82017      1868.57816  20700042.383    20700043.891
        20.500          22.000
                    -45865.12915    -35739.09515  23448897.227    23448900.129
         8.750           8.500
 95  4 21 15 16 30.0000000  0  7G14G18G19G22G28G29G31
                     91561.548 5     71346.966 5  23771803.125    23771807.781
         7.500           8.500
                    -42364.116 7    -33010.985 6  20440078.844    20440080.672
        21.750          22.000
                    -52093.989 6    -40592.554 6  21496938.672    21496941.262
        17.750          19.500
                     83553.057 5     65105.790 5  23782241.938    23782245.961
         7.750          10.000
                    -45427.285 5    -35397.309 5  23462118.758    23462121.336
        10.500          10.500
                      5040.048 7      3926.689 6  20700544.813    20700546.379
        20.500          22.000
                    -94956.317 5    -73991.929 5  23439555.281    23439558.305
         8.750           8.250
 95  4 21 15 16 45.0000000  0  7G14G18G19G22G28G29G31
                    138956.225 5    108277.864 5  23780822.180    23780826.422
         7.500           8.000
                    -64110.928 7    -49956.533 6  20435940.633    20435942.453
        21.750          22.000
                    -78946.345 6    -61516.444 6  21491828.727    21491831.289
        17.500          19.750
                    126832.046 5     98829.652 5  23790477.813    23790481.535
         8.000           9.750
                    -68730.879 5    -53555.928 5  23457684.047    23457686.793
        10.250          10.500
                      7817.880 7      6091.245 6  20701073.547    20701075.117
        20.750          22.000
                   -143963.217 5   -112179.086 5  23430229.438    23430232.313
         8.500           8.250
 95  4 21 15 17  0.0000000  0  8G14G18G19G22G27G28G29G31
                    186371.740 5    145224.993 5  23789845.047    23789849.750
         7.500           8.000
                    -85755.138 7    -66822.138 6  20431821.938    20431823.816
        21.750          22.000
                   -105750.532 6    -82402.804 6  21486728.023    21486730.727
        17.500          19.750
                    170151.859 5    132585.335 5  23798721.922    23798725.055
         9.000           9.750
                         1.40415                                  23798726.066
         7.750
                    -91916.872 5    -71622.912 5  23453271.883    23453274.695
        10.250          10.500
                     10707.506 7      8342.912 6  20701623.391    20701624.988
        20.750          22.000
                   -192915.021 5   -150323.302 5  23420914.359    23420917.227
         8.750           8.250
 95  4 21 15 17 15.0000000  0  8G14G18G19G22G27G28G29G31
                    233828.667 4    182204.378 5  23798875.898    23798880.617
         7.250           8.000
                   -107273.769 7    -83589.890 6  20427726.961    20427728.742
        21.500          22.000
                   -132483.690 6   -103233.817 6  21481640.867    21481643.625
        17.500          20.000
                    213531.165 5    166387.384 5  23806976.680    23806980.094
         9.500           9.750
                    -23305.882 4    -34065.082 5  24093990.781    24093995.277
         6.750           7.750
                   -114963.047 5    -89580.944 5  23448886.430    23448888.867
        10.250          10.500
                     13735.158 7     10702.126 6  20702199.516    20702201.078
        20.750          21.750
                   -241790.900 5   -188408.363 5  23411613.234    23411616.707
         8.750           8.250
 95  4 21 15 17 30.0000000  0  8G14G18G19G22G27G28G29G31
                    281340.556 4    219226.587 5  23807917.078    23807921.836
         7.000           7.750
                   -128650.531 7   -100247.091 6  20423658.977    20423660.895
        21.500          22.000
                   -159129.932 6   -123997.108 6  21476570.164    21476572.953
        17.500          20.000
                    256984.747 5    200247.304 5  23815245.555    23815249.160
        10.000           9.500
                    -66959.096 4    -68080.561 5  24085684.164    24085687.934
         6.750           7.500
                   -137854.644 5   -107418.527 5  23444530.172    23444533.047
        10.250          10.750
                     16915.109 7     13180.016 6  20702804.742    20702806.137
        20.750          21.750
                   -290578.180 5   -226424.394 5  23402329.422    23402332.957
         9.250           8.500
 95  4 21 15 17 45.0000000  0  8G14G18G19G22G27G28G29G31
                    328910.680 4    256294.186 5  23816969.359    23816974.094
         7.000           7.500
                   -149879.538 7   -116789.162 6  20419619.273    20419621.234
        21.500          22.000
                   -185684.283 6   -144688.792 6  21471517.172    21471519.906
        17.500          20.000
                    300518.065 5    234169.368 5  23823530.070    23823533.234
        10.750           9.750
                   -110542.062 4   -102041.312 5  24077390.258    24077393.867
         6.500           7.500
                   -160586.861 5   -125131.920 5  23440204.492    23440207.410
        10.250          11.000
                     20252.913 7     15780.907 6  20703439.984    20703441.332
        20.750          22.000
                   -339274.051 5   -264369.202 5  23393062.945    23393066.430
         9.250           8.500
 95  4 21 15 18  0.0000000  0  8G14G18G19G22G27G28G29G31
                    376541.843 4    293409.342 5  23826033.367    23826038.258
         7.000           7.500
                   -170959.929 7   -133215.431 6  20415607.859    20415609.738
        21.750          22.000
                   -212146.407 6   -165308.611 6  21466481.727    21466484.289
        17.500          20.000
                    344133.286 5    268155.252 5  23831829.891    23831833.168
        11.500          10.000
                   -154053.452 4   -135946.282 5  24069110.359    24069114.410
         6.500           7.500
                   -183157.977 5   -142719.780 5  23435909.469    23435912.258
        10.250          10.750
                     23752.015 7     18507.484 6  20704105.906    20704107.250
        20.750          21.750
                   -387875.095 5   -302240.123 5  23383814.500    23383818.176
         9.250           8.750
 95  4 21 15 18 15.0000000  0  8G14G18G19G22G27G28G29G31
                    424231.093 4    330569.770 5  23835108.531    23835113.246
         7.250           7.750
                   -191898.571 7   -149531.246 6  20411623.398    20411625.305
        21.750          22.000
                   -238522.765 6   -185861.599 6  21461462.227    21461464.855
        17.500          20.000
                    387827.448 5    302202.645 5  23840144.555    23840147.848
        11.500          10.500
                   -197500.737 4   -169801.285 5  24060842.570    24060846.945
         6.500           7.750
                   -205572.754 5   -160185.825 5  23431643.727    23431646.520
        10.000          10.500
                     27406.037 7     21354.778 6  20704801.266    20704802.555
        20.750          21.750
                   -436384.565 5   -340039.683 5  23374583.648    23374587.070
         9.250           8.750
 95  4 21 15 18 30.0000000  0  8G14G18G19G22G27G28G29G31
                    471975.428 4    367773.116 5  23844194.008    23844198.566
         7.000           7.750
                   -212695.439 7   -165736.586 6  20407665.875    20407667.773
        21.750          21.750
                   -264815.738 6   -206349.611 6  21456458.922    21456461.617
        17.250          20.000
                    431596.995 5    336308.777 5  23848473.680    23848476.820
        11.000          11.000
                   -240887.952 4   -203609.486 5  24052586.875    24052590.305
         6.750           7.750
                   -227833.787 5   -177532.070 5  23427407.250    23427410.629
         9.750          10.750
                     31211.653 7     24320.197 6  20705525.359    20705526.699
        20.750          21.750
                   -484807.019 5   -377771.425 5  23365369.047    23365372.395
         9.250           8.750
 95  4 21 15 18 45.0000000  0  8G14G18G19G22G27G28G29G31
                    519766.052 4    405012.532 5  23853288.180    23853293.012
         7.250           7.750
                   -233355.405 7   -181835.250 6  20403734.430    20403736.246
        21.750          21.750
                   -291026.754 6   -226773.762 6  21451471.227    21451473.902
        17.250          20.250
                    475435.445 5    370468.592 5  23856815.531    23856819.051
        10.250          11.500
                   -284221.596 4   -237375.952 5  24044340.828    24044343.879
         6.750           7.750
                   -249945.750 5   -194762.161 5  23423199.875    23423202.969
         9.750          10.750
                     35164.419 7     27400.277 6  20706277.578    20706278.969
        20.500          21.750
                   -533150.417 5   -415441.575 5  23356170.016    23356173.063
         9.500           9.000
 95  4 21 15 19  0.0000000  0  8G14G18G19G22G27G28G29G31
                    567594.837 4    442281.680 5  23862389.680    23862394.277
         7.000           8.000
                   -253889.050 7   -197835.485 6  20399827.070    20399828.809
        21.750          22.000
                   -317161.652 6   -247138.605 6  21446497.875    21446500.652
        17.500          20.250
                    519332.175 5    404673.813 5  23865168.734    23865172.461
         9.500          11.750
                   -327512.413 4   -271109.031 5  24036102.734    24036105.879
         6.750           7.750
                   -271916.042 5   -211881.855 5  23419019.031    23419021.867
         9.750          10.750
                     39256.708 7     30589.077 6  20707056.156    20707057.566
        20.750          21.750
                   -581423.349 5   -453056.817 5  23346983.516    23346987.008
         9.500           9.000
 95  4 21 15 19 15.0000000  0  8G14G18G19G22G27G28G29G31
                    615462.043 4    479580.760 5  23871498.539    23871503.363
         7.000           8.250
                   -274300.823 7   -213740.753 6  20395942.820    20395944.648
        21.750          21.750
                   -343222.550 6   -267445.785 6  21441538.656    21441541.316
        17.500          20.250
                    563285.067 5    438922.783 5  23873532.609    23873536.281
         9.500          11.750
                   -370761.979 4   -304809.970 5  24027872.844    24027875.852
         7.000           7.750
                   -293745.378 5   -228891.705 5  23414865.320    23414867.891
        10.000          10.750
                     43484.106 7     33883.154 6  20707860.781    20707862.117
        20.500          21.750
                   -629626.291 5   -490617.513 5  23337810.922    23337814.406
         9.500           9.500
 95  4 21 15 19 30.0000000  0  8G14G18G19G22G27G28G29G31
                    663369.139 4    516910.924 5  23880615.289    23880620.063
         7.250           8.500
                   -294588.104 7   -229549.018 6  20392082.195    20392084.027
        21.750          21.750
                   -369210.149 6   -287695.845 6  21436593.398    21436596.051
        17.500          20.500
                    607296.605 5    473217.462 5  23881907.828    23881911.574
         9.500          11.500
                   -413969.674 4   -338478.279 5  24019650.773    24019653.398
         7.000           7.750
                   -315432.724 5   -245790.920 5  23410738.453    23410741.184
        10.250          11.000
                     47841.846 7     37278.801 6  20708690.148    20708691.488
        20.500          21.750
                   -677759.475 5   -528123.860 5  23328651.133    23328654.922
         9.250           9.500
 95  4 21 15 19 45.0000000  0  7G14G18G22G27G28G29G31
                    711322.572 4    554277.199 5  23889740.539    23889745.141
         7.000           8.750
                   -314746.972 7   -245257.220 6  20388246.141    20388247.996
        21.750          21.750
                    651376.868 5    507565.698 5  23890296.273    23890299.473
         9.750          11.000
                   -457131.111 4   -372110.549 5  24011437.328    24011440.277
         7.250           7.750
                   -336972.301 5   -262574.992 5  23406639.305    23406642.184
         9.750          11.000
                     52333.563 7     40778.837 6  20709544.516    20709545.996
        20.250          22.000
                   -725816.129 5   -565570.579 5  23319506.531    23319509.867
         9.500           9.250
 95  4 21 15 20  0.0000000  0  8G14G18G19G22G27G28G29G31
                    759322.030 4    591679.333 5  23898874.523    23898879.305
         7.250           8.750
                   -334781.886 7   -260868.834 6  20384433.789    20384435.543
        21.750          21.500
                     -8048.78816                                  20384436.332
        20.500
                    695523.748 5    541965.848 5  23898697.117    23898700.238
         9.750          10.250
                   -500249.604 4   -405709.347 5  24003232.234    24003234.859
         7.250           7.750
                   -358365.333 5   -279244.867 5  23402568.281    23402571.191
        10.000          11.000
                     56956.570 7     44381.186 6  20710424.367    20710425.980
        20.250          22.000
                   -773795.674 5   -602957.219 5  23310376.227    23310379.652
         9.250           9.500
 95  4 21 15 20 15.0000000  0  8G14G18G19G22G27G28G29G31
                    807350.029 4    629103.708 5  23908013.719    23908018.539
         7.000           8.750
                   -354708.599 7   -276396.137 6  20380641.828    20380643.586
        22.000          21.500
                    -24064.818 6    -28142.540 6  21421838.164    21421840.898
        17.500          20.500
                    739721.300 5    576405.487 5  23907107.656    23907110.914
         9.750           9.750
                   -543342.444 5   -439288.171 5  23995032.258    23995034.363
         7.500           7.750
                   -379628.800 5   -295813.790 5  23398522.047    23398525.086
        10.000          11.000
                     61692.572 7     48071.579 6  20711325.594    20711327.141
        20.250          22.000
                   -821713.637 5   -640295.861 5  23301257.703    23301261.262
         9.250           9.750
 95  4 21 15 20 30.0000000  0  8G14G18G19G22G27G28G29G31
                    855416.283 4    666557.876 5  23917160.617    23917165.480
         7.250           8.750
                   -374510.267 7   -291826.003 6  20376873.711    20376875.398
        21.750          21.250
                    -49785.042 6    -48184.259 6  21416944.094    21416946.793
        17.750          20.750
                    783980.198 5    610892.931 5  23915529.914    23915532.902
         9.250           9.000
                   -586397.271 5   -472837.371 5  23986838.758    23986841.484
         7.500           7.750
                   -400750.515 5   -312272.256 5  23394502.844    23394505.750
        10.000          11.000
                     66553.087 7     51858.993 6  20712250.625    20712252.129
        20.250          22.000
                   -869560.006 5   -677578.721 5  23292152.969    23292156.324
         9.500           9.750
 95  4 21 15 20 45.0000000  0  8G14G18G19G22G27G28G29G31
                    903511.616 4    704034.717 5  23926313.148    23926317.563
         7.250           8.500
                   -394193.066 7   -307163.240 6  20373127.891    20373129.605
        22.000          21.500
                    -75447.898 6    -68181.272 6  21412060.383    21412063.191
        17.750          20.750
                    828290.774 5    645420.645 5  23923961.938    23923965.016
         8.750           8.750
                   -629422.300 5   -506363.346 5  23978651.086    23978654.172
         7.500           8.000
                   -421738.383 5   -328626.424 5  23390508.898    23390511.688
        10.250          11.250
                     71531.374 7     55738.182 6  20713197.781    20713199.398
        20.250          22.000
                   -917342.483 5   -714811.791 5  23283060.242    23283063.789
         9.500          10.000
 95  4 21 15 21  0.0000000  0  8G14G18G19G22G27G28G29G31
                    951639.038 4    741536.566 5  23935471.531    23935476.082
         7.250           8.250
                   -413756.085 7   -322407.145 6  20369405.367    20369407.199
        21.750          21.250
                   -101053.682 6    -88133.813 6  21407187.828    21407190.566
        17.750          21.000
                    872654.816 5    679990.021 5  23932404.141    23932407.176
         8.500           8.500
                   -672415.344 5   -539864.390 5  23970470.055    23970473.324
         7.500           8.250
                   -442590.641 5   -344874.912 5  23386541.047    23386543.813
        10.250          11.500
                     76626.573 7     59708.472 6  20714167.445    20714169.133
        20.250          22.000
                   -965058.300 5   -751992.922 5  23273980.078    23273983.707
         9.250          10.000
 95  4 21 15 21 15.0000000  0  8G14G18G19G22G27G28G29G31
                    999800.418 4    779064.876 5  23944636.383    23944640.824
         7.000           8.000
                   -433198.755 7   -337557.268 6  20365705.602    20365707.508
        21.750          21.500
                   -126605.644 6   -108044.416 6  21402325.438    21402328.012
        17.750          21.000
                    917072.845 5    714601.464 5  23940856.461    23940859.570
         8.000           8.500
                   -715376.631 5   -573340.706 5  23962295.063    23962297.969
         7.500           8.250
                   -463307.979 5   -361018.274 5  23382598.430    23382601.527
        10.000          11.500
                     81834.924 7     63766.928 6  20715158.555    20715160.203
        20.000          22.000
                  -1012706.622 5   -789121.461 5  23264912.805    23264916.547
         9.250          10.000
 95  4 21 15 21 30.0000000  0  8G14G18G19G22G27G28G29G31
                   1047994.579 4    816618.735 5  23953806.953    23953811.836
         6.750           7.750
                   -452517.057 7   -352610.482 6  20362029.328    20362031.195
        21.750          21.500
                   -152102.652 6   -127912.197 6  21397473.430    21397476.043
        18.000          20.750
                    961547.241 4    749256.829 5  23949319.586    23949322.992
         7.250           8.750
                   -758304.892 4   -606791.274 5  23954125.492    23954129.035
         7.250           8.000
                   -483889.485 5   -377055.791 5  23378681.719    23378684.973
         9.750          11.750
                     87156.803 7     67913.852 6  20716171.258    20716172.832
        20.000          22.000
                  -1060287.157 5   -826197.167 5  23255858.305    23255862.441
         9.250          10.000
 95  4 21 15 21 45.0000000  0  8G14G18G19G22G27G28G29G31
                   1096228.160 4    854203.306 5  23962985.594    23962990.668
         6.750           7.500
                   -471701.489 7   -367559.380 6  20358378.695    20358380.691
        21.750          21.500
                   -177531.456 6   -147726.835 6  21392634.711    21392637.254
        18.000          21.000
                   1006086.017 4    783962.338 5  23957794.852    23957798.676
         7.000           9.000
                   -801189.738 4   -640208.018 5  23945964.398    23945968.563
         7.250           8.500
                   -504325.649 5   -392980.057 5  23374792.969    23374795.977
         9.750          11.750
                     92603.872 7     72158.326 6  20717207.875    20717209.363
        20.000          22.000
                  -1107789.924 5   -863212.281 5  23246818.852    23246822.820
         9.250          10.000
 95  4 21 15 22  0.0000000  0  8G14G18G19G22G27G28G29G31
                   1144479.750 4    891801.910 5  23972167.961    23972172.758
         7.000           7.500
                   -490772.912 7   -382420.223 6  20354749.555    20354751.516
        21.750          21.500
                   -202910.831 6   -167502.960 6  21387805.094    21387807.727
        18.000          21.250
                   1050665.580 4    818699.632 5  23966277.969    23966282.156
         7.000           9.000
                   -844050.824 4   -673606.248 5  23937808.266    23937812.453
         7.250           8.750
                   -524636.477 5   -408806.657 5  23370927.805    23370930.984
         9.750          11.750
                     98160.210 7     76487.944 6  20718265.180    20718266.840
        20.000          22.000
                  -1155232.109 5   -900180.196 5  23237790.891    23237794.891
         9.250          10.000
 95  4 21 15 22 15.0000000  0  8G14G18G19G22G27G28G29G31
                   1192757.710 4    929421.059 5  23981355.016    23981359.777
         7.000           7.500
                   -509718.720 7   -397183.181 6  20351144.305    20351146.191
        21.750          21.500
                   -228227.849 6   -187230.494 6  21382987.398    21382990.066
        18.250          21.250
                   1095292.777 4    853474.046 5  23974770.203    23974774.313
         7.250           9.250
                   -886876.726 4   -706977.060 5  23929658.836    23929662.934
         7.250           8.750
                   -544812.138 5   -424527.931 5  23367088.711    23367091.594
         9.750          11.500
                    103837.343 7     80911.685 6  20719345.461    20719347.047
        20.000          22.000
                  -1202603.987 5   -937093.325 5  23228776.172    23228780.070
         9.250          10.000
 95  4 21 15 22 30.0000000  0  8G14G18G19G22G27G28G29G31
                   1241064.245 4    967062.473 5  23990547.336    23990552.152
         6.750           7.000
                   -528531.582 7   -411842.547 6  20347564.336    20347566.160
        22.000          21.250
                   -253477.760 6   -206905.735 6  21378182.438    21378185.160
        18.000          21.250
                   1139969.647 5    888287.168 5  23983272.484    23983276.273
         8.000           9.500
                   -929660.717 4   -740315.218 5  23921517.391    23921521.379
         7.250           8.500
                   -564848.220 5   -440140.445 5  23363275.813    23363278.746
         9.750          11.500
                    109639.922 6     85433.175 6  20720449.594    20720451.203
        19.750          22.250
                  -1249899.835 5   -973947.220 5  23219776.313    23219779.559
         9.250           9.750
 95  4 21 15 22 45.0000000  0  8G14G18G19G22G27G28G29G31
                   1289398.970 4   1004725.853 5  23999745.328    23999749.512
         6.750           6.750
                   -547212.365 7   -426398.994 6  20344009.555    20344011.336
        22.000          21.250
                   -278663.422 6   -226530.911 6  21373389.719    21373392.406
        18.000          21.250
                   1184696.377 5    923139.141 5  23991783.766    23991787.570
         8.750           9.500
                   -972403.786 4   -773621.486 5  23913383.578    23913387.930
         7.250           8.750
                   -584744.221 5   -455643.801 5  23359489.492    23359492.465
         9.500          11.250
                    115567.022 6     90051.694 6  20721577.383    20721579.137
        19.750          22.000
                  -1297116.840 5  -1010739.673 5  23210791.469    23210794.609
         9.500           9.750
 95  4 21 15 23  0.0000000  0  8G14G18G19G22G27G28G29G31
                   1337764.774 4   1042413.460 5  24008948.852    24008953.629
         6.750           7.000
                   -565761.539 7   -440852.892 6  20340479.742    20340481.484
        22.000          21.250
                   -303781.508 6   -246103.428 6  21368609.938    21368612.480
        18.000          21.000
                   1229473.899 5    958030.696 5  24000304.781    24000308.387
         9.250           9.250
                  -1015104.371 4   -806894.658 5  23905257.555    23905262.074
         7.250           8.500
                   -604498.212 5   -471036.495 5  23355730.477    23355733.695
         9.250          11.500
                    121619.064 6     94767.570 6  20722729.133    20722730.824
        19.750          22.000
                  -1344253.151 5  -1047469.251 5  23201821.828    23201824.750
         9.750           9.500
 95  4 21 15 23 15.0000000  0  8G14G18G19G22G27G28G29G31
                   1386153.974 4   1080119.288 5  24018156.914    24018161.785
         6.750           7.000
                   -584186.287 7   -455209.828 6  20336973.766    20336975.617
        22.000          21.250
                   -328837.048 6   -265627.209 6  21363841.977    21363844.426
        18.000          21.000
                   1274296.809 5    992957.623 5  24008834.398    24008837.934
         9.750           9.000
                  -1057769.547 4   -840140.230 5  23897138.938    23897143.344
         7.000           8.500
                   -624116.998 5   -486323.840 5  23351996.867    23352000.359
         9.250          11.750
                    127788.672 6     99575.057 6  20723903.266    20723904.949
        19.500          22.250
                  -1391314.667 5  -1084140.547 5  23192866.320    23192869.168
         9.750           9.500
 95  4 21 15 23 30.0000000  0  8G14G18G19G22G27G28G29G31
                   1434560.960 4   1117838.972 5  24027368.820    24027373.777
         6.750           7.250
                   -602490.156 7   -469472.577 6  20333490.398    20333492.230
        22.000          21.250
                   -353834.219 6   -285105.510 6  21359085.172    21359087.781
        18.000          21.000
                   1319161.695 5   1027917.263 5  24017371.938    24017375.051
         9.750           8.250
                  -1100403.771 4   -873361.698 5  23889025.969    23889030.418
         7.250           8.500
                   -643604.382 5   -501508.792 5  23348288.727    23348291.906
         9.250          11.750
                    134074.656 6    104473.226 6  20725099.398    20725101.109
        19.750          22.250
                  -1438303.268 5  -1120755.032 5  23183924.836    23183927.305
        10.000           9.500
 95  4 21 15 23 45.0000000  0  8G14G18G19G22G27G28G29G31
                   1482989.005 4   1155575.062 5  24036584.328    24036589.305
         6.750           7.500
                   -620673.066 7   -483641.074 6  20330030.281    20330032.223
        22.000          21.000
                   -378769.955 6   -304535.941 6  21354340.078    21354342.727
        17.750          21.000
                   1364071.283 5   1062911.742 5  24025917.922    24025920.844
         9.500           7.500
                  -1143001.984 4   -906555.089 5  23880919.609    23880924.246
         7.000           8.750
                   -662956.792 5   -516588.568 5  23344606.078    23344609.336
         9.250          11.500
                    140482.740 6    109466.538 6  20726318.820    20726320.543
        19.750          22.250
                  -1485216.029 5  -1157310.423 5  23174997.539    23175000.273
        10.000           9.500
 95  4 21 15 24  0.0000000  0  7G14G18G22G27G28G29G31
                   1531443.985 4   1193332.152 5  24045805.133    24045809.973
         6.750           7.500
                   -638734.863 7   -497715.192 6  20326593.258    20326595.148
        22.000          21.000
                   1409027.732 5   1097942.734 5  24034472.797    24034475.691
         9.250           7.250
                  -1185563.569 4   -939719.947 5  23872820.516    23872824.695
         7.000           8.500
                   -682171.751 5   -531561.234 5  23340949.633    23340952.867
         9.500          11.750
                    147014.165 6    114555.958 6  20727561.742    20727563.480
        19.750          22.250
                  -1532048.925 5  -1193803.576 5  23166085.547    23166088.488
        10.000           9.500
 95  4 21 15 24 15.0000000  0  7G14G18G22G27G28G29G31
                   1579923.648 4   1231108.461 5  24055030.508    24055035.160
         6.500           7.500
                   -656678.442 7   -511697.194 6  20323178.531    20323180.500
        21.750          21.000
                   1454031.532 5   1133010.614 5  24043036.609    24043039.750
         8.750           7.000
                  -1228093.176 4   -972859.883 5  23864727.438    23864731.520
         7.000           8.500
                   -701250.560 5   -546427.820 6  23337319.188    23337322.457
         9.750          12.000
                    153666.353 6    119739.481 6  20728827.688    20728829.359
        19.500          22.250
                  -1578804.051 5  -1230236.131 5  23157188.234    23157191.359
        10.000           9.500
 95  4 21 15 24 30.0000000  0  8G14G18G19G22G27G28G29G31
                   1628425.900 4   1268902.387 5  24064260.211    24064264.719
         6.500           7.500
                   -674505.225 7   -525588.190 6  20319786.539    20319788.387
        22.000          21.000
                    -18151.475 6    -15430.63316  21340171.977    21340174.555
        17.750          21.000
                   1499083.482 5   1168116.029 5  24051609.711    24051612.734
         8.750           7.000
                  -1270592.544 4  -1005976.259 5  23856640.227    23856644.082
         7.250           8.500
                   -720193.311 5   -561188.387 6  23333714.625    23333717.734
        10.000          12.000
                    160437.982 6    125016.070 6  20730116.289    20730117.949
        19.500          22.250
                  -1625482.616 5  -1266609.029 5  23148305.406    23148308.844
         9.750           9.750
 95  4 21 15 24 45.0000000  0  8G14G18G19G22G27G28G29G31
                   1676952.236 4   1306715.081 5  24073494.383    24073499.070
         6.250           7.750
                   -692215.172 7   -539388.143 6  20316416.398    20316418.297
        22.000          20.750
                    -42854.999 6    -34680.121 6  21335471.125    21335473.613
        17.750          21.000
                   1544185.191 5   1203260.195 5  24060192.313    24060195.445
         8.750           7.250
                  -1313061.432 5  -1039068.885 5  23848558.953    23848562.508
         7.500           8.250
                   -738998.197 5   -575841.522 6  23330136.188    23330139.105
        10.250          12.000
                    167326.348 6    130383.625 6  20731427.117    20731428.789
        19.500          22.250
                  -1672084.247 5  -1302921.977 5  23139437.516    23139441.023
        10.000           9.750
 95  4 21 15 25  0.0000000  0  8G14G18G19G22G27G28G29G31
                   1725507.637 4   1344550.416 5  24082734.430    24082739.086
         6.250           7.750
                   -709804.926 7   -553094.443 6  20313069.258    20313071.047
        22.000          20.750
                    -67496.164 6    -53881.017 6  21330782.078    21330784.605
        17.750          21.000
                   1589339.204 5   1238445.134 5  24068784.883    24068787.926
         9.000           7.750
                  -1355498.550 5  -1072136.759 5  23840483.430    23840486.773
         7.500           8.250
                   -757662.829 5   -590385.366 6  23326584.430    23326587.379
        10.250          12.000
                    174336.054 6    135845.732 6  20732760.984    20732762.680
        19.500          22.250
                  -1718611.115 5  -1339176.667 5  23130583.914    23130587.473
        10.000           9.750
 95  4 21 15 25 15.0000000  0  8G14G18G19G22G27G28G29G31
                   1774089.292 4   1382406.202 5  24091979.070    24091983.781
         6.500           8.000
                   -727277.318 7   -566709.286 6  20309744.320    20309746.152
        22.000          20.750
                    -92077.918 6    -73035.617 6  21326104.227    21326106.746
        17.750          21.000
                   1634542.243 5   1273668.256 5  24077386.914    24077390.078
         9.250           8.250
                  -1397906.606 5  -1105181.977 5  23832413.242    23832416.770
         7.500           8.000
                   -776189.946 5   -604822.057 6  23323059.086    23323061.887
        10.500          12.000
                    181464.689 6    141400.510 6  20734117.484    20734119.184
        19.500          22.250
                  -1765067.170 5  -1375376.175 5  23121743.320    23121746.676
        10.000           9.750
 95  4 21 15 25 30.0000000  0  7G14G18G22G27G28G29G31
                   1822690.980 4   1420277.610 5  24101227.688    24101232.570
         6.250           8.000
                   -744633.730 7   -580233.761 6  20306441.594    20306443.418
        22.000          20.500
                   1679793.313 5   1308928.806 5  24085998.047    24086001.387
         9.500           9.000
                  -1440290.625 5  -1138208.466 5  23824347.945    23824351.484
         7.750           8.250
                   -794582.763 5   -619154.097 6  23319558.945    23319561.719
        10.500          12.250
                    188711.098 6    147047.058 6  20735496.414    20735498.168
        19.500          22.250
                  -1811452.952 5  -1411520.940 5  23112916.445    23112919.617
        10.000           9.750
 95  4 21 15 25 45.0000000  0  8G14G18G19G22G27G28G29G31
                   1871313.690 3   1458165.384 5  24110480.516    24110485.414
         6.000           8.000
                   -761872.998 7   -593666.952 6  20303161.086    20303162.848
        22.000          20.500
                     -3258.73416     -3810.27116  21316779.906    21316782.480
        18.000          21.000
                   1725089.495 5   1344224.505 5  24094617.422    24094620.852
         9.500           9.250
                  -1482648.561 5  -1171214.624 5  23816287.539    23816291.105
         7.750           8.250
                   -812840.498 5   -633380.880 6  23316084.633    23316087.547
        10.500          12.250
                    196076.754 6    152786.525 6  20736898.117    20736899.746
        19.500          22.000
                  -1857769.896 5  -1447612.050 5  23104102.539    23104105.766
        10.000           9.750
 95  4 21 15 26  0.0000000  0  8G14G18G19G22G27G28G29G31
                   1919958.675 4   1496070.515 5  24119737.352    24119742.219
         6.500           8.000
                   -778992.782 7   -607007.042 6  20299903.070    20299904.742
        22.250          20.500
                    -27675.702 6    -22836.470 6  21312133.711    21312136.168
        18.000          21.000
                   1770430.414 5   1379555.069 5  24103245.477    24103249.203
         9.500           9.750
                  -1524978.273 5  -1204198.800 5  23808233.008    23808235.785
         8.000           8.250
                   -830960.430 5   -647500.281 6  23312636.414    23312639.250
        10.250          12.250
                    203563.416 6    158620.286 6  20738322.750    20738324.414
        19.500          22.000
                  -1904016.999 5  -1483648.748 5  23095302.031    23095305.594
        10.000           9.750
 95  4 21 15 26 15.0000000  0  8G14G18G19G22G27G28G29G31
                   1968622.855 4   1533990.606 5  24128998.070    24129002.953
         6.750           8.000
                   -795987.075 7   -620249.342 6  20296669.289    20296670.875
        22.250          20.250
                    -52034.255 6    -41817.145 6  21307498.203    21307500.754
        18.000          21.000
                   1815815.604 5   1414920.122 5  24111881.969    24111885.609
         9.000          10.250
                  -1567279.506 5  -1237160.775 5  23800183.008    23800186.180
         8.000           8.250
                   -848941.611 5   -661511.567 6  23309214.594    23309217.410
        10.500          12.000
                    211172.045 6    164549.089 6  20739770.664    20739772.363
        19.500          22.000
                  -1950193.636 5  -1519630.537 5  23086515.023    23086518.430
        10.000          10.000
 95  4 21 15 26 30.0000000  0  8G14G18G19G22G27G28G29G31
                   2017302.010 4   1571922.375 5  24138261.445    24138266.262
         6.750           7.750
                   -812856.015 7   -633393.968 6  20293459.188    20293460.824
        22.250          20.250
                    -76336.777 6    -60754.166 6  21302873.805    21302876.176
        18.000          21.000
                   1861241.815 5   1450317.136 5  24120526.414    24120530.086
         8.250          10.500
                  -1609552.781 5  -1270100.972 5  23792138.320    23792141.520
         8.000           8.000
                   -866786.631 5   -675416.752 6  23305818.844    23305821.742
        10.500          12.000
                    218901.995 6    170572.423 6  20741241.445    20741243.160
        19.500          22.000
                  -1996303.167 5  -1555560.038 5  23077740.672    23077744.008
        10.000          10.000
 95  4 21 15 26 45.0000000  0  8G14G18G19G22G27G28G29G31
                   2066002.899 4   1609871.078 5  24147528.898    24147533.531
         6.500           7.250
                   -829592.824 7   -646435.634 6  20290274.258    20290275.891
        22.250          20.250
                   -100580.534 6    -79645.394 6  21298260.398    21298262.750
        18.250          21.000
                   1906710.488 5   1485747.230 5  24129178.570    24129182.582
         7.750          10.250
                  -1651791.325 5  -1303014.108 5  23784100.648    23784103.535
         7.750           8.000
                   -884491.688 5   -689212.881 6  23302449.625    23302452.531
        10.250          12.000
                    226754.733 6    176691.439 6  20742735.859    20742737.586
        19.500          22.250
                  -2042340.198 5  -1591433.044 5  23068980.250    23068983.512
        10.000          10.250
 95  4 21 15 27  0.0000000  0  8G14G18G19G22G27G28G29G31
                   2114728.785 4   1647839.257 5  24156801.016    24156806.012
         6.500           7.250
                   -846193.646 7   -659371.337 6  20287115.141    20287116.824
        22.000          20.000
                   -124763.535 6    -98489.278 6  21293658.406    21293660.789
        18.250          21.250
                   1952223.650 4   1521211.995 5  24137839.617    24137843.613
         7.250          10.250
                  -1693993.210 5  -1335898.673 5  23776069.695    23776072.992
         8.000           8.250
                   -902054.631 5   -702898.269 6  23299107.313    23299110.453
        10.250          12.000
                    234734.171 6    182909.181 6  20744254.367    20744256.074
        19.500          22.000
                  -2088302.837 5  -1627248.077 5  23060233.734    23060237.043
        10.000          10.000
 95  4 21 15 27 15.0000000  0  8G14G18G19G22G27G28G29G31
                   2163480.474 4   1685827.554 5  24166078.008    24166083.070
         6.250           6.750
                   -862658.232 7   -672200.882 6  20283982.242    20283983.867
        22.250          20.250
                   -148883.234 6   -117283.839 6  21289068.688    21289071.051
        18.500          21.000
                   1997782.735 4   1556712.534 5  24146508.984    24146513.094
         6.500          10.000
                  -1736157.948 5  -1368754.289 5  23768046.266    23768049.129
         8.000           8.250
                   -919473.120 5   -716471.097 6  23295792.844    23295795.797
        10.250          12.000
                    242846.125 6    189230.185 6  20745798.094    20745799.664
        19.500          22.000
                  -2134184.618 5  -1663000.103 5  23051502.602    23051506.000
        10.000          10.250
 95  4 21 15 27 30.0000000  0  8G14G18G19G22G27G28G29G31
                   2212251.335 4   1723830.776 5  24175358.797    24175363.828
         6.500           7.000
                   -878993.031 7   -684929.295 6  20280873.734    20280875.410
        22.250          20.250
                   -172941.629 6   -136030.631 6  21284490.453    21284492.801
        18.500          21.250
                   2043384.086 4   1592246.006 5  24155186.547    24155190.789
         6.250           9.750
                  -1778285.811 5  -1401581.179 5  23760029.422    23760032.215
         8.000           8.000
                   -936749.446 5   -729933.151 5  23292505.242    23292507.785
        10.250          11.750
                    251086.857 6    195651.529 6  20747366.203    20747367.891
        19.500          22.000
                  -2179984.336 5  -1698688.191 5  23042787.188    23042790.535
        10.000          10.000
 95  4 21 15 27 45.0000000  0  8G14G18G19G22G27G28G29G31
                   2261038.840 4   1761846.980 5  24184642.672    24184647.977
         6.250           7.000
                   -895202.738 7   -697560.229 6  20277789.281    20277790.875
        22.250          20.000
                   -196939.125 6   -154729.968 6  21279923.875    21279926.230
        18.500          21.250
                   2089020.298 3   1627806.642 5  24163870.961    24163874.980
         6.000           9.250
                  -1820377.322 5  -1434379.738 5  23752019.594    23752022.418
         8.000           8.250
                   -953887.270 5   -743287.277 5  23289243.969    23289246.867
        10.500          11.750
                    259453.294 6    202170.831 6  20748958.336    20748959.844
        19.250          22.000
                  -2225706.338 5  -1734315.719 5  23034086.641    23034090.086
        10.250          10.000
 95  4 21 15 28  0.0000000  0  8G14G18G19G22G27G28G29G31
                   2309870.927 3   1799897.907 5  24193935.359    24193940.531
         6.000           7.000
                   -911262.956 7   -710074.682 6  20274732.922    20274734.574
        22.250          20.000
                   -220847.362 6   -173359.751 6  21275374.500    21275376.859
        18.750          21.500
                   2134716.669 4   1663414.151 5  24172566.461    24172570.664
         6.250           9.000
                  -1862402.919 5  -1467126.938 5  23744022.203    23744025.309
         8.000           8.250
                   -970858.463 5   -756511.565 5  23286014.828    23286017.426
        10.500          11.750
                    267971.842 6    208808.656 6  20750579.281    20750580.914
        19.250          22.000
                  -2271322.105 5  -1769860.468 5  23025406.469    23025409.484
        10.250          10.000
 95  4 21 15 28 15.0000000  0  8G14G18G19G22G27G28G29G31
                   2358730.472 3   1837970.238 5  24203233.211    24203238.508
         6.000           7.000
                   -927190.220 7   -722485.535 6  20271702.195    20271703.898
        22.250          20.250
                   -244685.261 6   -191934.728 6  21270838.250    21270840.602
        18.750          21.500
                   2180459.568 4   1699057.934 5  24181271.258    24181275.363
         6.750           9.000
                  -1904380.475 5  -1499836.691 5  23736034.117    23736037.477
         8.000           8.500
                   -987679.521 5   -769618.867 6  23282813.727    23282816.473
        10.500          12.000
                    276624.996 6    215551.373 6  20752225.984    20752227.551
        19.250          22.000
                  -2316846.571 5  -1805334.065 5  23016743.156    23016746.500
        10.250          10.250
 95  4 21 15 28 30.0000000  0  8G14G18G19G22G27G28G29G31
                   2407613.762 3   1876061.064 5  24212535.234    24212540.387
         5.750           6.750
                   -942991.795 7   -734798.445 6  20268695.313    20268696.945
        22.250          20.250
                   -268458.989 6   -210459.701 6  21266314.266    21266316.598
        18.750          21.500
                   2226244.441 4   1734734.419 5  24189984.250    24189988.043
         7.250           8.750
                  -1946316.308 5  -1532513.959 5  23728054.000    23728057.609
         8.000           8.500
                  -1004357.304 5   -782614.521 6  23279640.008    23279642.715
        10.500          12.000
                    285405.122 6    222393.025 6  20753896.820    20753898.383
        19.500          22.000
                  -2362285.837 5  -1840741.269 5  23008096.438    23008099.684
        10.000          10.500
 95  4 21 15 28 45.0000000  0  8G14G18G19G22G27G28G29G31
                   2456515.657 3   1914166.397 5  24221841.258    24221846.277
         5.750           7.000
                   -958678.329 7   -747021.715 6  20265710.125    20265711.930
        22.500          20.250
                   -292174.627 6   -228939.412 6  21261801.133    21261803.520
        18.500          21.500
                   2272062.815 5   1770437.025 5  24198703.305    24198707.043
         7.750           8.500
                  -1988216.899 5  -1565163.755 5  23720080.477    23720084.352
         7.750           8.750
                  -1020898.035 5   -795503.382 6  23276492.477    23276494.875
        10.750          12.000
                    294304.513 6    229327.616 6  20755590.375    20755591.844
        19.250          21.750
                  -2407645.641 5  -1876086.553 5  22999464.875    22999468.109
        10.250          10.500
 95  4 21 15 29  0.0000000  0  8G14G18G19G22G27G28G29G31
                   2505433.739 3   1952284.331 5  24231150.266    24231155.168
         5.750           7.250
                   -974252.305 7   -759157.280 6  20262746.461    20262748.199
        22.500          20.250
                   -315829.600 6   -247371.850 6  21257299.758    21257302.090
        18.500          21.250
                   2317912.365 5   1806163.923 5  24207428.289    24207431.738
         8.250           8.250
                  -2030082.833 5  -1597786.546 5  23712113.602    23712117.719
         7.500           9.000
                  -1037301.963 5   -808285.649 6  23273371.055    23273373.531
        10.750          12.000
                    303324.305 6    236356.024 6  20757306.680    20757308.180
        19.250          22.000
                  -2452928.361 5  -1911371.775 5  22990847.938    22990851.336
        10.250          10.750
 95  4 21 15 29 15.0000000  0  8G14G18G19G22G27G28G29G31
                   2554366.611 3   1990413.797 5  24240461.641    24240466.621
         6.000           7.000
                   -989715.673 7   -771206.657 6  20259804.016    20259805.867
        22.500          20.250
                   -339420.384 6   -265754.272 6  21252810.594    21252812.969
        18.500          21.250
                   2363794.335 5   1841916.088 5  24216159.305    24216162.973
         8.250           8.250
                  -2071914.796 5  -1630382.870 5  23704153.258    23704156.965
         7.500           9.000
                  -1053567.754 5   -820960.279 6  23270275.492    23270278.230
        10.500          12.000
                    312467.331 6    243480.458 6  20759046.555    20759048.105
        19.500          22.250
                  -2498132.417 5  -1946595.696 5  22982245.984    22982249.473
        10.000          11.000
 95  4 21 15 29 30.0000000  0  7G18G19G22G27G28G29G31
                  -1005070.144 7   -783171.178 6  20256882.273    20256884.117
        22.500          20.250
                   -362949.875 6   -284088.929 6  21248333.070    21248335.527
        18.500          21.250
                   2409708.413 5   1877693.268 5  24224896.555    24224900.402
         8.250           8.500
                  -2113713.401 5  -1662953.194 5  23696199.211    23696203.367
         7.500           9.000
                  -1069696.868 5   -833528.406 5  23267206.078    23267208.836
        10.500          11.750
                    321730.201 6    250698.279 6  20760809.430    20760811.113
        19.500          22.250
                  -2543258.301 5  -1981758.704 5  22973658.797    22973662.414
        10.000          11.000
 95  4 21 15 29 45.0000000  0  7G18G19G22G27G28G29G31
                  -1020307.972 7   -795044.810 6  20253982.594    20253984.523
        22.500          20.250
                   -386416.570 6   -302374.658 6  21243867.445    21243869.926
        18.500          21.250
                   2455658.735 5   1913498.682 5  24233640.445    24233644.367
         8.000           8.750
                  -2155475.473 5  -1695495.056 5  23688252.383    23688256.012
         7.500           9.000
                  -1085686.106 5   -845987.539 5  23264163.555    23264166.238
        10.500          11.750
                    331113.907 6    258010.255 6  20762594.984    20762596.730
        19.500          22.500
                  -2588302.372 5  -2016857.961 5  22965087.180    22965090.805
        10.000          11.250
 95  4 21 15 30  0.0000000  0  7G18G19G22G27G28G29G31
                  -1035429.476 7   -806827.796 6  20251105.055    20251106.945
        22.500          20.250
                   -409825.466 6   -320615.344 6  21239412.844    21239415.234
        18.250          21.000
                   2501644.584 5   1949331.782 5  24242391.570    24242395.316
         8.000           8.500
                  -2197207.387 5  -1728013.421 5  23680311.195    23680315.094
         7.750           9.000
                  -1101538.538 5   -858340.076 5  23261146.945    23261149.512
        10.500          11.750
                    340615.726 6    265414.265 6  20764403.195    20764404.906
        19.500          22.500
                  -2633267.806 5  -2051895.940 5  22956530.531    22956534.109
        10.250          11.250
 95  4 21 15 30 15.0000000  0  7G18G19G22G27G28G29G31
                  -1050435.479 7   -818520.784 6  20248249.492    20248251.426
        22.250          20.000
                   -433181.516 6   -338814.852 6  21234968.547    21234970.957
        18.500          21.250
                   2547666.347 5   1985192.858 5  24251148.883    24251152.914
         7.750           8.500
                  -2238915.874 5  -1760513.531 5  23672374.234    23672378.242
         7.750           9.000
                  -1117257.414 5   -870588.538 6  23258155.836    23258158.422
        10.750          12.000
                    350232.076 6    272907.521 6  20766233.055    20766234.777
        19.750          22.500
                  -2678158.621 5  -2086875.772 5  22947988.055    22947991.676
        10.500          11.250
 95  4 21 15 30 30.0000000  0  7G18G19G22G27G28G29G31
                  -1065321.342 7   -830120.153 6  20245416.602    20245418.465
        22.250          20.000
                   -456481.242 6   -356970.477 6  21230534.695    21230537.137
        18.500          21.250
                   2593726.928 5   2021084.191 5  24259914.156    24259918.109
         7.500           8.250
                  -2280600.307 5  -1792994.885 5  23664441.844    23664446.395
         7.750           9.250
                  -1132840.288 5   -882731.028 6  23255190.578    23255192.980
        10.750          12.000
                    359965.525 6    280492.021 6  20768085.438    20768087.074
        19.750          22.500
                  -2722973.865 5  -2121796.720 5  22939459.961    22939463.383
        10.250          11.250
 95  4 21 15 30 45.0000000  0  7G18G19G22G27G28G29G31
                  -1080084.173 7   -841623.655 6  20242607.398    20242609.301
        22.250          19.750
                   -479722.064 6   -375080.200 6  21226112.156    21226114.477
        18.500          21.250
                   2639824.260 5   2057004.157 5  24268686.258    24268690.051
         7.750           8.000
                  -2322259.510 5  -1825456.593 5  23656514.641    23656518.906
         7.750           9.250
                  -1148285.517 5   -894766.264 6  23252251.406    23252253.945
        11.000          12.250
                    369818.910 7    288169.977 6  20769960.516    20769962.043
        20.000          22.500
                  -2767712.578 5  -2156658.035 5  22930946.133    22930949.836
        10.000          11.000
 95  4 21 15 31  0.0000000  0  7G18G19G22G27G28G29G31
                  -1094722.657 7   -853030.262 6  20239821.828    20239823.633
        22.250          19.750
                   -502906.226 6   -393145.772 6  21221700.422    21221702.820
        18.500          21.000
                   2685957.686 5   2092952.248 5  24277465.109    24277469.039
         7.750           8.000
                  -2363895.580 5  -1857900.267 5  23648591.492    23648595.605
         8.000           9.500
                  -1163593.771 5   -906694.770 6  23249338.359    23249341.094
        11.000          12.250
                    379791.149 6    295940.544 6  20771858.203    20771859.793
        19.750          22.500
                  -2812373.794 5  -2191458.959 5  22922447.359    22922450.980
        10.250          11.250
 95  4 21 15 31 15.0000000  0  7G18G19G22G27G28G29G31
                  -1109232.763 7   -864336.836 6  20237060.672    20237062.453
        22.250          19.500
                   -526033.461 6   -411166.986 6  21217299.227    21217301.551
        18.500          21.000
                   2732131.868 5   2128932.104 5  24286251.859    24286255.617
         8.000           7.500
                  -2405508.066 5  -1890325.563 5  23640672.938    23640677.098
         8.000           9.500
                  -1178763.521 5   -918515.354 6  23246451.680    23246454.230
        11.000          12.250
                    389880.354 6    303802.254 6  20773778.047    20773779.629
        19.750          22.500
                  -2856954.264 5  -2226196.969 5  22913964.203    22913967.848
        10.500          11.250
 95  4 21 15 31 30.0000000  0  7G18G19G22G27G28G29G31
                  -1123613.114 7   -875542.301 6  20234324.211    20234325.844
        22.250          19.500
                   -549110.100 6   -429148.778 6  21212908.023    21212910.250
        18.500          21.000
                   2778345.891 5   2164943.002 5  24295046.023    24295049.691
         8.250           7.000
                  -2447098.370 5  -1922733.574 5  23632758.828    23632762.438
         8.250           9.250
                  -1193796.471 5   -930229.338 6  23243591.172    23243593.563
        11.000          12.250
                    400082.345 6    311751.852 6  20775719.336    20775720.969
        19.750          22.500
                  -2901452.870 5  -2260871.195 5  22905496.328    22905499.906
        10.500          11.250
 95  4 21 15 31 45.0000000  0  7G18G19G22G27G28G29G31
                  -1137863.291 7   -886646.332 6  20231612.523    20231614.164
        22.250          19.500
                   -572139.727 6   -447093.936 6  21208525.523    21208527.762
        18.500          21.000
                   2824594.828 5   2200981.122 5  24303846.922    24303850.512
         8.500           6.750
                  -2488668.010 5  -1955125.492 5  23624848.352    23624851.859
         8.500           9.250
                  -1208695.323 5   -941838.834 6  23240755.992    23240758.465
        11.250          12.250
                    410395.339 6    319787.939 6  20777681.828    20777683.477
        19.500          22.500
                  -2945871.986 5  -2295483.465 5  22897043.656    22897047.207
        10.500          11.250
 95  4 21 15 32  0.0000000  0  7G18G19G22G27G28G29G31
                  -1151980.872 7   -897647.043 6  20228926.117    20228927.656
        22.250          19.500
                   -595116.994 6   -464998.293 6  21204153.133    21204155.449
        18.500          21.000
                   2870879.021 5   2237046.711 5  24312654.656    24312658.125
         8.500           7.000
                  -2530211.306 5  -1987496.882 5  23616942.820    23616946.750
         8.750           9.500
                  -1223455.378 5   -953340.172 6  23237947.203    23237949.543
        11.250          12.000
                    420822.852 6    327913.273 6  20779666.086    20779667.770
        19.500          22.500
                  -2990208.664 5  -2330031.509 5  22888606.555    22888610.152
        10.750          11.000
 95  4 21 15 32 15.0000000  0  7G18G19G22G27G28G29G31
                  -1165970.141 7   -908547.772 6  20226264.102    20226265.582
        22.250          19.250
                   -618044.850 6   -482864.146 6  21199790.125    21199792.477
        18.500          21.000
                   2917194.898 5   2273136.991 5  24321468.234    24321472.063
         8.500           7.000
                  -2571729.833 5  -2019848.955 5  23609042.148    23609046.055
         8.750           9.500
                  -1238077.442 5   -964733.984 5  23235164.758    23235166.988
        11.250          11.750
                    431365.295 6    336128.156 6  20781672.234    20781673.953
        19.250          22.500
                  -3034464.994 5  -2364516.938 5  22880184.898    22880188.238
        10.750          11.000
 95  4 21 15 32 30.0000000  0  7G18G19G22G27G28G29G31
                  -1179832.728 7   -919349.785 6  20223626.109    20223627.699
        22.250          19.250
                   -640925.682 6   -500693.365 6  21195436.102    21195438.441
        18.750          21.000
                   2963536.062 5   2309246.966 5  24330287.156    24330290.422
         8.000           7.250
                  -2613225.184 5  -2052182.981 5  23601146.133    23601149.578
         9.000           9.250
                  -1252563.879 5   -976022.115 5  23232408.117    23232410.266
        11.250          11.750
                    442018.841 6    344429.609 6  20783699.563    20783701.305
        19.500          22.500
                  -3078644.286 5  -2398942.340 5  22871777.953    22871781.121
        11.000          10.750
 95  4 21 15 32 45.0000000  0  7G18G19G22G27G28G29G31
                  -1193570.229 7   -930054.328 6  20221011.805    20221013.473
        22.250          19.500
                   -663759.506 6   -518485.946 6  21191090.953    21191093.180
        18.750          21.000
                   3009898.026 5   2345373.151 5  24339109.273    24339112.977
         7.500           7.750
                  -2654695.770 5  -2084497.711 5  23593254.500    23593257.902
         9.000           9.250
                  -1266914.518 5   -987204.435 5  23229677.289    23229679.582
        11.000          11.750
                    452782.308 6    352816.716 6  20785747.805    20785749.531
        19.500          22.750
                  -3122742.253 5  -2433304.377 5  22863386.406    22863389.223
        10.750          10.750
 95  4 21 15 33  0.0000000  0  7G18G19G22G27G28G29G31
                  -1207179.747 7   -940659.146 6  20218422.031    20218423.605
        22.250          19.500
                   -686541.861 6   -536238.426 6  21186755.570    21186757.777
        18.750          21.000
                   3056284.282 4   2381518.259 5  24347935.922    24347939.934
         6.750           8.250
                  -2696133.791 5  -2116787.068 5  23585369.094    23585372.387
         9.250           9.500
                  -1281125.649 5   -998278.042 6  23226972.750    23226975.414
        11.000          12.250
                    463657.663 6    361291.007 6  20787817.266    20787819.117
        19.500          22.750
                  -3166753.003 5  -2467598.442 5  22855011.297    22855014.262
        10.750          10.750
 95  4 21 15 33 15.0000000  0  7G18G19G22G27G28G29G31
                  -1220663.475 7   -951165.945 6  20215856.156    20215857.793
        22.250          19.500
                   -709273.924 6   -553951.717 6  21182429.820    21182431.988
        18.750          20.750
                   3102696.522 4   2417683.594 5  24356767.492    24356771.848
         6.250           8.750
                  -2737539.335 5  -2149051.108 5  23577489.836    23577493.098
         9.250           9.500
                  -1295197.908 5  -1009243.443 6  23224294.898    23224297.641
        10.750          12.250
                    474644.536 6    369852.196 6  20789908.148    20789909.953
        19.500          22.750
                  -3210675.837 5  -2501824.004 5  22846653.094    22846656.172
        11.000          11.000
 95  4 21 15 33 30.0000000  0  6G18G19G27G28G29G31
                  -1234023.185 7   -961576.104 6  20213313.961    20213315.797
        22.250          19.500
                   -731953.434 6   -571624.053 6  21178114.219    21178116.414
        18.750          20.750
                  -2778910.261 5  -2181288.175 5  23569617.016    23569620.363
         9.250           9.250
                  -1309130.613 5  -1020100.097 6  23221643.609    23221646.406
        10.750          12.250
                    485746.391 6    378502.982 6  20792020.711    20792022.516
        19.500          22.750
                  -3254513.054 5  -2535982.856 5  22838311.055    22838314.313
        11.000          11.000
 95  4 21 15 33 45.0000000  0  6G18G19G27G28G29G31
                  -1247260.793 7   -971891.119 6  20210794.797    20210796.730
        22.250          19.750
                   -754577.576 6   -589253.248 6  21173808.961    21173811.258
        19.000          21.000
                  -2820245.229 5  -2213497.230 5  23561751.141    23561754.250
         8.750           9.250
                  -1322922.536 5  -1030847.050 6  23219019.070    23219021.898
        10.500          12.250
                    496969.139 6    387247.971 6  20794156.352    20794158.242
        19.500          22.750
                  -3298262.367 5  -2570073.215 5  22829986.094    22829989.191
        11.250          11.000
 95  4 21 15 34  0.0000000  0  6G18G19G27G28G29G31
                  -1260380.161 7   -982114.001 6  20208298.258    20208300.246
        22.250          19.750
                   -777144.583 6   -606837.925 6  21169514.516    21169516.902
        19.000          21.000
                  -2861547.414 5  -2245680.730 5  23553891.195    23553894.887
         8.750           9.250
                  -1336574.723 5  -1041485.116 6  23216420.914    23216423.762
        10.500          12.250
                    508312.759 6    396087.142 6  20796314.969    20796316.742
        19.500          22.750
                  -3341925.011 5  -2604096.035 5  22821677.570    22821680.254
        11.250          11.000
 95  4 21 15 34 15.0000000  0  6G18G19G27G28G29G31
                  -1273383.955 7   -992246.823 6  20205823.750    20205825.809
        22.250          20.000
                   -799655.969 6   -624379.259 6  21165230.781    21165233.137
        19.000          21.000
                  -2902821.047 5  -2277841.989 5  23546037.039    23546040.102
         8.500           9.000
                  -1350089.325 5  -1052015.971 6  23213849.297    23213852.020
        10.750          12.000
                    519776.400 6    405019.837 6  20798496.516    20798498.305
        19.500          22.750
                  -3385503.864 5  -2638053.561 5  22813384.234    22813387.230
        11.000          11.000
 95  4 21 15 34 30.0000000  0  6G18G19G27G28G29G31
                  -1286270.074 7  -1002287.951 6  20203371.734    20203373.855
        22.250          19.750
                   -822110.063 6   -641875.952 6  21160957.922    21160960.207
        19.000          20.750
                  -2944066.337 5  -2309981.160 5  23538188.383    23538191.500
         8.250           9.000
                  -1363466.471 5  -1062439.715 6  23211303.883    23211306.594
        10.750          12.000
                    531358.547 6    414044.876 6  20800700.617    20800702.395
        19.500          23.000
                  -3428998.220 5  -2671945.248 5  22805107.609    22805110.613
        11.000          11.000
 95  4 21 15 34 45.0000000  0  6G18G19G27G28G29G31
                  -1299035.160 7  -1012234.771 6  20200942.578    20200944.555
        22.250          19.750
                   -844498.992 6   -659321.866 6  21156697.563    21156699.559
        19.250          20.750
                  -2985277.586 5  -2342093.804 5  23530346.133    23530349.195
         8.250           9.000
                  -1376701.734 5  -1072752.904 6  23208785.234    23208787.805
        10.750          12.250
                    543062.367 6    423164.724 6  20802927.859    20802929.535
        19.500          23.000
                  -3472402.253 5  -2705766.557 5  22796848.008    22796851.496
        11.000          11.250
 95  4 21 15 35  0.0000000  0  6G18G19G27G28G29G31
                  -1311681.655 7  -1022089.177 6  20198536.078    20198538.059
        22.250          19.750
                   -866823.060 6   -676717.235 6  21152449.484    21152451.375
        19.250          20.500
                  -3026454.465 5  -2374179.661 5  23522510.273    23522513.352
         8.000           9.000
                  -1389795.081 5  -1082955.506 6  23206293.695    23206295.992
        11.000          12.250
                    554889.617 6    432380.753 6  20805178.563    20805180.258
        19.500          23.000
                  -3515715.423 5  -2739517.059 5  22788605.703    22788609.418
        10.750          11.250
 95  4 21 15 35 15.0000000  0  6G18G19G27G28G29G31
                  -1324208.542 7  -1031850.385 6  20196152.313    20196154.230
        22.500          19.750
                   -889087.922 6   -694066.474 6  21148212.531    21148214.496
        19.250          20.750
                  -3067599.724 5  -2406240.881 5  23514680.336    23514683.852
         7.750           9.000
                  -1402748.212 5  -1093048.851 6  23203828.977    23203831.176
        11.250          12.250
                    566842.361 6    441694.567 6  20807452.938    20807454.566
        19.500          23.000
                  -3558944.305 5  -2773201.886 5  22780379.820    22780383.344
        11.000          11.250
 95  4 21 15 35 30.0000000  0  6G18G19G27G28G29G31
                  -1336617.272 7  -1041519.522 6  20193790.961    20193792.859
        22.500          19.750
                   -911297.861 6   -711372.913 6  21143986.211    21143988.309
        19.250          20.750
                  -3108719.529 5  -2438282.266 5  23506855.625    23506858.621
         8.000           8.750
                  -1415563.455 5  -1103034.742 6  23201390.563    23201392.563
        11.500          12.250
                    578918.814 6    451104.780 6  20809750.992    20809752.770
        19.250          22.750
                  -3602091.809 5  -2806823.298 5  22772169.109    22772172.301
        11.000          11.250
 95  4 21 15 35 45.0000000  0  6G18G19G27G28G29G31
                  -1348906.092 7  -1051095.225 6  20191452.617    20191454.457
        22.500          19.750
                   -933451.552 6   -728635.523 6  21139770.391    21139772.449
        19.500          20.750
                  -3149814.682 5  -2470304.441 5  23499035.461    23499038.230
         8.000           9.000
                  -1428239.571 5  -1112912.231 6  23198978.289    23198980.465
        11.500          12.500
                    591118.623 6    460611.111 6  20812072.617    20812074.473
        19.250          23.000
                  -3645155.216 5  -2840379.186 5  22763974.383    22763977.836
        10.750          11.250
 95  4 21 15 36  0.0000000  0  6G18G19G27G28G29G31
                  -1361070.690 7  -1060574.128 6  20189137.555    20189139.430
        22.500          19.500
                   -955550.783 6   -745855.692 6  21135565.281    21135567.227
        19.500          20.750
                  -3190884.475 5  -2502306.853 5  23491220.453    23491223.445
         8.250           9.000
                  -1440774.082 5  -1122679.373 6  23196592.961    23196595.395
        11.500          12.500
                    603441.451 6    470213.301 6  20814417.430    20814419.320
        19.250          23.000
                  -3688130.524 5  -2873866.416 5  22755796.102    22755799.543
        11.000          11.500
 95  4 21 15 36 15.0000000  0  6G18G19G27G28G29G31
                  -1373109.692 7  -1069955.164 6  20186846.547    20186848.410
        22.500          19.500
                   -977598.421 6   -763035.662 6  21131369.656    21131371.512
        19.500          20.750
                  -3231929.035 5  -2534289.599 5  23483410.133    23483412.820
         8.500           8.500
                  -1453168.404 5  -1132337.278 6  23194234.641    23194236.625
        11.750          12.500
                    615883.269 6    479908.210 6  20816785.148    20816786.984
        19.250          23.000
                  -3731021.185 5  -2907287.696 5  22747634.570    22747637.973
        11.000          11.500
 95  4 21 15 36 30.0000000  0  6G18G19G27G28G29G31
                  -1385021.418 7  -1079237.027 6  20184579.820    20184581.680
        22.250          19.500
                   -999595.602 6   -780176.313 6  21127183.703    21127185.492
        19.250          20.750
                  -3272943.898 5  -2566249.222 5  23475605.328    23475608.266
         8.500           9.000
                  -1465420.709 5  -1141884.517 6  23191902.867    23191905.219
        11.500          12.500
                    628444.383 6    489696.080 6  20819175.492    20819177.340
        19.250          23.000
                  -3773826.537 5  -2940642.497 5  22739488.961    22739492.242
        11.000          11.500
 95  4 21 15 36 45.0000000  0  6G18G19G27G28G29G31
                  -1396807.764 7  -1088421.189 6  20182337.047    20182338.816
        22.500          19.250
                  -1021544.440 6   -797279.294 6  21123006.945    21123008.824
        19.500          20.750
                  -3313929.988 5  -2598186.419 5  23467805.867    23467809.000
         8.500           9.000
                  -1477532.746 5  -1151322.455 6  23189597.852    23189600.246
        11.500          12.250
                    641123.718 6    499576.069 6  20821588.250    20821590.188
        19.250          23.000
                  -3816546.496 5  -2973930.762 5  22731359.539    22731362.980
        11.250          11.500
 95  4 21 15 37  0.0000000  0  6G18G19G27G28G29G31
                  -1408467.486 7  -1097506.685 6  20180118.164    20180119.871
        22.500          19.250
                  -1043448.005 6   -814346.996 6  21118838.852    21118840.758
        19.250          20.750
                  -3354888.401 5  -2630102.042 5  23460011.922    23460015.027
         8.750           9.250
                  -1489503.992 5  -1160650.687 6  23187319.875    23187322.109
        11.250          12.250
                    653924.359 6    509550.581 6  20824024.211    20824026.047
        19.250          23.000
                  -3859180.793 5  -3007152.282 5  22723246.422    22723249.730
        11.000          11.500
 95  4 21 15 37 15.0000000  0  6G18G19G27G28G29G31
                  -1419997.414 7  -1106491.042 6  20177924.266    20177926.023
        22.500          19.250
                  -1065307.909 6   -831380.680 6  21114678.906    21114681.086
        19.250          20.750
                  -3395817.783 5  -2661995.048 5  23452223.305    23452226.207
         9.000           9.000
                  -1501335.093 5  -1169869.711 6  23185068.367    23185070.859
        11.250          12.250
                    666846.147 6    519619.497 6  20826482.977    20826484.863
        19.500          23.000
                  -3901730.859 5  -3040308.166 5  22715149.375    22715152.594
        11.000          11.250
 95  4 21 15 37 30.0000000  0  6G18G19G27G28G29G31
                  -1431392.260 7  -1115370.140 6  20175755.844    20175757.570
        22.500          19.250
                  -1087116.117 6   -848374.081 6  21110528.945    21110531.180
        19.000          20.750
                  -3436717.234 5  -2693864.728 5  23444440.297    23444443.293
         9.000           9.000
                  -1513022.276 5  -1178976.600 6  23182844.391    23182846.816
        11.250          12.250
                    679889.476 6    529783.116 6  20828965.273    20828967.141
        19.250          23.000
                  -3944190.005 5  -3073393.198 5  22707069.680    22707072.918
        11.250          11.500
 95  4 21 15 37 45.0000000  0  6G18G19G27G28G29G31
                  -1442656.402 7  -1124147.388 6  20173612.375    20173614.113
        22.500          19.250
                  -1108869.898 6   -865325.069 6  21106389.266    21106391.422
        19.000          20.750
                  -3477587.641 5  -2725711.777 5  23436663.047    23436666.098
         9.250           9.000
                  -1524567.097 5  -1187972.555 6  23180647.313    23180649.785
        11.000          12.000
                    693049.107 6    540037.362 6  20831469.508    20831471.211
        19.500          22.750
                  -3986555.476 5  -3106405.241 6  22699007.844    22699011.301
        11.250          12.000
 95  4 21 15 38  0.0000000  0  6G18G19G27G28G29G31
                  -1453785.899 7  -1132819.722 6  20171494.500    20171496.281
        22.500          19.250
                  -1130566.262 6   -882231.317 6  21102260.789    21102262.887
        18.750          20.750
                  -3518423.498 5  -2757531.916 5  23428892.297    23428895.500
         9.250           9.250
                  -1535965.295 5  -1196854.246 6  23178478.148    23178480.992
        11.000          12.250
                    706328.621 6    550385.021 6  20833996.555    20833998.270
        19.500          22.750
                  -4028824.095 5  -3139341.812 5  22690964.742    22690967.730
        11.500          11.500
 95  4 21 15 38 15.0000000  0  6G18G19G27G28G29G31
                  -1464786.289 7  -1141391.449 6  20169401.180    20169402.984
        22.500          19.250
                  -1152208.616 6   -899095.480 6  21098142.203    21098144.133
        18.750          20.750
                  -3559227.461 5  -2789327.196 5  23421127.594    23421131.168
         9.250           9.250
                  -1547221.177 5  -1205625.050 6  23176336.586    23176339.027
        11.000          12.500
                    719723.488 6    560822.568 6  20836545.391    20836547.051
        19.500          22.750
                  -4071001.795 5  -3172207.533 5  22682938.391    22682941.367
        11.750          11.500
 95  4 21 15 38 30.0000000  0  6G18G19G27G28G29G31
                  -1475655.909 7  -1149861.279 6  20167332.766    20167334.531
        22.500          19.250
                  -1173791.230 6   -915913.092 6  21094035.109    21094037.270
        18.750          20.750
                  -3599997.515 5  -2821096.058 5  23413369.102    23413373.086
         9.250           9.500
                  -1558332.629 5  -1214283.308 6  23174222.102    23174224.590
        11.000          12.500
                    733235.107 6    571351.086 6  20839116.477    20839118.238
        19.500          22.750
                  -4113086.203 5  -3205000.557 5  22674930.031    22674933.055
        11.750          11.750
 95  4 21 15 38 45.0000000  0  6G18G19G27G28G29G31
                  -1486398.282 7  -1158231.958 6  20165288.555    20165290.434
        22.500          19.250
                  -1195315.508 6   -932685.249 6  21089939.156    21089941.375
        18.500          20.750
                  -3640738.737 5  -2852842.452 5  23405616.086    23405619.836
         9.000           9.500
                  -1569301.308 5  -1222830.316 6  23172134.930    23172137.242
        11.250          12.500
                    746861.294 6    581968.883 6  20841709.320    20841711.238
        19.500          22.750
                  -4155077.094 5  -3237720.719 6  22666939.313    22666942.617
        11.750          12.000
 95  4 21 15 39  0.0000000  0  6G18G19G27G28G29G31
                  -1497009.065 7  -1166500.096 6  20163269.281    20163271.148
        22.500          19.250
                  -1216776.843 6   -949408.358 6  21085855.000    21085857.402
        18.500          20.750
                  -3681449.121 5  -2884564.811 5  23397869.281    23397872.934
         9.000           9.750
                  -1580124.188 5  -1231263.704 6  23170075.531    23170077.773
        11.500          12.500
                    760604.663 6    592677.987 6  20844324.672    20844326.547
        19.500          22.750
                  -4196971.575 5  -3270365.747 6  22658966.898    22658970.340
        11.750          12.000
 95  4 21 15 39 15.0000000  0  6G18G19G27G28G29G31
                  -1507488.792 7  -1174666.114 6  20161275.031    20161276.938
        22.500          19.250
                  -1238176.401 6   -966083.333 6  21081782.805    21081785.258
        18.250          21.000
                  -3722128.857 5  -2916263.295 5  23390128.148    23390131.586
         8.750           9.750
                  -1590802.425 5  -1239584.390 6  23168043.672    23168045.934
        11.750          12.750
                    774461.209 6    603475.284 6  20846961.539    20846963.477
        19.250          22.750
                  -4238771.089 5  -3302936.778 6  22651012.852    22651016.066
        11.750          12.000
 95  4 21 15 39 30.0000000  0  6G18G19G27G28G29G31
                  -1517831.858 7  -1182725.642 6  20159306.844    20159308.824
        22.500          19.250
                  -1259509.233 6   -982706.312 6  21077723.297    21077725.676
        18.250          21.000
                  -3762775.432 5  -2947935.939 5  23382392.938    23382397.078
         8.750          10.000
                  -1601330.262 5  -1247787.881 6  23166040.109    23166042.625
        11.750          12.750
                    788434.056 6    614363.208 6  20849620.445    20849622.473
        19.250          22.750
                  -4280469.740 6  -3335429.213 6  22643078.102    22643081.066
        12.000          12.000
 95  4 21 15 39 45.0000000  0  6G18G19G27G28G29G31
                  -1528047.001 7  -1190685.490 6  20157363.125    20157365.086
        22.500          19.250
                  -1280783.975 6   -999284.029 6  21073674.805    21073677.078
        18.250          20.750
                  -3803396.082 5  -2979588.373 5  23374662.820    23374667.082
         8.250          10.250
                  -1611712.805 5  -1255878.158 6  23164064.359    23164066.641
        11.750          13.000
                    802519.637 6    625338.977 6  20852300.891    20852302.715
        19.250          22.750
                  -4322073.360 6  -3367847.598 6  22635161.359    22635164.145
        12.000          12.000
 95  4 21 15 40  0.0000000  0  6G18G19G27G28G29G31
                  -1538140.249 7  -1198550.355 6  20155442.438    20155444.375
        22.750          19.250
                  -1302008.747 6  -1015822.807 6  21069635.898    21069638.102
        18.250          20.750
                  -3843992.840 5  -3011222.195 5  23366937.633    23366941.883
         8.250          10.250
                  -1621953.228 5  -1263857.694 6  23162115.641    23162117.996
        11.750          13.000
                    816719.882 6    636404.090 6  20855003.281    20855005.051
        19.250          22.750
                  -4363589.803 6  -3400198.053 6  22627260.828    22627263.879
        12.000          12.000
 95  4 21 15 40 15.0000000  0  6G18G19G27G28G29G31
                  -1548103.488 7  -1206313.921 6  20153546.578    20153548.547
        22.750          19.500
                  -1323179.166 6  -1032319.230 6  21065607.375    21065609.578
        18.250          21.000
                  -3884559.162 5  -3042832.295 5  23359218.117    23359222.285
         8.500          10.500
                  -1632045.914 5  -1271722.112 6  23160194.938    23160197.492
        11.750          13.000
                    831042.734 6    647564.746 6  20857728.844    20857730.559
        19.250          22.500
                  -4405014.994 6  -3432477.401 6  22619378.047    22619380.906
        12.250          12.250
 95  4 21 15 40 30.0000000  0  6G18G19G27G28G29G31
                  -1557931.819 7  -1213972.357 6  20151676.273    20151678.164
        22.750          19.250
                  -1344291.263 6  -1048770.210 6  21061589.820    21061592.117
        18.250          21.000
                  -3925091.622 5  -3074416.023 5  23351504.930    23351509.344
         8.250          10.500
                  -1641988.903 5  -1279469.883 6  23158303.070    23158305.547
        11.500          13.000
                    845491.620 6    658823.607 6  20860478.414    20860480.137
        19.250          22.500
                  -4446344.688 6  -3464682.335 6  22611513.352    22611516.340
        12.250          12.250
 95  4 21 15 40 45.0000000  0  6G18G19G27G28G29G31
                  -1567632.278 7  -1221531.154 6  20149830.258    20149832.238
        22.750          19.250
                  -1365354.043 6  -1065182.763 6  21057581.734    21057584.152
        18.250          21.000
                  -3965596.776 5  -3105978.467 5  23343796.797    23343801.039
         8.250          10.750
                  -1651789.812 5  -1287106.945 6  23156437.867    23156440.293
        11.500          13.000
                    860060.525 6    670175.993 6  20863250.813    20863252.520
        19.250          22.500
                  -4487584.238 6  -3496817.029 6  22603665.469    22603668.316
        12.250          12.250
 95  4 21 15 41  0.0000000  0  6G18G19G27G28G29G31
                  -1577199.762 7  -1228986.334 6  20148009.570    20148011.480
        22.750          19.250
                  -1386363.472 6  -1081553.743 6  21053583.883    21053586.309
        18.250          21.250
                  -4006069.443 5  -3137515.590 5  23336095.305    23336099.492
         8.250          10.750
                  -1661444.581 5  -1294630.127 6  23154600.711    23154603.008
        11.750          13.000
                    874755.075 6    681626.283 6  20866047.063    20866048.758
        19.250          22.500
                  -4528731.205 6  -3528879.576 6  22595835.344    22595838.023
        12.000          12.250
 95  4 21 15 41 15.0000000  0  6G18G19G27G28G29G31
                  -1586636.392 7  -1236339.552 6  20146213.820    20146215.766
        22.750          19.250
                  -1407320.454 6  -1097883.855 6  21049595.781    21049598.188
        18.250          21.250
                  -4046511.309 5  -3169028.708 5  23328399.516    23328403.438
         8.500          10.500
                  -1670954.461 5  -1302040.413 6  23152791.094    23152793.215
        11.500          12.750
                    889575.317 6    693174.511 6  20868867.391    20868869.008
        19.000          22.500
                  -4569787.622 6  -3560871.566 6  22588022.453    22588025.414
        12.250          12.250
 95  4 21 15 41 30.0000000  0  6G18G19G27G28G29G31
                  -1595945.343 7  -1243593.279 6  20144442.383    20144444.363
        22.750          18.750
                  -1428228.096 6  -1114175.517 6  21045617.156    21045619.590
        18.250          20.750
                  -4086925.073 5  -3200519.942 5  23320709.086    23320712.773
         8.750          10.250
                  -1680320.985 5  -1309338.997 6  23151008.477    23151010.781
        11.250          12.250
                    904520.901 6    704820.416 6  20871711.305    20871713.008
        19.000          21.750
                  -4610752.144 6  -3592791.951 6  22580227.234    22580230.242
        12.250          12.250
 95  4 21 15 41 45.0000000  0  6G18G19G27G28G29G31
                  -1605128.045 7  -1250748.632 6  20142694.961    20142696.895
        22.750          19.000
                  -1449081.943 6  -1130425.263 6  21041649.180    21041651.402
        18.250          21.250
                  -4127310.073 5  -3231988.762 5  23313024.070    23313027.691
         9.000          10.500
                  -1689542.526 5  -1316524.604 6  23149253.523    23149256.160
        11.000          12.750
                    919596.327 6    716567.494 6  20874580.086    20874581.734
        19.000          22.500
                  -4651621.095 6  -3624637.861 6  22572450.063    22572453.047
        12.000          12.250
 95  4 21 15 42  0.0000000  0  6G18G19G27G28G29G31
                  -1614185.292 7  -1257806.227 6  20140971.469    20140973.398
        22.750          19.000
                  -1469879.096 6  -1146630.830 6  21037691.508    21037693.793
        18.500          21.250
                  -4167663.380 5  -3263432.881 5  23305345.508    23305348.902
         9.250          10.250
                  -1698619.160 5  -1323597.300 6  23147526.281    23147528.891
        10.750          12.750
                    934801.488 6    728415.662 6  20877473.586    20877475.324
        19.000          22.500
                  -4692390.577 6  -3656406.261 6  22564691.727    22564695.031
        12.250          12.500
 95  4 21 15 42 15.0000000  0  6G18G19G27G28G29G31
                  -1623114.503 7  -1264764.052 6  20139272.352    20139274.277
        22.500          19.000
                  -1490616.343 6  -1162789.718 6  21033745.297    21033747.578
        18.250          21.250
                  -4207984.483 5  -3294851.908 5  23297672.797    23297675.777
         9.750          10.000
                  -1707550.592 5  -1330556.851 6  23145826.563    23145829.285
        10.500          12.750
                    950133.199 6    740362.441 6  20880391.141    20880392.891
        19.000          22.500
                  -4733056.344 6  -3688093.851 6  22556953.695    22556956.793
        12.250          12.500
 95  4 21 15 42 30.0000000  0  6G18G19G27G28G29G31
                  -1631911.933 7  -1271619.193 6  20137598.133    20137599.898
        22.500          18.750
                  -1511287.968 6  -1178897.470 6  21029811.570    21029813.879
        18.250          21.000
                  -4248272.162 5  -3326244.894 5  23290006.438    23290008.633
        10.250           9.500
                  -1716334.040 5  -1337401.095 6  23144155.117    23144157.797
        10.750          12.500
                    965589.455 6    752406.274 6  20883332.305    20883334.031
        19.000          22.500
                  -4773610.368 6  -3719694.363 6  22549236.367    22549239.223
        12.250          12.500
 95  4 21 15 42 45.0000000  0  6G18G19G27G28G29G31
                  -1640581.123 7  -1278374.406 6  20135948.414    20135950.320
        22.500          18.750
                  -1531894.580 6  -1194954.569 6  21025890.375    21025892.555
        18.250          21.000
                  -4288532.935 5  -3357616.918 5  23282345.203    23282347.531
        10.500           9.500
                  -1724971.611 5  -1344131.669 6  23142511.203    23142514.082
        10.500          12.500
                    981165.416 6    764543.380 6  20886296.305    20886298.055
        19.000          22.500
                  -4814053.777 6  -3751208.687 6  22541540.109    22541543.152
        12.250          12.500
 95  4 21 15 43  0.0000000  0  6G18G19G27G28G29G31
                  -1649124.973 7  -1285031.951 6  20134322.781    20134324.578
        22.500          18.750
                  -1552437.671 6  -1210962.165 6  21021981.148    21021983.309
        18.250          21.000
                  -4328772.045 5  -3388972.045 5  23274688.008    23274690.082
        10.500           9.500
                  -1733463.107 5  -1350748.413 6  23140895.688    23140897.945
        10.500          12.250
                    996860.967 6    776773.672 6  20889283.094    20889284.859
        19.000          22.250
                  -4854388.993 6  -3782638.704 6  22533864.773    22533867.672
        12.250          12.500
 95  4 21 15 43 15.0000000  0  6G18G19G27G28G29G31
                  -1657541.154 7  -1291590.018 6  20132721.211    20132723.016
        22.750          18.750
                  -1572916.378 6  -1226919.597 6  21018084.117    21018086.273
        18.250          21.000
                  -4368990.195 5  -3420310.853 5  23267034.836    23267036.906
        10.750           9.000
                  -1741808.461 5  -1357251.283 6  23139307.781    23139309.906
        10.750          12.250
                   1012675.110 6    789096.375 6  20892292.375    20892294.109
        18.750          22.250
                  -4894615.348 6  -3813983.895 6  22526209.766    22526212.766
        12.250          12.750
 95  4 21 15 43 30.0000000  0  6G18G19G27G28G29G31
                  -1665824.027 7  -1298044.205 6  20131145.055    20131146.996
        22.500          18.750
                  -1593329.793 6  -1242826.148 6  21014199.648    21014201.844
        18.250          21.000
                  -4409182.486 5  -3451629.510 5  23259386.156    23259388.234
        10.500           8.750
                  -1750003.873 5  -1363637.316 6  23137748.367    23137750.355
        11.000          12.250
                   1028611.917 6    801514.660 6  20895324.914    20895326.727
        18.750          22.250
                  -4934725.682 6  -3845238.671 6  22518576.922    22518580.297
        12.000          13.000
 95  4 21 15 43 45.0000000  0  6G18G19G27G28G29G31
                  -1673971.150 7  -1304392.614 6  20129594.586    20129596.582
        22.750          18.750
                  -1613679.366 6  -1258682.955 6  21010326.984    21010329.297
        18.250          21.000
                  -4449348.396 5  -3482927.608 5  23251742.977    23251745.098
        10.250           8.750
                  -1758050.815 5  -1369907.653 6  23136216.898    23136219.234
        11.250          12.250
                   1044668.330 6    814026.146 6  20898380.539    20898382.301
        18.750          22.250
                  -4974721.574 6  -3876404.278 6  22510965.883    22510969.398
        12.000          13.000
 95  4 21 15 44  0.0000000  0  6G18G19G27G28G29G31
                  -1681983.346 7  -1310635.888 6  20128069.898    20128071.855
        22.750          18.750
                  -1633970.027 6  -1274493.852 6  21006465.914    21006468.188
        18.000          21.250
                  -4489488.612 5  -3514205.684 5  23244104.648    23244106.262
        10.250           8.500
                  -1765951.850 5  -1376064.296 6  23134713.547    23134715.750
        11.250          12.250
                   1060840.573 6    826627.890 6  20901457.969    20901459.789
        18.750          22.250
                  -5014608.840 6  -3907485.237 6  22503375.375    22503378.977
        12.000          13.000
 95  4 21 15 44 15.0000000  0  6G18G19G27G28G29G31
                  -1689857.904 7  -1316771.909 6  20126571.438    20126573.422
        22.750          19.000
                  -1654203.944 6  -1290260.539 6  21002615.375    21002617.656
        18.250          21.250
                  -4529600.827 5  -3545461.945 5  23236471.266    23236473.344
        10.000           8.500
                  -1773705.739 5  -1382106.285 6  23133238.008    23133240.266
        11.500          12.500
                   1077128.125 6    839319.483 6  20904557.234    20904559.215
        18.500          22.500
                  -5054391.214 6  -3938484.465 6  22495805.203    22495808.625
        12.250          13.250
 95  4 21 15 44 30.0000000  0  6G18G19G27G28G29G31
                  -1697594.345 7  -1322800.307 6  20125099.242    20125101.211
        22.750          19.000
                  -1674383.112 6  -1305984.560 6  20998775.586    20998777.828
        18.000          21.250
                  -4569685.293 5  -3576696.577 5  23228843.508    23228845.953
         9.500           8.500
                  -1781314.666 5  -1388035.317 6  23131790.203    23131792.375
        11.500          12.750
                   1093530.620 6    852100.644 6  20907678.516    20907680.668
        18.500          22.500
                  -5094076.229 6  -3969407.831 6  22488253.555    22488256.801
        12.250          13.000
 95  4 21 15 44 45.0000000  0  6G18G19G27G28G29G31
                  -1705186.398 7  -1328716.192 6  20123654.555    20123656.586
        22.750          19.000
                  -1694505.567 6  -1321664.390 6  20994946.500    20994948.648
        18.250          21.250
                  -4609735.942 5  -3607904.860 5  23221221.758    23221224.539
         9.250           8.500
                  -1788773.914 5  -1393847.716 6  23130370.555    23130372.949
        11.500          12.750
                   1110055.432 6    864977.114 6  20910823.109    20910825.242
        18.500          22.500
                  -5133664.362 6  -4000255.703 6  22480720.352    22480723.305
        12.250          13.000
 95  4 21 15 45  0.0000000  0  6G18G19G27G28G29G31
                  -1712634.699 7  -1334520.065 6  20122237.094    20122239.098
        22.750          18.750
                  -1714572.798 6  -1337301.189 6  20991127.664    20991129.898
        18.000          21.250
                  -4649749.538 5  -3639084.272 5  23213607.430    23213610.152
         9.000           8.750
                  -1796082.341 5  -1399542.593 6  23128979.859    23128982.508
        11.500          13.000
                   1126705.677 6    877951.323 6  20913991.602    20913993.648
        18.500          22.500
                  -5173158.336 6  -4031030.208 6  22473204.633    22473207.762
        12.250          13.000
 95  4 21 15 45 15.0000000  0  6G18G19G27G28G29G31
                  -1719942.001 7  -1340214.066 6  20120846.672    20120848.668
        23.000          18.750
                  -1734587.801 6  -1352897.292 6  20987318.859    20987321.117
        18.000          21.250
                  -4689722.082 5  -3670231.697 5  23206000.734    23206003.766
         8.750           8.750
                  -1803242.055 5  -1405121.588 6  23127617.492    23127619.922
        11.750          13.000
                   1143480.352 6    891022.491 6  20917183.711    20917185.730
        18.500          22.750
                  -5212557.978 6  -4061731.201 6  22465707.141    22465710.348
        12.250          12.750
 95  4 21 15 45 30.0000000  0  6G18G19G27G28G29G31
                  -1727105.566 7  -1345796.072 6  20119483.594    20119485.488
        23.000          18.750
                  -1754547.035 6  -1368449.938 6  20983520.883    20983523.066
        18.000          21.250
                  -4729646.441 5  -3701341.565 5  23198403.289    23198406.574
         8.750           9.000
                  -1810250.171 5  -1410582.456 6  23126283.750    23126285.910
        11.500          12.500
                   1160381.451 6    904192.173 6  20920399.922    20920401.883
        18.500          22.500
                  -5251859.302 6  -4092355.585 6  22458228.344    22458231.438
        12.000          13.000
 95  4 21 15 45 45.0000000  0  6G18G19G27G28G29G31
                  -1734131.869 7  -1351271.113 6  20118146.609    20118148.434
        23.000          18.750
                  -1774453.708 6  -1383961.625 6  20979732.672    20979734.789
        18.000          21.250
                  -4769525.866 5  -3732416.428 5  23190814.422    23190817.805
         8.750           9.500
                  -1817109.347 5  -1415927.264 6  23124978.430    23124980.742
        11.250          12.500
                   1177403.929 6    917456.434 6  20923639.258    20923641.145
        18.750          22.500
                  -5291064.942 6  -4122905.409 6  22450767.820    22450770.816
        12.000          12.750
 95  4 21 15 46  0.0000000  0  6G18G19G27G28G29G31
                  -1741029.086 7  -1356645.571 6  20116834.148    20116835.996
        23.000          18.750
                  -1794308.731 6  -1399433.074 6  20975954.445    20975956.660
        18.000          21.250
                  -4809365.462 5  -3763460.253 5  23183233.133    23183236.676
         8.750           9.750
                  -1823821.896 5  -1421157.825 6  23123701.055    23123703.355
        11.250          12.500
                   1194543.652 6    930812.055 6  20926900.859    20926902.758
        18.750          22.500
                  -5330179.551 6  -4153384.303 6  22443324.422    22443327.305
        12.250          12.750
 95  4 21 15 46 15.0000000  0  6G18G19G27G28G29G31
                  -1747800.192 7  -1361921.759 6  20115545.516    20115547.375
        23.000          18.750
                  -1814110.263 6  -1414862.833 6  20972186.289    20972188.512
        18.000          21.250
                  -4849165.691 5  -3794473.402 5  23175659.445    23175663.141
         9.000          10.250
                  -1830387.262 5  -1426273.696 6  23122451.813    23122453.902
        11.250          12.250
                   1211803.355 6    944261.169 6  20930185.305    20930187.223
        18.750          22.500
                  -5369199.737 6  -4183789.617 6  22435899.031    22435902.066
        12.250          12.750
 95  4 21 15 46 30.0000000  0  6G18G19G27G28G29G31
                  -1754443.303 7  -1367098.212 6  20114281.359    20114283.180
        23.250          18.750
                  -1833853.252 6  -1430246.982 6  20968429.469    20968431.672
        18.250          21.500
                  -4888926.977 5  -3825456.207 5  23168093.172    23168096.996
         9.250          10.750
                  -1836803.756 5  -1431273.563 6  23121230.664    23121232.801
        11.000          12.250
                   1229185.116 6    957805.391 6  20933492.883    20933494.895
        18.750          22.500
                  -5408119.165 6  -4214116.421 6  22428492.773    22428495.727
        12.250          12.750
 95  4 21 15 46 45.0000000  0  6G18G19G27G28G29G31
                  -1760955.221 7  -1372172.435 6  20113042.070    20113043.891
        23.000          18.750
                  -1853534.993 6  -1445583.399 6  20964684.109    20964686.363
        18.000          21.500
                  -4928650.230 5  -3856409.381 5  23160534.242    23160538.168
         9.500          11.250
                  -1843069.417 5  -1436155.900 6  23120038.422    23120040.793
        11.000          12.250
                   1246690.031 6    971445.573 6  20936824.023    20936825.891
        19.000          22.500
                  -5446932.736 6  -4244360.732 6  22421106.672    22421109.992
        12.250          13.000
 95  4 21 15 47  0.0000000  0  6G18G19G27G28G29G31
                  -1767342.185 7  -1377149.293 6  20111826.648    20111828.535
        23.000          18.750
                  -1873161.319 6  -1460876.635 6  20960949.398    20960951.660
        18.000          21.500
                  -4968343.071 5  -3887338.852 5  23152980.977    23152984.953
         9.750          11.750
                  -1849188.431 5  -1440923.957 6  23118873.977    23118876.156
        11.250          12.500
                   1264310.579 6    985175.860 6  20940177.117    20940178.980
        19.000          22.250
                  -5485639.503 6  -4274521.821 6  22413741.406    22413744.375
        12.250          13.000
 95  4 21 15 47 15.0000000  0  6G18G19G27G28G29G31
                  -1773602.372 7  -1382027.364 6  20110635.500    20110637.363
        23.000          18.500
                  -1892729.560 6  -1476124.615 6  20957225.648    20957227.941
        18.000          21.750
                  -5008002.649 5  -3918242.410 6  23145434.031    23145438.215
        10.250          12.000
                  -1855157.268 5  -1445575.002 6  23117738.320    23117740.594
        11.000          12.500
                   1282050.723 6    998999.341 6  20943553.000    20943554.805
        19.000          22.250
                  -5524231.613 6  -4304593.571 6  22406397.313    22406400.324
        12.250          13.000
 95  4 21 15 47 30.0000000  0  6G18G19G27G28G29G31
                  -1779731.864 7  -1386803.595 6  20109469.180    20109471.109
        23.000          18.750
                  -1912240.206 6  -1491327.715 6  20953512.922    20953515.313
        18.000          21.750
                  -5047631.973 5  -3949122.393 6  23137892.984    23137896.746
        10.500          12.000
                  -1860976.325 5  -1450109.330 6  23116630.766    23116633.203
        11.000          12.500
                   1299909.831 6   1012915.521 6  20946951.602    20946953.223
        19.000          22.250
                  -5562709.672 6  -4334576.450 6  22399075.094    22399078.121
        12.250          13.000
 95  4 21 15 47 45.0000000  0  6G18G19G27G28G29G31
                  -1785729.181 7  -1391476.830 6  20108327.891    20108329.844
        23.000          18.750
                  -1931695.037 6  -1506487.320 6  20949810.570    20949813.008
        18.000          21.750
                  -5087234.803 5  -3979981.733 6  23130356.977    23130360.633
        10.500          12.250
                  -1866645.093 5  -1454526.555 6  23115552.172    23115554.434
        11.250          12.250
                   1317887.343 6   1026923.962 6  20950372.531    20950374.270
        19.000          22.250
                  -5601076.280 6  -4364472.480 6  22391774.023    22391777.340
        12.250          13.250
 95  4 21 15 48  0.0000000  0  6G18G19G27G28G29G31
                  -1791595.032 7  -1396047.624 6  20107211.727    20107213.637
        23.000          18.750
                  -1951097.013 6  -1521605.740 6  20946118.453    20946120.867
        18.000          21.750
                  -5126815.974 5  -4010824.192 6  23122824.789    23122828.445
        10.750          12.250
                  -1872165.325 5  -1458828.036 6  23114501.586    23114504.066
        11.000          12.250
                   1335983.074 6   1041024.523 6  20953816.008    20953817.867
        19.000          22.250
                  -5639333.053 6  -4394282.923 6  22384494.039    22384497.363
        12.000          13.500
 95  4 21 15 48 14.9990000  0  6G18G19G27G28G29G31
                  -1797325.132 7  -1400512.639 6  20106121.253    20106123.151
        23.000          18.500
                  -1970443.750 6  -1536681.116 6  20942437.042    20942439.237
        18.000          22.000
                  -5166371.882 5  -4041646.965 6  23115297.784    23115301.632
        10.750          12.500
                  -1877536.294 5  -1463013.205 6  23113479.511    23113481.718
        11.000          12.000
                   1354198.607 6   1055218.436 6  20957282.347    20957284.222
        19.000          22.500
                  -5677475.317 6  -4424004.141 6  22377235.909    22377239.054
        12.250          13.500
 95  4 21 15 48 29.9990000  0  6G18G19G27G28G29G31
                  -1802911.121 7  -1404865.357 6  20105058.378    20105060.206
        22.750          18.500
                  -1989735.948 6  -1551713.994 6  20938765.862    20938768.261
        18.250          22.000
                  -5205902.712 5  -4072450.192 6  23107775.058    23107778.882
        10.750          12.250
                  -1882754.715 5  -1467079.506 5  23112486.558    23112488.784
        11.250          11.750
                   1372541.100 6   1069511.277 6  20960772.605    20960774.546
        19.000          22.250
                  -5715502.152 6  -4453635.409 6  22369999.558    22370002.745
        12.250          13.250
 95  4 21 15 48 44.9990000  0  6G18G19G27G28G29G31
                  -1808350.087 7  -1409103.513 6  20104023.315    20104025.261
        22.750          18.500
                  -2008973.191 6  -1566704.049 6  20935105.190    20935107.565
        18.250          22.250
                  -5245403.168 5  -4103229.756 6  23100258.417    23100261.835
        10.500          12.000
                  -1887819.588 5  -1471026.158 6  23111522.964    23111524.894
        11.500          12.000
                   1391009.343 6   1083902.111 6  20964287.214    20964289.019
        19.000          22.250
                  -5753412.854 6  -4483176.188 6  22362785.425    22362788.491
        12.500          13.500
 95  4 21 15 48 59.9990000  0  6G18G19G27G28G29G31
                  -1813646.786 7  -1413230.811 6  20103015.261    20103017.222
        22.500          18.500
                  -2028159.878 6  -1581654.715 6  20931454.339    20931456.534
        18.250          22.000
                  -5284873.375 5  -4133985.746 5  23092747.480    23092751.026
        10.250          11.500
                  -1892732.893 5  -1474854.707 6  23110587.995    23110589.917
        11.500          12.000
                   1409601.810 6   1098389.736 6  20967825.237    20967827.108
        19.000          22.250
                  -5791209.747 6  -4512628.296 6  22355593.151    22355595.972
        12.750          13.500
 95  4 21 15 49 14.9990000  0  6G18G19G27G28G29G31
                  -1818800.693 7  -1417246.845 6  20102034.597    20102036.616
        22.750          18.500
                  -2047293.838 6  -1596564.287 6  20927813.151    20927815.370
        18.250          22.000
                  -5324309.546 5  -4164715.221 5  23085243.011    23085246.249
        10.250          11.250
                  -1897491.761 5  -1478562.912 6  23109682.519    23109684.542
        11.500          12.000
                   1428323.810 6   1112978.300 6  20971387.940    20971389.784
        19.000          22.250
                  -5828889.405 6  -4541989.044 6  22348423.159    22348426.026
        12.750          13.500
 95  4 21 15 49 29.9990000  0  6G18G19G27G28G29G31
                  -1823814.161 7  -1421153.442 6  20101080.597    20101082.417
        22.750          18.500
                  -2066374.870 6  -1611432.622 6  20924181.987    20924184.292
        18.250          22.250
                  -5363712.468 5  -4195418.778 5  23077744.675    23077747.847
        10.000          10.750
                  -1902098.576 5  -1482152.643 6  23108805.542    23108807.804
        11.250          12.000
                   1447174.420 6   1127667.076 6  20974975.042    20974976.804
        19.000          22.000
                  -5866453.217 6  -4571259.516 6  22341275.128    22341277.827
        12.750          13.500
 95  4 21 15 49 44.9990000  0  6G18G19G27G28G29G31
                  -1828689.769 7  -1424952.620 6  20100152.776    20100154.679
        22.750          18.500
                  -2085399.781 6  -1626257.227 6  20920561.823    20920564.116
        18.250          22.000
                  -5403082.074 5  -4226096.379 5  23070252.964    23070255.862
         9.750          10.250
                  -1906554.887 5  -1485625.096 6  23107957.761    23107959.851
        11.250          12.000
                   1466150.206 6   1142453.396 6  20978586.058    20978587.702
        19.000          22.000
                  -5903903.200 6  -4600441.300 6  22334148.495    22334151.253
        12.750          13.500
 95  4 21 15 49 59.9990000  0  6G18G19G27G28G29G31
                  -1833427.280 7  -1428644.184 6  20099251.269    20099253.085
        23.000          18.500
                  -2104364.064 6  -1641034.588 6  20916952.972    20916955.284
        18.500          22.250
                  -5442414.181 5  -4256744.757 5  23062768.120    23062770.940
         9.500          10.000
                  -1910858.302 5  -1488978.401 6  23107138.980    23107140.976
        11.500          12.000
                   1485253.905 6   1157339.388 6  20982221.230    20982223.050
        19.000          22.000
                  -5941232.195 6  -4629528.801 6  22327044.956    22327047.921
        12.750          13.500
 95  4 21 15 50 14.9990000  0  6G18G19G27G28G29G31
                  -1838026.943 7  -1432228.340 6  20098375.987    20098377.843
        23.000          18.500
                  -2123267.377 6  -1655764.438 6  20913355.823    20913358.093
        18.250          22.250
                  -5481708.786 5  -4287363.913 5  23055290.644    23055293.476
         9.750           9.750
                  -1915010.036 5  -1492213.522 6  23106349.003    23106350.909
        11.500          12.000
                   1504484.823 6   1172324.510 6  20985880.972    20985882.616
        19.000          21.750
                  -5978437.159 6  -4658519.657 6  22319964.605    22319967.608
        12.750          13.500
 95  4 21 15 50 29.9990000  0  6G18G19G27G28G29G31
                  -1842486.051 7  -1435702.966 6  20097527.589    20097529.413
        22.750          18.500
                  -2142105.427 6  -1670443.433 6  20909771.042    20909773.437
        18.500          22.250
                  -5520961.627 5  -4317950.529 5  23047821.237    23047823.733
         9.750           9.500
                  -1919007.051 5  -1495328.080 6  23105588.097    23105590.526
        11.500          12.000
                   1523845.603 6   1187410.825 6  20989565.339    20989566.937
        19.250          22.000
                  -6015515.647 6  -4687411.962 6  22312908.800    22312911.929
        12.750          13.500
 95  4 21 15 50 44.9990000  0  6G18G19G27G28G29G31
                  -1846808.144 7  -1439070.832 6  20096705.019    20096706.917
        22.750          18.500
                  -2160879.625 6  -1685072.675 6  20906198.589    20906200.812
        18.500          22.250
                  -5560175.933 5  -4348507.118 5  23040359.019    23040361.050
        10.000           9.000
                  -1922851.113 5  -1498323.459 5  23104856.487    23104858.839
        11.250          11.750
                   1543331.728 6   1202594.810 6  20993273.503    20993275.097
        19.000          22.000
                  -6052470.954 6  -4716208.278 6  22305876.550    22305879.390
        12.750          13.500
 95  4 21 15 50 59.9990000  0  6G18G19G27G28G29G31
                  -1850996.467 7  -1442334.462 6  20095908.026    20095909.925
        23.000          18.500
                  -2179589.508 6  -1699651.802 6  20902638.128    20902640.401
        18.500          22.250
                  -5599354.078 5  -4379035.531 5  23032903.815    23032905.632
        10.250           9.000
                  -1926543.766 5  -1501200.848 5  23104153.847    23104155.710
        11.000          11.500
                   1562940.064 6   1217874.024 6  20997004.737    20997006.296
        19.000          22.000
                  -6089304.855 6  -4744910.001 6  22298867.323    22298870.054
        12.750          13.500
 95  4 21 15 51 14.9990000  0  6G18G19G27G28G29G31
                  -1855045.860 7  -1445489.838 6  20095137.558    20095139.339
        23.000          18.500
                  -2198233.024 6  -1714179.214 6  20899090.230    20899092.612
        18.500          22.500
                  -5638497.105 5  -4409536.570 5  23025454.886    23025456.983
        10.250           9.000
                  -1930082.041 5  -1503957.941 5  23103480.690    23103482.690
        11.250          11.500
                   1582671.657 6   1233249.286 6  21000759.526    21000761.167
        18.750          21.750
                  -6126012.310 6  -4773513.186 6  22291882.355    22291885.147
        13.000          13.750
 95  4 21 15 51 29.9990000  0  6G18G19G27G28G29G31
                  -1858956.784 7  -1448537.315 6  20094393.245    20094395.085
        22.750          18.250
                  -2216811.361 6  -1728655.837 6  20895554.940    20895557.315
        18.750          22.500
                  -5677608.007 5  -4440012.583 5  23018012.636    23018014.487
        10.500           9.000
                  -1933469.592 5  -1506597.590 5  23102835.823    23102838.179
        11.250          11.750
                   1602521.908 6   1248717.008 6  21004536.917    21004538.468
        18.750          21.750
                  -6162597.932 6  -4802021.438 6  22284920.011    22284922.866
        13.000          14.000
 95  4 21 15 51 44.9990000  0  6G18G19G27G28G29G31
                  -1862725.548 7  -1451474.016 6  20093676.026    20093677.870
        22.750          18.250
                  -2235322.188 6  -1743079.854 6  20892032.534    20892034.847
        18.750          22.500
                  -5716684.349 5  -4470461.675 5  23010576.675    23010578.608
        10.750           9.250
                  -1936704.180 5  -1509118.051 5  23102220.456    23102222.546
        11.250          11.750
                   1622490.264 6   1264276.760 6  21008336.714    21008338.319
        18.750          21.750
                  -6199062.301 6  -4830435.213 6  22277981.183    22277984.183
        13.000          14.000
 95  4 21 15 51 59.9990000  0  6G18G19G27G28G29G31
                  -1866351.272 7  -1454299.258 6  20092985.925    20092987.851
        22.750          18.500
                  -2253772.080 6  -1757456.392 6  20888521.808    20888524.062
        18.750          22.500
                  -5755727.913 5  -4500885.218 5  23003146.690    23003148.921
        10.750           9.500
                  -1939785.926 5  -1511519.414 5  23101633.862    23101636.261
        11.000          11.750
                   1642576.798 6   1279928.597 6  21012158.886    21012160.565
        18.500          21.750
                  -6235406.847 6  -4858755.614 6  22271064.956    22271068.093
        13.000          14.000
 95  4 21 15 52 14.9990000  0  6G18G19G27G28G29G31
                  -1869833.908 7  -1457013.003 6  20092323.300    20092325.175
        22.500          18.500
                  -2272167.945 6  -1771790.826 6  20885021.136    20885023.366
        19.000          22.500
                  -5794741.953 5  -4531285.755 5  22995722.644    22995724.651
        10.750           9.500
                  -1942716.026 5  -1513802.616 5  23101076.323    23101078.612
        11.000          11.750
                   1662780.385 6   1295671.647 6  21016003.597    21016005.425
        18.500          21.750
                  -6271633.166 6  -4886983.892 6  22264171.417    22264174.437
        13.250          14.250
 95  4 21 15 52 29.9990000  0  6G18G19G27G28G29G31
                  -1873173.136 7  -1459615.003 6  20091687.808    20091689.741
        22.500          18.500
                  -2290507.180 6  -1786081.137 6  20881531.339    20881533.542
        19.000          22.500
                  -5833724.960 5  -4561662.107 5  22988304.190    22988306.616
        10.750           9.750
                  -1945492.947 5  -1515966.450 5  23100547.909    23100550.241
        11.000          11.500
                   1683102.128 6   1311506.763 6  21019870.753    21019872.667
        18.500          21.750
                  -6307742.257 6  -4915120.827 6  22257300.198    22257302.917
        13.250          14.000
 95  4 21 15 52 44.9990000  0  6G18G19G27G28G29G31
                  -1876368.419 7  -1462104.841 6  20091079.800    20091081.878
        22.500          18.500
                  -2308789.520 6  -1800327.113 6  20878052.292    20878054.503
        19.000          22.500
                  -5872675.232 5  -4592012.959 5  22980892.237    22980894.792
        10.750          10.250
                  -1948115.497 5  -1518010.004 5  23100048.706    23100050.933
        11.000          11.500
                   1703542.783 6   1327434.539 6  21023760.394    21023762.265
        18.500          21.750
                  -6343737.111 6  -4943168.746 6  22250450.409    22250453.233
        13.000          14.000
 95  4 21 15 52 59.9990000  0  6G18G19G27G28G29G31
                  -1879419.730 7  -1464482.490 6  20090499.276    20090501.308
        22.500          18.500
                  -2327016.494 6  -1814529.947 6  20874583.753    20874586.022
        19.000          22.500
                  -5911591.618 5  -4622337.400 5  22973486.690    22973489.538
        10.750          10.500
                  -1950583.817 5  -1519933.374 5  23099579.355    23099581.144
        11.250          11.250
                   1724101.933 6   1343454.648 6  21027672.792    21027674.589
        18.500          21.750
                  -6379617.419 6  -4971127.401 6  22243622.511    22243625.296
        13.000          14.000
 95  4 21 15 53 14.9990000  0  6G18G19G27G28G29G31
                  -1882327.606 7  -1466748.373 6  20089945.847    20089947.917
        22.500          18.500
                  -2345190.096 6  -1828691.189 6  20871125.425    20871127.585
        19.000          22.500
                  -5950475.597 5  -4652636.589 5  22966087.292    22966090.198
        10.500          11.000
                  -1952899.002 5  -1521737.420 5  23099138.925    23099140.792
        11.250          11.250
                   1744779.716 6   1359567.200 6  21031607.714    21031609.456
        18.500          21.750
                  -6415384.865 6  -4998998.118 6  22236816.261    22236818.815
        13.000          14.000
 95  4 21 15 53 29.9990000  0  6G18G19G27G28G29G31
                  -1885093.397 7  -1468903.536 6  20089419.472    20089421.534
        22.500          18.500
                  -2363310.735 6  -1842811.166 6  20867677.331    20867679.319
        19.250          22.500
                  -5989325.523 5  -4682909.237 5  22958694.081    22958697.515
        10.250          11.250
                  -1955061.984 5  -1523422.863 5  23098727.097    23098729.112
        11.250          11.000
                   1765578.236 6   1375773.832 6  21035565.542    21035567.370
        18.500          21.500
                  -6451041.758 6  -5026782.689 6  22230030.956    22230033.581
        13.250          14.000
 95  4 21 15 53 44.9990000  0  6G18G19G27G28G29G31
                  -1887721.847 7  -1470951.682 6  20088919.409    20088921.425
        22.500          18.500
                  -2381378.831 6  -1856890.196 6  20864239.144    20864241.058
        19.500          22.500
                  -6028142.595 5  -4713156.290 5  22951307.511    22951311.007
        10.250          11.500
                  -1957073.927 5  -1524990.611 5  23098344.237    23098346.249
        11.250          11.000
                   1786498.176 6   1392075.080 6  21039546.589    21039548.296
        18.500          21.750
                  -6486591.058 6  -5054483.424 6  22223266.292    22223269.069
        13.500          14.250
 95  4 21 15 53 59.9990000  0  6G18G19G27G28G29G31
                  -1890211.200 7  -1472891.440 6  20088445.628    20088447.679
        22.500          18.500
                  -2399393.080 6  -1870927.271 6  20860811.073    20860813.073
        19.500          22.500
                  -6066926.039 5  -4743377.142 5  22943927.315    22943930.886
        10.250          11.750
                  -1958930.925 5  -1526437.629 5  23097991.058    23097993.206
        11.250          11.500
                   1807541.056 6   1408472.118 6  21043550.847    21043552.511
        18.750          21.500
                  -6522027.934 6  -5082096.559 6  22216522.839    22216525.671
        13.500          14.250
 95  4 21 15 54 14.9990000  0  6G18G19G27G28G29G31
                  -1892562.489 7  -1474723.622 6  20087998.105    20088000.108
        22.500          18.750
                  -2417351.413 6  -1884920.773 6  20857393.800    20857395.804
        19.500          22.500
                  -6105678.855 5  -4773574.124 5  22936552.792    22936556.425
        10.250          11.750
                  -1960634.231 5  -1527764.875 6  23097666.878    23097669.124
        11.500          12.000
                   1828705.803 6   1424964.120 6  21047578.417    21047580.022
        18.750          21.750
                  -6557352.280 6  -5109622.008 6  22209800.862    22209803.733
        13.500          14.500
 95  4 21 15 54 29.9990000  0  6G18G19G27G28G29G31
                  -1894777.749 7  -1476449.800 6  20087576.675    20087578.800
        22.500          18.500
                  -2435249.082 6  -1898867.007 6  20853987.980    20853989.987
        19.500          22.500
                  -6144404.044 5  -4803749.588 5  22929183.776    22929187.187
        10.250          11.750
                  -1962185.446 5  -1528973.618 6  23097371.636    23097373.921
        11.500          12.000
                   1849990.443 6   1441549.543 6  21051628.839    21051630.468
        18.750          21.750
                  -6592565.300 6  -5137060.704 6  22203100.065    22203102.874
        13.500          14.250
 95  4 21 15 54 44.9990000  0  6G18G19G27G28G29G31
                  -1896856.500 7  -1478069.612 6  20087181.151    20087183.241
        22.500          18.500
                  -2453082.718 6  -1912763.343 6  20850594.230    20850596.214
        19.500          22.500
                  -6183101.292 5  -4833903.273 6  22921819.823    22921823.534
        10.250          12.000
                  -1963584.200 5  -1530063.560 6  23097105.589    23097107.897
        11.500          12.000
                   1871396.153 6   1458229.308 6  21055702.237    21055703.937
        18.750          21.750
                  -6627667.709 6  -5164413.210 6  22196420.151    22196423.077
        13.500          14.250
 95  4 21 15 54 59.9990000  0  6G18G19G27G28G29G31
                  -1898796.610 7  -1479581.389 6  20086811.972    20086813.921
        22.500          18.750
                  -2470857.102 6  -1926613.511 6  20847211.917    20847214.089
        19.500          22.500
                  -6221771.836 5  -4864036.148 5  22914461.331    22914464.671
        10.750          11.750
                  -1964831.268 5  -1531035.312 6  23096868.292    23096870.495
        11.500          12.000
                   1892921.066 6   1475001.955 6  21059798.214    21059800.026
        18.500          21.750
                  -6662656.507 6  -5191677.196 6  22189761.894    22189764.733
        13.250          14.000
 95  4 21 15 55 14.9990000  0  6G18G19G27G28G29G31
                  -1900597.665 7  -1480984.814 6  20086469.331    20086471.335
        22.500          18.500
                  -2488568.686 6  -1940414.740 6  20843841.401    20843843.538
        19.250          22.500
                  -6260416.839 5  -4894149.130 5  22907107.315    22907110.558
        10.750          11.750
                  -1965925.798 5  -1531888.181 5  23096659.972    23096662.163
        11.500          11.500
                   1914565.381 6   1491867.646 6  21063917.003    21063918.874
        18.750          21.750
                  -6697526.617 6  -5218848.696 6  22183126.159    22183129.077
        13.250          13.750
 95  4 21 15 55 29.9990000  0  6G18G19G27G28G29G31
                  -1902255.235 7  -1482276.432 6  20086153.855    20086155.780
        22.500          18.500
                  -2506213.629 6  -1954164.041 6  20840483.776    20840486.038
        19.250          22.750
                  -6299033.246 5  -4924239.825 5  22899758.886    22899762.226
        10.750          11.750
                  -1966865.042 5  -1532620.064 5  23096481.097    23096483.202
        11.500          11.500
                   1936332.963 6   1508829.389 6  21068059.198    21068060.944
        18.750          21.750
                  -6732274.531 6  -5245924.978 6  22176514.089    22176516.730
        13.250          13.750
 95  4 21 15 55 44.9990000  0  6G18G19G27G28G29G31
                  -1903772.499 7  -1483458.722 6  20085865.206    20085867.159
        22.500          18.500
                  -2523791.880 6  -1967861.375 6  20837138.667    20837140.855
        19.500          22.750
                  -6337620.905 5  -4954308.123 5  22892415.987    22892419.261
        11.000          11.750
                  -1967649.121 5  -1533231.031 5  23096332.058    23096334.112
        11.500          11.500
                   1958223.379 6   1525886.846 6  21072225.089    21072226.612
        18.750          21.750
                  -6766899.356 6  -5272905.347 6  22169924.948    22169927.612
        13.000          13.750
 95  4 21 15 55 59.9990000  0  6G18G19G27G28G29G31
                  -1905152.477 7  -1484534.034 6  20085602.456    20085604.390
        22.500          18.500
                  -2541307.799 6  -1981510.140 6  20833805.573    20833807.601
        19.250          22.750
                  -6376186.363 5  -4984359.123 5  22885077.480    22885080.300
        11.250          11.500
                  -1968281.927 5  -1533724.128 5  23096211.495    23096213.601
        11.250          11.500
                   1980229.676 6   1543034.597 6  21076412.792    21076414.355
        19.000          21.750
                  -6801402.027 6  -5299790.528 6  22163359.347    22163362.062
        13.000          13.750
 95  4 21 15 56 14.9990000  0  6G18G19G27G28G29G31
                  -1906393.067 7  -1485500.732 6  20085366.440    20085368.362
        22.500          18.500
                  -2558759.949 6  -1995109.213 6  20830484.534    20830486.562
        19.500          22.500
                  -6414725.021 5  -5014389.237 5  22877743.690    22877746.718
        11.500          11.750
                  -1968762.512 5  -1534098.616 5  23096119.933    23096122.417
        11.000          11.750
                   2002354.476 6   1560274.690 6  21080622.808    21080624.397
        19.000          21.750
                  -6835778.020 6  -5326577.004 6  22156817.831    22156820.577
        13.250          14.000
 95  4 21 15 56 29.9990000  0  6G18G19G27G28G29G31
                  -1907490.268 7  -1486355.699 6  20085157.534    20085159.483
        22.250          18.500
                  -2576143.957 6  -2008655.191 6  20827176.464    20827178.558
        19.250          22.750
                  -6453231.964 5  -5044394.638 5  22870416.206    22870419.151
        11.250          11.750
                  -1969087.994 5  -1534352.247 5  23096057.612    23096060.405
        10.500          11.500
                   2024605.736 6   1577613.328 6  21084857.151    21084858.800
        18.750          21.750
                  -6870023.817 6  -5353262.031 6  22150301.315    22150303.835
        13.750          14.000
 95  4 21 15 56 44.9990000  0  6G18G19G27G28G29G31
                  -1908446.070 7  -1487100.486 6  20084975.776    20084977.718
        22.250          18.500
                  -2593465.018 6  -2022152.117 6  20823880.261    20823882.495
        19.250          22.750
                  -6491704.756 5  -5074373.427 5  22863094.480    22863097.804
        11.250          11.750
                  -1969260.006 5  -1534486.291 5  23096025.144    23096027.530
        10.750          11.750
                   2046984.065 6   1595050.973 6  21089115.628    21089117.206
        19.000          21.750
                  -6904141.567 6  -5379847.281 6  22143808.972    22143811.499
        13.750          14.250
 95  4 21 15 56 59.9990000  0  6G18G19G27G28G29G31
                  -1909257.697 7  -1487732.931 6  20084821.331    20084823.394
        22.250          18.500
                  -2610723.560 6  -2035600.332 6  20820596.167    20820598.577
        19.250          22.750
                  -6530137.676 5  -5104321.148 5  22855781.269    22855783.972
        11.250          11.500
                  -1969275.732 5  -1534498.549 5  23096022.206    23096024.796
        10.500          11.750
                   2069491.123 6   1612588.929 6  21093398.519    21093400.272
        19.000          21.750
                  -6938128.775 6  -5406330.813 6  22137341.448    22137344.112
        13.750          14.500
 95  4 21 15 57 14.9990000  0  6G18G19G27G28G29G31
                  -1909928.223 7  -1488255.425 6  20084693.714    20084695.753
        22.250          18.500
                  -2627919.532 6  -2048999.783 6  20817323.792    20817326.105
        19.250          23.000
                  -6568532.311 5  -5134239.030 5  22848474.909    22848477.894
        11.250          11.750
                  -1969136.101 5  -1534389.751 6  23096048.753    23096051.628
        10.500          12.250
                   2092125.832 6   1630226.352 6  21097705.690    21097707.444
        18.750          21.750
                  -6971987.180 6  -5432713.971 6  22130898.237    22130901.210
        13.750          14.750
 95  4 21 15 57 29.9990000  0  6G18G19G27G28G29G31
                  -1910461.692 7  -1488671.125 6  20084592.237    20084594.245
        22.250          18.500
                  -2645052.851 6  -2062350.418 6  20814063.456    20814065.804
        19.250          23.000
                  -6606888.371 5  -5164126.853 5  22841176.019    22841178.921
        11.000          11.750
                  -1968842.612 5  -1534161.070 6  23096104.597    23096107.511
        10.750          12.250
                   2114890.784 6   1647965.262 6  21102037.722    21102039.530
        18.750          21.750
                  -7005721.657 6  -5459000.567 6  22124478.769    22124481.800
        13.750          14.750
 95  4 21 15 57 44.9990000  0  6G18G19G27G28G29G31
                  -1910860.781 7  -1488982.109 6  20084516.284    20084518.421
        22.500          18.750
                  -2662127.530 6  -2075655.356 6  20810814.401    20810816.612
        19.250          23.000
                  -6645206.512 5  -5193985.135 5  22833884.073    22833887.058
        10.750          11.750
                  -1968396.157 5  -1533813.189 6  23096189.565    23096192.116
        10.750          12.000
                   2137786.092 6   1665805.745 6  21106394.651    21106396.315
        18.750          21.750
                  -7039334.028 6  -5485192.017 6  22118082.519    22118085.538
        13.750          14.750
 95  4 21 15 57 59.9990000  0  6G18G19G27G28G29G31
                  -1911125.186 7  -1489188.142 6  20084466.050    20084468.050
        22.250          18.750
                  -2679146.627 6  -2088916.984 6  20807575.737    20807577.808
        19.250          22.750
                  -6683489.635 5  -5223816.121 5  22826599.253    22826602.015
        11.000          11.750
                  -1967797.956 5  -1533347.065 6  23096303.347    23096305.944
        10.750          12.000
                   2160810.555 6   1683746.871 6  21110776.136    21110777.796
        18.750          21.750
                  -7072822.231 6  -5511286.710 6  22111709.909    22111712.870
        13.500          14.500
 95  4 21 15 58 14.9990000  0  6G18G19G27G28G29G31
                  -1911253.677 7  -1489288.272 6  20084441.565    20084443.698
        22.250          18.750
                  -2696110.605 6  -2102135.666 6  20804347.651    20804349.901
        19.250          23.000
                  -6721734.688 5  -5253617.444 5  22819321.253    22819324.128
        11.000          11.750
                  -1967047.998 5  -1532762.685 6  23096446.370    23096448.741
        11.000          12.000
                   2183963.277 6   1701787.938 6  21115181.769    21115183.573
        18.750          22.000
                  -7106185.218 6  -5537283.835 6  22105361.159    22105363.940
        13.750          14.250
 95  4 21 15 58 29.9990000  0  6G18G19G27G28G29G31
                  -1911243.241 7  -1489280.146 6  20084443.565    20084445.647
        22.250          18.750
                  -2713017.072 6  -2115309.530 6  20801130.269    20801132.554
        19.250          23.000
                  -6759938.020 5  -5283386.258 5  22812051.675    22812054.448
        11.000          11.750
                  -1966143.494 5  -1532057.887 5  23096618.440    23096620.765
        11.000          11.750
                   2207246.485 6   1719930.677 6  21119612.542    21119614.440
        18.500          21.750
                  -7139423.077 6  -5563183.463 6  22099036.300    22099038.855
        14.000          14.250
 95  4 21 15 58 44.9990000  0  6G18G19G27G28G29G31
                  -1911093.943 7  -1489163.811 6  20084472.065    20084474.187
        22.500          19.000
                  -2729868.451 6  -2128440.475 6  20797923.503    20797925.874
        19.250          23.000
                  -6798100.152 5  -5313122.974 5  22804789.542    22804792.464
        11.000          11.750
                  -1965084.988 5  -1531233.088 5  23096819.823    23096822.425
        11.250          11.750
                   2230656.058 6   1738171.891 6  21124067.284    21124069.085
        18.500          22.000
                  -7172539.406 6  -5588988.394 6  22092734.433    22092736.780
        14.000          14.000
 95  4 21 15 58 59.9990000  0  7G 2G18G19G27G28G29G31
                         2.01715                                  22092739.722
         8.000
                  -1910806.664 7  -1488939.962 6  20084526.761    20084528.874
        22.500          19.000
                  -2746665.127 6  -2141528.789 6  20794727.245    20794729.503
        19.250          23.000
                  -6836221.685 5  -5342828.045 5  22797535.300    22797538.124
        11.000          11.750
                  -1963872.184 5  -1530288.054 5  23097050.737    23097053.073
        11.250          11.500
                   2254186.934 6   1756507.626 6  21128544.987    21128546.925
        18.500          22.000
                  -7205531.999 6  -5614696.897 6  22086456.261    22086458.374
        14.000          14.250
 95  4 21 15 59 14.9990000  0  7G 2G18G19G27G28G29G31
                    -46144.376 3    -38526.908 5  24250579.237    24250584.655
         6.000           8.250
                  -1910380.157 7  -1488607.625 6  20084607.769    20084609.921
        22.500          19.000
                  -2763401.779 6  -2154570.332 6  20791542.370    20791544.644
        19.250          22.750
                  -6874301.463 5  -5372500.583 5  22790288.894    22790291.745
        11.250          11.500
                  -1962501.475 5  -1529219.980 5  23097311.776    23097313.901
        11.500          11.500
                   2277841.190 6   1774939.501 6  21133046.362    21133048.194
        18.500          22.000
                  -7238396.130 6  -5640305.305 6  22080202.300    22080204.565
        14.000          14.250
 95  4 21 15 59 29.9990000  0  7G 2G18G19G27G28G29G31
                    -95525.624 3    -77005.786 5  24241182.222    24241187.569
         5.750           8.250
                  -1909815.631 7  -1488167.741 6  20084715.269    20084717.374
        22.500          19.000
                  -2780080.444 6  -2167566.689 6  20788368.519    20788370.753
        19.250          22.750
                  -6912341.102 5  -5402141.846 5  22783050.050    22783052.616
        11.000          11.250
                  -1960974.987 5  -1528030.514 5  23097602.198    23097604.304
        11.500          11.500
                   2301618.775 6   1793467.475 6  21137570.792    21137572.780
        18.250          21.750
                  -7271132.578 6  -5665814.219 6  22073972.784    22073975.062
        14.000          14.250
 95  4 21 15 59 44.9990000  0  7G 2G18G19G27G28G29G31
                   -144843.837 3   -115435.542 5  24231797.284    24231802.558
         5.750           8.000
                  -1909111.598 7  -1487619.151 6  20084849.253    20084851.222
        22.250          19.000
                  -2796703.532 6  -2180519.742 6  20785205.222    20785207.499
        19.250          22.750
                  -6950340.639 5  -5431751.868 5  22775819.284    22775821.839
        11.250          11.250
                  -1959294.371 5  -1526720.955 5  23097921.925    23097924.183
        11.500          11.500
                   2325516.984 6   1812089.443 6  21142118.597    21142120.558
        18.000          21.750
                  -7303737.326 6  -5691220.510 6  22067768.089    22067770.487
        13.750          14.500
 95  4 21 15 59 59.9990000  0  7G 2G18G19G27G28G29G31
                   -194100.853 3   -153817.618 5  24222424.034    24222429.245
         5.750           8.000
                  -1908267.539 7  -1486961.452 6  20085009.894    20085011.858
        22.250          19.000
                  -2813272.433 6  -2193430.570 6  20782052.370    20782054.655
        19.250          22.750
                  -6988304.428 5  -5461334.028 5  22768594.980    22768597.831
        11.250          11.500
                  -1957461.898 5  -1525293.055 5  23098270.862    23098273.022
        11.750          11.500
                   2349527.331 6   1830798.788 6  21146687.722    21146689.636
        18.000          21.750
                  -7336211.534 6  -5716525.083 6  22061588.800    22061591.292
        14.250          14.750
 95  4 21 16  0 14.9990000  0  7G 2G18G19G27G28G29G31
                   -243296.638 3   -192151.979 5  24213062.214    24213067.620
         5.750           8.000
                  -1907282.577 7  -1486193.957 6  20085197.362    20085199.421
        22.250          18.750
                  -2829784.431 6  -2206297.058 6  20778910.331    20778912.546
        19.250          23.000
                  -7026227.935 5  -5490884.798 5  22761378.253    22761380.866
        11.250          11.500
                  -1955476.444 5  -1523745.960 5  23098648.409    23098650.851
        11.500          11.750
                   2373649.013 6   1849594.889 6  21151278.011    21151279.929
        18.000          21.750
                  -7368553.669 6  -5741726.738 6  22055434.550    22055437.085
        14.250          15.000
 95  4 21 16  0 29.9990000  0  7G 2G18G19G27G28G29G31
                   -292433.512 3   -230440.433 5  24203711.628    24203716.995
         5.750           7.750
                  -1906156.818 7  -1485316.748 6  20085411.464    20085413.565
        22.250          18.750
                  -2846237.982 6  -2219118.003 6  20775779.331    20775781.495
        19.250          23.000
                  -7064112.045 5  -5520404.867 5  22754169.183    22754171.769
        11.250          11.250
                  -1953336.888 5  -1522078.784 5  23099055.362    23099058.187
        11.250          11.750
                   2397882.670 6   1868478.243 6  21155889.315    21155891.288
        17.750          21.750
                  -7400767.605 6  -5766828.499 6  22049304.433    22049307.073
        14.250          15.250
 95  4 21 16  0 44.9990000  0  7G 2G18G19G27G28G29G31
                   -341513.966 3   -268684.929 5  24194371.995    24194377.448
         5.750           7.500
                  -1904890.734 7  -1484330.198 6  20085652.331    20085654.476
        22.000          18.750
                  -2862633.319 6  -2231893.584 6  20772659.487    20772661.624
        19.500          23.000
                  -7101962.417 5  -5549898.657 5  22746966.292    22746968.933
        11.250          11.500
                  -1951044.104 5  -1520292.211 5  23099491.933    23099494.440
        11.250          11.750
                   2422229.606 6   1887449.865 6  21160522.323    21160524.394
        17.500          21.500
                  -7432853.494 6  -5791830.484 6  22043198.690    22043201.300
        14.500          15.250
 95  4 21 16  0 59.9990000  0  7G 2G18G19G27G28G29G31
                   -390538.653 3   -306885.971 5  24185042.855    24185048.210
         6.000           7.250
                  -1903484.358 7  -1483234.327 6  20085920.034    20085922.140
        22.000          18.750
                  -2878969.254 6  -2244622.880 6  20769550.862    20769553.030
        19.500          23.000
                  -7139779.843 5  -5579366.770 5  22739769.987    22739772.616
        11.250          11.500
                  -1948599.059 5  -1518386.994 5  23099957.073    23099959.565
        11.250          11.500
                   2446689.734 6   1906509.691 6  21165176.909    21165178.995
        17.500          21.500
                  -7464809.082 6  -5816730.933 6  22037117.573    22037120.378
        14.250          15.250
 95  4 21 16  1 14.9990000  0  7G 2G18G19G27G28G29G31
                   -439503.143 4   -345040.122 5  24175725.401    24175730.495
         6.250           7.000
                  -1901933.822 7  -1482026.121 6  20086215.097    20086217.206
        22.000          18.750
                  -2895239.814 6  -2257301.234 6  20766454.565    20766456.690
        19.500          23.000
                  -7177562.756 5  -5608807.989 5  22732580.105    22732582.894
        11.250          11.750
                  -1945998.074 5  -1516360.260 5  23100451.980    23100454.401
        11.250          11.500
                   2471267.580 6   1925661.245 6  21169853.917    21169856.015
        17.500          21.500
                  -7496630.167 6  -5841526.574 6  22031062.105    22031064.948
        14.000          15.250
 95  4 21 16  1 29.9990000  0  7G 2G18G19G27G28G29G31
                   -488408.845 3   -383148.459 5  24166418.761    24166423.901
         6.000           7.000
                  -1900236.434 7  -1480703.486 6  20086538.175    20086540.261
        22.000          18.750
                  -2911447.603 6  -2269930.676 6  20763370.269    20763372.440
        19.500          23.000
                  -7215313.059 5  -5638223.792 5  22725396.378    22725399.366
        11.250          11.750
                  -1943243.412 5  -1514213.784 5  23100976.456    23100978.655
        11.500          11.500
                   2495963.018 6   1944904.431 6  21174553.245    21174555.397
        17.500          21.500
                  -7528320.416 6  -5866220.265 6  22025031.573    22025034.421
        14.000          15.500
 95  4 21 16  1 44.9990000  0  7G 2G18G19G27G28G29G31
                   -537257.757 4   -421212.532 5  24157123.081    24157128.315
         6.250           7.000
                  -1898390.839 7  -1479265.363 6  20086889.253    20086891.241
        22.250          18.750
                  -2927594.200 6  -2282512.436 6  20760297.651    20760299.870
        19.250          23.000
                  -7253032.476 5  -5667615.540 6  22718218.487    22718221.448
        11.250          12.000
                  -1940335.462 5  -1511947.858 5  23101529.769    23101532.046
        11.500          11.250
                   2520774.175 6   1964237.783 6  21179274.690    21179276.921
        17.250          21.500
                  -7559877.075 6  -5890809.861 6  22019026.362    22019029.468
        13.750          15.500
 95  4 21 16  1 59.9990000  0  7G 2G18G19G27G28G29G31
                   -586051.364 4   -459233.521 5  24147838.222    24147843.085
         6.500           7.000
                  -1896396.334 7  -1477711.208 6  20087268.886    20087270.874
        22.250          18.750
                  -2943677.895 6  -2295045.179 6  20757236.917    20757239.155
        19.500          22.750
                  -7290722.048 5  -5696984.022 6  22711046.433    22711049.452
        11.000          12.000
                  -1937272.947 5  -1509561.496 5  23102112.683    23102114.624
        11.750          11.250
                   2545700.221 6   1983660.659 6  21184018.011    21184020.261
        17.250          21.500
                  -7591301.303 6  -5915296.255 6  22013046.448    22013049.753
        13.750          15.500
 95  4 21 16  2 14.9990000  0  7G 2G18G19G27G28G29G31
                   -634789.993 4   -497211.657 5  24138563.292    24138568.437
         6.500           7.000
                  -1894253.894 7  -1476041.777 6  20087676.480    20087678.550
        22.000          18.750
                  -2959699.953 6  -2307529.895 6  20754188.136    20754190.331
        19.250          23.000
                  -7328381.359 5  -5726328.926 6  22703879.972    22703882.843
        11.250          12.000
                  -1934055.768 6  -1507054.610 5  23102725.011    23102726.839
        12.000          11.250
                   2570742.645 6   2003174.214 6  21188783.362    21188785.565
        17.250          21.250
                  -7622597.399 6  -5939682.811 6  22007091.081    22007094.257
        13.750          15.500
 95  4 21 16  2 29.9990000  0  7G 2G18G19G27G28G29G31
                   -683475.491 4   -535148.404 5  24129298.886    24129303.730
         6.500           7.000
                  -1891966.572 7  -1474259.450 6  20088111.870    20088113.905
        22.000          18.750
                  -2975661.424 6  -2319967.400 6  20751150.847    20751152.995
        19.500          23.000
                  -7366011.638 5  -5755651.211 6  22696719.159    22696722.179
        11.250          12.250
                  -1930685.783 5  -1504428.656 5  23103366.183    23103368.440
        11.750          11.250
                   2595903.476 6   2022780.040 6  21193571.370    21193573.644
        17.000          21.250
                  -7653768.498 6  -5963971.966 6  22001159.440    22001162.269
        14.000          15.250
 95  4 21 16  2 44.9990000  0  7G 2G18G19G27G28G29G31
                   -732102.138 4   -573039.281 5  24120045.370    24120050.694
         6.500           7.000
                  -1889529.733 7  -1472360.618 6  20088575.558    20088577.511
        22.000          18.750
                  -2991558.786 6  -2332354.954 6  20748125.761    20748127.905
        19.500          22.750
                  -7403612.382 5  -5784950.485 6  22689563.995    22689567.128
        11.250          12.250
                  -1927161.229 5  -1501682.254 5  23104036.730    23104039.003
        11.750          11.000
                   2621185.010 6   2042479.918 6  21198382.050    21198384.394
        17.000          21.250
                  -7684811.568 6  -5988161.359 6  21995252.073    21995254.980
        14.000          15.000
 95  4 21 16  2 59.9990000  0  7G 2G18G19G27G28G29G31
                   -780664.138 4   -610879.799 5  24110804.565    24110809.362
         6.750           7.000
                  -1886941.943 7  -1470344.157 6  20089068.112    20089070.046
        22.000          18.750
                  -3007390.667 6  -2344691.474 6  20745112.995    20745115.261
        19.500          23.000
                  -7441177.495 5  -5814221.986 6  22682415.675    22682418.917
        11.250          12.250
                  -1923481.091 5  -1498814.614 5  23104737.167    23104739.312
        11.500          11.000
                   2646587.072 6   2062273.714 6  21203215.925    21203218.308
        17.000          21.000
                  -7715722.493 6  -6012247.775 6  21989369.987    21989372.671
        14.000          15.000
 95  4 21 16  3 14.9990000  0  7G 2G18G19G27G28G29G31
                   -829163.539 4   -648671.532 5  24101575.401    24101580.241
         7.000           7.000
                  -1884207.106 7  -1468213.116 6  20089588.394    20089590.269
        22.250          18.750
                  -3023163.269 6  -2356981.811 6  20742111.440    20742113.749
        19.250          22.750
                  -7478707.301 5  -5843465.980 6  22675273.870    22675277.112
        11.250          12.500
                  -1919649.610 5  -1495829.055 5  23105465.972    23105468.171
        11.250          10.500
                   2672105.781 6   2082158.402 6  21208072.144    21208074.351
        17.000          21.000
                  -7746505.246 6  -6036234.325 6  21983512.128    21983514.487
        14.000          14.750
 95  4 21 16  3 29.9990000  0  7G 2G18G19G27G28G29G31
                   -877598.542 4   -686413.082 5  24092358.784    24092363.155
         7.000           7.000
                  -1881324.089 7  -1465966.612 6  20090137.019    20090139.030
        22.000          18.750
                  -3038876.968 6  -2369226.248 6  20739121.394    20739123.550
        19.250          22.750
                  -7516200.362 5  -5872681.338 6  22668139.409    22668142.366
        11.500          12.250
                  -1915666.096 5  -1492725.021 5  23106224.042    23106226.304
        11.250          10.750
                   2697743.439 6   2102135.777 6  21212950.909    21212953.085
        17.250          21.000
                  -7777157.992 6  -6060119.567 6  21977678.839    21977681.382
        13.750          14.750
 95  4 21 16  3 44.9990000  0  7G 2G18G19G27G28G29G31
                   -925967.626 4   -724103.272 5  24083154.667    24083158.480
         7.000           7.000
                  -1878294.492 7  -1463605.887 6  20090713.386    20090715.386
        22.000          18.750
                  -3054531.880 6  -2381424.877 6  20736142.222    20736144.394
        19.250          22.750
                  -7553654.271 5  -5901866.186 6  22661011.948    22661015.081
        11.500          12.250
                  -1911529.243 5  -1489501.510 5  23107011.245    23107013.698
        11.250          10.750
                   2723502.121 6   2122207.462 6  21217852.690    21217854.804
        17.250          20.750
                  -7807675.383 6  -6083899.334 6  21971871.667    21971874.155
        14.000          14.500
 95  4 21 16  3 59.9990000  0  7G 2G18G19G27G28G29G31
                   -974268.521 4   -761740.317 5  24073962.714    24073967.355
         6.750           7.250
                  -1875120.824 7  -1461132.897 6  20091317.581    20091319.605
        22.000          18.750
                  -3070124.851 6  -2393575.240 6  20733174.940    20733177.194
        19.250          22.750
                  -7591067.783 5  -5931019.556 6  22653892.362    22653895.702
        11.500          12.500
                  -1907237.475 5  -1486157.275 5  23107828.159    23107830.214
        11.500          10.500
                   2749385.426 6   2142376.256 6  21222778.128    21222780.296
        17.250          20.750
                  -7838055.620 6  -6107572.232 6  21966090.456    21966092.964
        14.000          14.750
 95  4 21 16  4 14.9990000  0  7G 2G18G19G27G28G29G31
                  -1022501.686 4   -799324.575 5  24064784.526    24064789.062
         6.750           7.500
                  -1871804.664 7  -1458548.875 6  20091948.589    20091950.647
        22.000          19.000
                  -3085658.528 6  -2405679.399 6  20730218.933    20730221.218
        19.000          22.500
                  -7628440.406 5  -5960141.074 6  22646780.800    22646783.687
        11.750          12.250
                  -1902792.642 5  -1482693.773 5  23108673.925    23108676.327
        11.500          10.750
                   2775393.567 6   2162642.320 6  21227727.323    21227729.405
        17.250          20.750
                  -7868301.161 6  -6131140.169 6  21960334.995    21960337.433
        14.000          14.500
 95  4 21 16  4 29.9990000  0  7G 2G18G19G27G28G29G31
                  -1070666.678 4   -836855.723 5  24055618.948    24055623.288
         6.500           7.500
                  -1868348.806 7  -1455856.002 6  20092606.214    20092608.366
        22.000          18.750
                  -3101131.914 6  -2417736.583 6  20727274.526    20727276.897
        19.000          22.750
                  -7665773.790 5  -5989232.008 6  22639676.347    22639679.577
        11.500          12.500
                  -1898196.070 5  -1479112.025 5  23109548.722    23109550.999
        11.500          10.750
                   2801524.515 6   2183004.076 6  21232699.956    21232702.026
        17.250          20.500
                  -7898409.944 6  -6154601.545 6  21954605.581    21954607.878
        14.000          14.750
 95  4 21 16  4 44.9990000  0  7G 2G18G19G27G28G29G31
                  -1118762.339 4   -874332.842 5  24046466.144    24046471.190
         6.250           7.750
                  -1864752.090 7  -1453053.369 6  20093290.644    20093292.733
        22.000          19.000
                  -3116543.809 6  -2429745.850 6  20724341.651    20724343.894
        19.250          22.500
                  -7703068.543 5  -6018292.836 6  22632579.550    22632582.675
        11.500          12.500
                  -1893446.121 5  -1475410.769 5  23110452.612    23110454.812
        11.250          11.000
                   2827779.280 6   2203462.317 6  21237696.206    21237698.081
        17.500          20.500
                  -7928375.632 6  -6177951.416 6  21948903.362    21948905.796
        14.250          15.000
 95  4 21 16  4 59.9990000  0  7G 2G18G19G27G28G29G31
                  -1166790.202 4   -911757.128 5  24037326.964    24037331.987
         6.500           8.000
                  -1861017.144 7  -1450143.023 6  20094001.331    20094003.390
        22.000          18.750
                  -3131898.319 6  -2441710.400 6  20721419.894    20721422.077
        19.000          22.500
                  -7740328.086 5  -6047326.238 6  22625489.362    22625492.304
        11.500          12.500
                  -1888545.217 5  -1471591.889 5  23111385.042    23111387.628
        10.750          11.250
                   2854152.693 6   2224013.008 6  21242715.019    21242716.882
        17.500          20.500
                  -7958198.445 6  -6201189.954 6  21943228.425    21943230.886
        14.250          15.000
 95  4 21 16  5 14.9990000  0  7G 2G18G19G27G28G29G31
                  -1214753.556 4   -949131.148 5  24028199.542    24028204.636
         6.500           8.000
                  -1857144.638 7  -1447125.488 6  20094738.425    20094740.351
        22.000          18.750
                  -3147194.541 6  -2453629.531 6  20718509.065    20718511.276
        19.250          22.500
                  -7777550.660 5  -6076330.830 6  22618405.940    22618408.835
        11.750          12.250
                  -1883491.237 5  -1467653.728 5  23112346.581    23112349.413
        10.750          11.250
                   2880645.779 6   2244656.957 6  21247756.355    21247758.331
        17.500          20.500
                  -7987874.658 6  -6224314.258 6  21937581.237    21937583.526
        14.250          15.000
 95  4 21 16  5 29.9990000  0  7G 2G18G19G27G28G29G31
                  -1262653.306 4   -986455.611 5  24019084.753    24019089.882
         6.250           8.000
                  -1853134.937 7  -1444001.050 6  20095501.315    20095503.230
        22.000          18.750
                  -3162431.422 6  -2465502.423 6  20715609.722    20715611.894
        19.000          22.250
                  -7814740.268 6  -6105309.734 6  22611329.222    22611331.968
        12.000          12.500
                  -1878284.146 5  -1463596.266 5  23113337.409    23113340.440
        10.250          11.750
                   2907256.270 6   2265392.385 6  21252820.198    21252822.105
        17.500          20.250
                  -8017405.274 6  -6247325.110 6  21931961.659    21931963.847
        14.500          14.750
 95  4 21 16  5 44.9990000  0  7G 2G18G19G27G28G29G31
                  -1310495.110 4  -1023734.909 5  24009980.589    24009985.753
         6.250           8.000
                  -1848995.302 7  -1440775.364 6  20096289.136    20096290.964
        22.000          18.750
                  -3177613.791 6  -2477332.833 6  20712720.456    20712722.538
        19.000          22.250
                  -7851907.739 6  -6134271.388 6  22604256.331    22604259.144
        12.000          12.750
                  -1872929.266 5  -1459423.645 5  23114356.362    23114359.448
        10.000          11.750
                   2933974.964 6   2286212.130 6  21257904.761    21257906.655
        17.750          20.250
                  -8046796.568 6  -6270227.403 6  21926368.909    21926370.944
        14.500          14.750
 95  4 21 16  5 59.9990000  0  7G 2G18G19G27G28G29G31
                  -1358274.697 4  -1060965.742 5  24000888.690    24000893.522
         6.500           8.250
                  -1844719.404 7  -1437443.498 6  20097102.769    20097104.628
        22.000          18.750
                  -3192735.664 6  -2489116.109 6  20709842.815    20709844.925
        19.000          22.500
                  -7889048.317 6  -6163212.079 6  22597188.855    22597191.937
        12.000          12.750
                  -1867419.704 5  -1455130.488 5  23115404.581    23115407.741
        10.000          11.750
                   2960806.773 6   2307120.017 6  21263010.722    21263012.499
        17.750          20.250
                  -8076044.731 6  -6293018.169 6  21920802.776    21920804.995
        14.250          14.750
 95  4 21 16  6 14.9990000  0  7G 2G18G19G27G28G29G31
                  -1405994.440 4  -1098149.950 5  23991808.026    23991812.886
         6.500           8.000
                  -1840304.349 7  -1434003.195 6  20097942.878    20097944.683
        21.750          18.750
                  -3207799.340 6  -2500854.033 6  20706976.401    20706978.683
        19.000          22.250
                  -7926162.339 6  -6192132.088 6  22590126.042    22590128.886
        12.000          12.750
                  -1861756.539 5  -1450717.645 5  23116482.448    23116485.378
        10.000          11.750
                   2987750.267 6   2328114.928 6  21268137.948    21268139.694
        17.500          20.250
                  -8105153.908 6  -6315700.631 6  21915263.448    21915265.647
        14.250          14.750
 95  4 21 16  6 29.9990000  0  7G 2G18G19G27G28G29G31
                  -1453656.614 4  -1135289.283 5  23982737.901    23982742.999
         6.250           8.250
                  -1835750.186 7  -1430454.498 6  20098809.667    20098811.483
        21.750          18.750
                  -3222806.630 6  -2512548.022 6  20704120.440    20704122.749
        19.000          22.250
                  -7963249.938 6  -6221031.502 6  22583068.581    22583071.476
        12.000          12.750
                  -1855940.374 5  -1446185.577 5  23117589.292    23117592.327
        10.000          11.750
                   3014801.605 6   2349193.874 6  21273285.394    21273287.347
        17.500          20.250
                  -8134125.541 6  -6338275.918 6  21909750.714    21909752.765
        14.500          14.750
 95  4 21 16  6 44.9990000  0  7G 2G18G19G27G28G29G31
                  -1501260.630 4  -1172383.298 5  23973679.519    23973683.987
         6.750           8.000
                  -1831057.521 7  -1426797.870 6  20099702.620    20099704.464
        22.000          18.750
                  -3237758.398 6  -2524198.742 6  20701275.261    20701277.562
        19.000          22.250
                  -8000312.881 6  -6249911.700 6  22576015.620    22576018.390
        12.000          12.750
                  -1849972.132 5  -1441535.020 5  23118725.144    23118727.855
        10.250          11.750
                   3041959.387 6   2370355.775 6  21278453.589    21278455.519
        17.500          20.250
                  -8162961.359 6  -6360745.373 6  21904263.206    21904265.390
        14.500          15.000
 95  4 21 16  6 59.9990000  0  7G 2G18G19G27G28G29G31
                  -1548803.006 4  -1209429.297 5  23964632.144    23964636.980
         6.500           8.000
                  -1826220.792 7  -1423028.992 6  20100622.995    20100624.909
        21.750          18.750
                  -3252653.066 6  -2535804.977 6  20698441.136    20698443.233
        19.000          22.250
                  -8037346.675 5  -6278769.190 6  22568968.503    22568971.409
        11.750          12.750
                  -1843848.930 5  -1436763.695 5  23119890.519    23119893.030
        10.750          11.750
                   3069228.800 6   2391604.645 6  21283642.698    21283644.815
        17.500          20.250
                  -8191661.286 6  -6383108.938 6  21898801.745    21898804.007
        14.500          15.000
 95  4 21 16  7 14.9990000  0  7G 2G18G19G27G28G29G31
                  -1596287.273 4  -1246429.998 5  23955596.222    23955601.058
         7.000           8.000
                  -1821241.948 7  -1419149.376 6  20101570.183    20101572.136
        21.500          18.750
                  -3267493.268 6  -2547368.766 6  20695617.042    20695619.151
        19.000          22.000
                  -8074351.887 6  -6307604.406 6  22561926.542    22561929.304
        12.000          12.750
                  -1837572.934 5  -1431873.314 5  23121084.675    23121087.409
        11.000          11.750
                   3096609.362 6   2412940.129 6  21288852.995    21288855.054
        17.500          20.250
                  -8220230.773 6  -6405370.862 6  21893365.175    21893367.663
        14.500          15.250
 95  4 21 16  7 29.9990000  0  7G 2G18G19G27G28G29G31
                  -1643714.835 4  -1283386.527 5  23946571.214    23946575.659
         7.000           7.750
                  -1816119.076 7  -1415157.534 6  20102545.144    20102547.128
        21.500          18.750
                  -3282278.450 6  -2558889.682 6  20692803.448    20692805.573
        19.000          22.000
                  -8111329.473 5  -6336418.096 6  22554890.026    22554892.823
        11.750          12.750
                  -1831144.561 5  -1426864.200 5  23122308.425    23122310.730
        11.250          11.750
                   3124104.870 6   2434365.182 6  21294085.237    21294087.405
        17.500          20.250
                  -8248671.563 6  -6427532.500 6  21887952.886    21887955.409
        14.500          15.250
 95  4 21 16  7 44.9990000  0  7G 2G18G19G27G28G29G31
                  -1691086.817 4  -1320299.743 5  23937556.651    23937561.108
         7.000           8.000
                  -1810852.923 7  -1411054.036 6  20103547.245    20103549.257
        21.500          18.750
                  -3297014.755 6  -2570372.515 6  20689999.269    20690001.394
        19.000          22.000
                  -8148284.157 6  -6365213.939 6  22547857.769    22547860.401
        12.000          12.750
                  -1824567.721 5  -1421739.396 5  23123559.605    23123562.355
        11.000          11.750
                   3151715.274 6   2455879.765 6  21299339.386    21299341.327
        17.500          20.250
                  -8276988.013 6  -6449597.250 6  21882564.589    21882567.069
        14.750          15.500
 95  4 21 16  7 59.9990000  0  7G 2G18G19G27G28G29G31
                  -1738405.163 4  -1357171.156 5  23928552.065    23928557.292
         7.000           8.000
                  -1805441.538 7  -1406837.373 6  20104577.026    20104579.065
        21.500          18.750
                  -3311701.504 6  -2581816.730 6  20687204.519    20687206.655
        18.750          22.000
                  -8185211.003 5  -6393988.094 6  22540830.714    22540833.483
        11.750          12.750
                  -1817841.760 5  -1416498.390 5  23124839.511    23124842.292
        11.000          11.750
                   3179445.286 6   2477487.548 6  21304616.355    21304618.171
        17.500          20.250
                  -8305177.711 6  -6471563.231 6  21877200.315    21877202.730
        14.750          15.500
 95  4 21 16  8 14.9990000  0  7G 2G18G19G27G28G29G31
                  -1785665.930 4  -1393997.707 5  23919558.659    23919563.448
         7.250           8.000
                  -1799881.227 7  -1402504.668 6  20105635.073    20105637.030
        21.250          18.750
                  -3326334.590 6  -2593219.130 6  20684419.706    20684421.940
        18.750          22.250
                  -8222102.010 5  -6422734.319 6  22533810.534    22533813.386
        11.750          12.750
                  -1810963.804 5  -1411138.955 5  23126148.472    23126151.151
        11.250          11.750
                   3207299.714 6   2499192.279 6  21309916.894    21309918.757
        17.250          20.250
                  -8333236.402 6  -6493427.133 6  21871861.089    21871863.503
        15.000          15.750
 95  4 21 16  8 29.9990000  0  7G 2G18G19G27G28G29G31
                  -1832865.096 4  -1430776.266 5  23910577.214    23910581.573
         7.250           7.500
                  -1794172.225 7  -1398056.100 6  20106721.495    20106723.499
        21.250          18.750
                  -3340911.894 6  -2604578.065 6  20681645.698    20681647.976
        18.750          22.250
                  -8258956.265 5  -6451451.909 6  22526797.175    22526800.280
        11.750          12.750
                  -1803934.263 5  -1405661.393 5  23127486.487    23127488.812
        11.500          11.750
                   3235279.087 6   2520994.367 6  21315241.167    21315243.105
        17.500          20.250
                  -8361162.096 6  -6515187.403 6  21866546.933    21866549.308
        14.750          15.750
 95  4 21 16  8 44.9990000  0  7G 2G18G19G27G28G29G31
                  -1879997.897 4  -1467503.113 5  23901607.714    23901612.671
         7.000           7.750
                  -1788312.430 7  -1393490.031 6  20107836.745    20107838.769
        21.250          18.750
                  -3355430.234 6  -2615891.051 6  20678883.167    20678885.476
        18.750          22.250
                  -8295774.233 6  -6480141.219 6  22519791.269    22519794.073
        12.000          12.750
                  -1796750.963 5  -1400064.016 5  23128853.089    23128855.815
        10.750          11.750
                   3263385.581 6   2542895.509 6  21320589.690    21320591.624
        17.250          20.000
                  -8388950.618 6  -6536840.788 6  21861258.612    21861261.448
        14.500          16.000
 95  4 21 16  8 59.9990000  0  7G 2G18G19G27G28G29G31
                  -1927064.538 4  -1504178.391 5  23892651.495    23892656.144
         7.250           7.750
                  -1782301.678 7  -1388806.332 6  20108980.417    20108982.507
        21.250          18.750
                  -3369888.162 6  -2627156.963 6  20676131.901    20676134.112
        18.750          22.250
                  -8332555.710 6  -6508802.097 6  22512791.995    22512794.835
        12.000          13.000
                  -1789414.836 5  -1394347.567 5  23130249.058    23130251.815
        10.750          11.750
                   3291620.232 6   2564896.518 6  21325962.526    21325964.640
        17.250          20.250
                  -8416602.203 6  -6558387.460 6  21855996.776    21855999.667
        14.750          16.250
 95  4 21 16  9 14.9990000  0  7G 2G18G19G27G28G29G31
                  -1974068.246 5  -1540804.637 5  23883707.128    23883711.714
         7.500           7.750
                  -1776140.986 7  -1384005.801 6  20110152.753    20110154.765
        21.250          18.750
                  -3384288.573 6  -2638378.061 6  20673391.659    20673393.862
        19.000          22.250
                  -8369302.014 6  -6537435.568 6  22505799.183    22505801.972
        12.000          12.750
                  -1781927.994 5  -1388513.669 5  23131673.847    23131676.538
        11.000          11.750
                   3319979.652 6   2586994.746 6  21331359.261    21331361.249
        17.250          20.000
                  -8444116.543 6  -6579827.196 6  21850761.081    21850763.800
        14.750          16.000
 95  4 21 16  9 29.9990000  0  7G 2G18G19G27G28G29G31
                  -2021004.262 5  -1577378.143 5  23874775.511    23874779.983
         7.500           7.500
                  -1769827.465 7  -1379086.181 6  20111354.362    20111356.339
        21.500          18.750
                  -3398627.459 6  -2649551.216 6  20670662.894    20670665.124
        19.000          22.000
                  -8406009.719 6  -6566038.961 6  22498814.198    22498816.694
        12.000          12.750
                  -1774286.291 5  -1382559.100 6  23133128.198    23133130.687
        11.250          12.000
                   3348466.965 6   2609192.634 6  21336780.190    21336782.249
        17.000          20.250
                  -8471485.719 6  -6601153.815 6  21845552.925    21845555.499
        14.750          16.000
 95  4 21 16  9 44.9990000  0  7G 2G18G19G27G28G29G31
                  -2067872.962 5  -1613899.193 5  23865856.870    23865861.151
         7.500           7.500
                  -1763366.277 7  -1374051.494 6  20112583.800    20112585.823
        21.500          18.750
                  -3412908.692 6  -2660679.445 6  20667945.487    20667947.589
        19.000          22.000
                  -8442682.888 6  -6594615.442 6  22491835.425    22491838.202
        12.000          13.000
                  -1766493.495 5  -1376486.798 5  23134611.300    23134613.522
        11.750          11.750
                   3377075.850 6   2631485.254 6  21342224.339    21342226.401
        17.000          20.250
                  -8498712.163 6  -6622369.219 6  21840372.050    21840374.437
        14.750          16.000
 95  4 21 16  9 59.9990000  0  7G 2G18G19G27G28G29G31
                  -2114675.172 4  -1650368.428 5  23856950.058    23856954.812
         7.000           7.500
                  -1756762.235 7  -1368905.494 6  20113840.605    20113842.515
        21.250          18.750
                  -3427131.073 6  -2671761.817 6  20665238.901    20665241.019
        18.750          22.000
                  -8479321.900 6  -6623165.303 6  22484863.292    22484866.073
        12.250          13.250
                  -1758551.468 5  -1370298.209 6  23136122.464    23136125.015
        11.500          12.000
                   3405800.565 6   2653868.131 6  21347690.409    21347692.491
        17.000          20.250
                  -8525796.952 6  -6643474.239 6  21835217.925    21835220.339
        14.750          16.000
 95  4 21 16 10 14.9990000  0  7G 2G18G19G27G28G29G31
                  -2161408.013 5  -1686783.606 5  23848057.612    23848061.831
         7.500           7.750
                  -1750017.828 7  -1363650.114 6  20115123.925    20115125.886
        21.250          18.750
                  -3441290.283 6  -2682794.965 6  20662544.456    20662546.632
        18.750          22.000
                  -8515924.423 6  -6651686.733 6  22477897.800    22477900.761
        12.000          13.250
                  -1750458.447 5  -1363991.961 6  23137662.464    23137665.015
        11.250          12.000
                   3434639.775 6   2676340.224 6  21353178.253    21353180.397
        16.750          20.250
                  -8552738.706 6  -6664467.802 6  21830090.987    21830093.538
        14.750          16.000
 95  4 21 16 10 29.9990000  0  7G 2G18G19G27G28G29G31
                  -2208071.359 5  -1723144.644 5  23839178.026    23839182.347
         7.500           8.000
                  -1743134.417 7  -1358286.426 6  20116433.831    20116435.831
        21.250          18.750
                  -3455388.300 6  -2693780.433 6  20659861.855    20659863.917
        19.000          22.000
                  -8552490.115 6  -6680179.468 6  22470939.745    22470942.882
        12.250          13.500
                  -1742214.275 5  -1357567.944 6  23139231.003    23139233.702
        10.750          12.000
                   3463593.561 6   2698901.597 6  21358687.987    21358690.179
        16.750          20.000
                  -8579537.265 6  -6685349.787 6  21824991.253    21824993.687
        14.750          16.000
 95  4 21 16 10 44.9990000  0  7G 2G18G19G27G28G29G31
                  -2254667.332 4  -1759453.161 5  23830310.948    23830315.296
         7.250           8.000
                  -1736109.823 7  -1352812.719 6  20117770.597    20117772.530
        21.250          18.750
                  -3469426.861 6  -2704719.569 6  20657190.394    20657192.565
        19.000          22.000
                  -8589021.107 6  -6708645.161 6  22463988.050    22463991.171
        12.250          13.500
                  -1733819.344 5  -1351026.448 6  23140828.394    23140831.437
        10.500          12.250
                   3492661.758 6   2721552.124 6  21364219.503    21364221.776
        16.750          20.000
                  -8606191.970 6  -6706119.674 6  21819919.105    21819921.550
        14.750          16.250
 95  4 21 16 10 59.9990000  0  7G 2G18G19G27G28G29G31
                  -2301199.813 5  -1795712.220 5  23821456.269    23821460.319
         7.500           8.000
                  -1728947.233 7  -1347231.487 6  20119133.503    20119135.585
        21.000          18.750
                  -3483406.209 6  -2715612.566 6  20654530.261    20654532.480
        19.000          22.000
                  -8625518.888 6  -6737084.976 6  22457042.620    22457045.593
        12.250          13.500
                  -1725274.985 5  -1344368.513 6  23142454.331    23142457.323
        10.250          12.000
                   3521840.619 6   2744288.878 6  21369771.886    21369774.272
        16.500          20.000
                  -8632705.148 6  -6726779.282 6  21814873.776    21814876.187
        15.000          16.250
 95  4 21 16 11 14.9990000  0  7G 2G18G19G27G28G29G31
                  -2347664.268 5  -1831918.265 5  23812614.315    23812618.538
         7.500           8.000
                  -1721643.110 7  -1341539.964 6  20120523.394    20120525.397
        21.000          18.750
                  -3497320.511 6  -2726454.875 6  20651882.362    20651884.687
        18.750          22.000
                  -8661975.811 6  -6765492.950 6  22450105.167    22450108.210
        12.500          13.500
                  -1716574.977 5  -1337589.296 6  23144109.862    23144112.831
        10.000          12.000
                   3551135.322 6   2767115.900 6  21375346.472    21375348.855
        16.500          20.000
                  -8659071.324 6  -6747324.344 6  21809856.456    21809858.780
        15.000          16.000
 95  4 21 16 11 29.9990000  0  7G 2G18G19G27G28G29G31
                  -2394061.800 5  -1868072.166 5  23803784.776    23803789.507
         7.500           8.250
                  -1714202.197 7  -1335741.856 6  20121939.323    20121941.327
        21.000          18.750
                  -3511170.783 6  -2737247.295 6  20649246.714    20649248.948
        18.750          22.000
                  -8698395.365 6  -6793871.812 6  22443174.776    22443177.675
        12.250          13.500
                  -1707721.494 5  -1330690.495 6  23145794.745    23145797.542
        10.000          12.000
                   3580540.148 6   2790028.730 6  21380941.987    21380944.476
        16.500          20.000
                  -8685291.610 6  -6767755.723 6  21804866.894    21804869.358
        14.750          16.250
 95  4 21 16 11 44.9990000  0  7G 2G18G19G27G28G29G31
                  -2440394.835 4  -1904175.800 5  23794967.987    23794972.663
         7.250           8.250
                  -1706630.143 7  -1329841.559 6  20123380.230    20123382.288
        21.000          18.750
                  -3524957.187 6  -2747989.945 6  20646623.206    20646625.362
        18.750          22.000
                  -8734780.311 6  -6822223.705 6  22436250.870    22436253.905
        12.500          13.500
                  -1698717.606 5  -1323674.481 5  23147508.308    23147510.972
        10.000          11.750
                   3610050.597 6   2813023.868 6  21386557.675    21386560.147
        16.500          19.750
                  -8711371.968 6  -6788078.068 6  21799904.042    21799906.737
        14.750          16.500
 95  4 21 16 11 59.9990000  0  7G 2G18G19G27G28G29G31
                  -2486665.240 4  -1940230.649 5  23786163.019    23786167.714
         7.250           8.250
                  -1698928.146 7  -1323840.007 6  20124845.933    20124848.011
        21.000          19.000
                  -3538678.582 6  -2758681.936 6  20644012.144    20644014.304
        18.750          21.750
                  -8771129.289 6  -6850547.574 6  22429334.073    22429336.933
        12.500          13.500
                  -1689563.769 5  -1316541.625 5  23149250.011    23149252.921
         9.750          11.750
                   3639665.048 6   2836100.045 6  21392193.253    21392195.702
        16.500          19.750
                  -8737314.611 6  -6808293.103 6  21794967.089    21794969.636
        14.750          16.250
 95  4 21 16 12 14.9990000  0  7G 2G18G19G27G28G29G31
                  -2532872.148 4  -1976235.993 5  23777370.230    23777374.940
         7.250           8.500
                  -1691091.191 7  -1317733.293 6  20126337.292    20126339.276
        21.000          19.000
                  -3552333.606 6  -2769322.215 6  20641413.620    20641415.792
        18.750          21.750
                  -8807438.546 6  -6878840.485 6  22422424.761    22422427.593
        12.500          13.500
                  -1680256.959 5  -1309289.576 5  23151020.761    23151023.987
         9.500          11.750
                   3669388.460 6   2859261.127 6  21397849.526    21397851.855
        16.750          19.750
                  -8763117.546 6  -6828399.277 6  21790056.847    21790059.515
        14.750          16.250
 95  4 21 16 12 29.9990000  0  7G 2G18G19G27G28G29G31
                  -2579019.154 5  -2012194.686 5  23768588.706    23768593.733
         7.500           8.750
                  -1683117.971 7  -1311520.395 6  20127854.636    20127856.632
        21.250          19.000
                  -3565929.285 6  -2779916.248 6  20638826.433    20638828.597
        18.750          21.750
                  -8843710.654 6  -6907104.456 6  22415522.276    22415525.140
        12.500          13.500
                  -1670798.959 5  -1301919.714 5  23152820.456    23152823.464
         9.250          11.750
                   3699220.598 6   2882506.932 6  21403526.394    21403528.655
        16.750          19.750
                  -8788783.299 6  -6848398.556 6  21785172.800    21785175.511
        14.750          16.500
 95  4 21 16 12 44.9990000  0  7G 2G18G19G27G28G29G31
                  -2625099.304 5  -2048101.276 5  23759819.698    23759824.589
         7.500           8.750
                  -1674997.671 7  -1305192.896 6  20129399.933    20129401.940
        21.000          19.000
                  -3579459.680 6  -2790459.405 6  20636251.745    20636253.866
        18.750          22.000
                  -8879941.390 6  -6935336.184 6  22408627.909    22408630.776
        12.750          13.750
                  -1661183.454 5  -1294427.123 5  23154650.323    23154653.218
         9.250          11.750
                   3729167.658 6   2905842.285 6  21409225.159    21409227.226
        16.750          19.500
                  -8814307.292 6  -6868287.373 6  21780315.839    21780318.546
        14.750          16.500
 95  4 21 16 12 59.9990000  0  7G 2G18G19G27G28G29G31
                  -2671113.073 5  -2083956.141 5  23751063.605    23751068.167
         7.500           8.750
                  -1666734.740 7  -1298754.255 6  20130972.355    20130974.358
        21.250          19.000
                  -3592924.682 6  -2800951.608 6  20633689.401    20633691.679
        18.750          22.000
                  -8916136.796 6  -6963540.384 6  22401740.292    22401743.054
        12.750          13.750
                  -1651412.827 5  -1286813.658 5  23156509.683    23156512.835
         9.000          11.750
                   3759224.297 6   2929263.027 6  21414944.847    21414946.866
        16.750          19.250
                  -8839693.749 6  -6888069.018 6  21775485.003    21775488.007
        14.750          16.750
 95  4 21 16 13 14.9990000  0  7G 2G18G19G27G28G29G31
                  -2717064.171 5  -2119762.168 5  23742319.159    23742324.218
         7.500           9.000
                  -1658337.088 7  -1292210.638 6  20132570.331    20132572.292
        21.000          19.250
                  -3606329.645 6  -2811397.030 6  20631138.542    20631140.761
        18.750          22.000
                  -8952298.075 6  -6991717.990 6  22394858.917    22394861.655
        12.750          13.500
                  -1641491.199 5  -1279082.529 6  23158397.737    23158400.800
         9.250          12.000
                   3789389.134 6   2952768.080 6  21420685.112    21420687.179
        17.000          19.250
                  -8864947.709 6  -6907747.421 6  21770679.355    21770682.190
        14.750          16.750
 95  4 21 16 13 29.9990000  0  7G 2G18G19G27G28G29G31
                  -2762952.311 5  -2155519.139 5  23733587.065    23733591.897
         7.750           9.000
                  -1649803.255 7  -1285560.901 6  20134194.237    20134196.304
        21.000          19.250
                  -3619679.861 6  -2821799.794 6  20628598.136    20628600.429
        18.500          22.000
                  -8988425.764 6  -7019869.422 6  22387984.073    22387986.847
        12.750          13.500
                  -1631419.678 5  -1271234.599 6  23160314.440    23160317.499
         9.500          12.000
                   3819663.535 6   2976358.506 6  21426446.120    21426448.167
        17.000          19.250
                  -8890068.635 6  -6927322.159 6  21765899.019    21765901.890
        15.000          16.750
 95  4 21 16 13 44.9990000  0  7G 2G18G19G27G28G29G31
                  -2808773.512 5  -2191223.949 5  23724867.690    23724872.358
         8.000           9.000
                  -1641127.382 7  -1278800.480 6  20135845.190    20135847.159
        21.000          19.000
                  -3632973.375 6  -2832158.372 6  20626068.308    20626070.683
        18.500          22.000
                  -9024515.910 6  -7047991.603 6  22381116.237    22381118.944
        12.750          13.500
                  -1621195.117 5  -1263267.420 6  23162260.269    23162263.214
        10.000          12.000
                   3850052.436 6   3000038.151 6  21432228.964    21432231.022
        17.000          19.250
                  -8915051.812 6  -6946789.558 6  21761145.144    21761147.933
        14.750          16.750
 95  4 21 16 13 59.9990000  0  7G 2G18G19G27G28G29G31
                  -2854533.960 5  -2226881.428 5  23716159.901    23716164.577
         8.000           9.250
                  -1632309.936 7  -1271929.746 6  20137523.105    20137525.155
        20.750          19.000
                  -3646218.246 6  -2842479.045 6  20623547.917    20623550.276
        18.500          22.000
                  -9060572.552 6  -7076087.681 6  22374254.815    22374257.569
        13.000          13.500
                  -1610821.402 5  -1255184.011 6  23164234.675    23164237.433
        10.500          12.500
                   3880557.205 6   3023808.083 6  21438033.745    21438035.940
        16.750          19.250
                  -8939901.249 6  -6966152.744 6  21756416.253    21756418.976
        14.750          16.750
 95  4 21 16 14 14.9990000  0  7G 2G18G19G27G28G29G31
                  -2900230.814 5  -2262489.341 5  23707463.948    23707468.530
         8.000           9.000
                  -1623345.705 7  -1264944.634 6  20139228.815    20139230.808
        20.750          19.250
                  -3659414.502 6  -2852761.838 6  20621036.722    20621039.022
        18.500          22.000
                  -9096594.607 6  -7104156.802 6  22367400.026    22367402.847
        12.750          13.500
                  -1600295.997 5  -1246982.399 6  23166237.573    23166240.230
        11.000          12.500
                   3911182.001 6   3047671.542 6  21443861.433    21443863.698
        16.750          19.250
                  -8964609.353 6  -6985405.804 6  21751714.440    21751717.187
        15.000          16.750
 95  4 21 16 14 29.9990000  0  7G 2G18G19G27G28G29G31
                  -2945861.075 5  -2298045.368 5  23698781.081    23698785.581
         8.250           9.000
                  -1614229.793 7  -1257841.330 6  20140963.605    20140965.647
        20.750          19.250
                  -3672559.793 6  -2863004.920 6  20618535.214    20618537.452
        18.500          22.000
                  -9132582.448 6  -7132199.269 6  22360551.839    22360554.745
        12.750          13.500
                  -1589616.339 5  -1238660.591 6  23168269.870    23168272.362
        11.250          12.250
                   3941928.452 6   3071629.800 6  21449712.386    21449714.550
        17.000          19.250
                  -8989170.822 6  -7004544.603 6  21747040.573    21747043.124
        15.000          16.750
 95  4 21 16 14 44.9990000  0  7G 2G18G19G27G28G29G31
                  -2991426.787 5  -2333551.094 5  23690109.776    23690114.397
         8.250           8.750
                  -1604968.449 7  -1250624.705 6  20142725.862    20142727.874
        20.750          19.000
                  -3685654.773 6  -2873208.796 6  20616043.472    20616045.718
        18.750          22.000
                  -9168539.387 6  -7160217.655 6  22353709.550    22353712.073
        12.750          13.500
                  -1578787.142 5  -1230222.257 6  23170330.847    23170333.089
        11.500          12.250
                   3972789.910 6   3095677.674 6  21455585.065    21455587.323
        16.750          19.250
                  -9013585.643 6  -7023569.130 6  21742394.534    21742397.269
        15.000          17.000
 95  4 21 16 14 59.9990000  0  7G 2G18G19G27G28G29G31
                  -3036920.881 5  -2369001.021 5  23681452.659    23681457.288
         8.000           8.750
                  -1595560.328 7  -1243293.703 6  20144516.253    20144518.249
        20.750          19.000
                  -3698692.824 6  -2883368.311 6  20613562.355    20613564.593
        18.500          21.750
                  -9204459.842 6  -7188207.611 6  22346873.761    22346876.917
        12.750          13.500
                  -1567804.357 5  -1221664.241 6  23172420.448    23172422.983
        11.500          12.500
                   4003768.446 6   3119816.774 6  21461480.151    21461482.409
        17.000          19.250
                  -9037846.102 6  -7042473.374 6  21737777.878    21737780.659
        15.000          16.750
 95  4 21 16 15 14.9990000  0  7G 2G18G19G27G28G29G31
                  -3082343.877 5  -2404395.544 5  23672809.058    23672813.679
         8.250           9.000
                  -1586005.995 7  -1235848.770 6  20146334.409    20146336.444
        20.750          19.000
                  -3711675.996 6  -2893485.061 6  20611091.698    20611093.972
        18.500          22.000
                  -9240343.424 6  -7216168.831 6  22340045.323    22340048.378
        12.750          13.750
                  -1556668.910 5  -1212987.272 6  23174539.605    23174542.233
        11.500          12.500
                   4034863.594 6   3144046.745 6  21467397.417    21467399.694
        17.000          19.000
                  -9061949.669 6  -7061255.371 6  21733191.026    21733193.780
        14.750          16.750
 95  4 21 16 15 29.9990000  0  7G 2G18G19G27G28G29G31
                  -3127692.392 5  -2439732.029 5  23664179.284    23664184.394
         7.750           9.000
                  -1576297.440 7  -1228283.667 6  20148181.940    20148183.983
        20.750          19.000
                  -3724602.309 6  -2903557.506 6  20608632.050    20608634.386
        18.500          22.000
                  -9276187.197 6  -7244099.032 6  22333224.487    22333227.495
        12.500          13.750
                  -1545378.392 5  -1204189.471 6  23176688.089    23176690.663
        11.250          12.500
                   4066076.302 6   3168368.317 6  21473336.940    21473339.308
        17.000          19.000
                  -9085891.099 6  -7079911.023 6  21728635.097    21728637.913
        14.750          17.000
 95  4 21 16 15 44.9990000  0  7G 2G18G19G27G28G29G31
                  -3172973.449 5  -2475015.943 5  23655562.776    23655567.362
         8.000           8.750
                  -1566437.281 7  -1220600.430 6  20150058.034    20150059.999
        20.750          19.250
                  -3737474.610 6  -2913587.865 6  20606182.480    20606184.761
        18.500          22.000
                  -9311999.055 6  -7272004.368 6  22326409.823    22326412.663
        12.500          13.750
                  -1533940.184 5  -1195276.587 6  23178864.636    23178867.362
        11.000          12.500
                   4097393.807 6   3192771.550 6  21479296.464    21479298.800
        16.750          19.000
                  -9109675.921 6  -7098444.645 6  21724109.003    21724111.948
        14.750          17.000
 95  4 21 16 15 59.9990000  0  7G 2G18G19G27G28G29G31
                  -3218183.495 5  -2510244.537 5  23646959.534    23646964.058
         8.250           8.750
                  -1556420.463 7  -1212795.121 6  20151964.292    20151966.128
        21.000          19.250
                  -3750286.818 6  -2923571.399 6  20603744.355    20603746.569
        18.500          22.000
                  -9347777.201 6  -7299883.431 6  22319601.417    22319604.347
        12.750          13.750
                  -1522351.284 5  -1186246.285 6  23181069.980    23181072.585
        11.000          12.250
                   4128819.149 6   3217258.808 6  21485276.565    21485278.741
        17.000          19.000
                  -9133300.949 6  -7116853.748 6  21719613.331    21719616.194
        15.000          17.000
 95  4 21 16 16 14.9990000  0  7G 2G18G19G27G28G29G31
                  -3263316.747 5  -2545413.285 5  23638370.675    23638375.675
         8.000           8.750
                  -1546245.858 7  -1204866.860 6  20153900.737    20153902.675
        21.000          19.250
                  -3763032.504 6  -2933503.101 6  20601318.784    20601321.136
        18.500          22.000
                  -9383518.885 6  -7327734.081 6  22312800.050    22312802.952
        12.750          13.750
                  -1510608.179 5  -1177095.814 6  23183304.550    23183307.179
        10.750          12.250
                   4160354.879 6   3241832.086 6  21491277.730    21491279.983
        17.000          19.000
                  -9156762.887 6  -7135135.769 6  21715148.690    21715151.534
        15.000          17.000
 95  4 21 16 16 29.9990000  0  7G 2G18G19G27G28G29G31
                  -3308370.624 5  -2580520.185 5  23629797.112    23629802.187
         7.750           8.750
                  -1535914.726 7  -1196816.633 6  20155866.683    20155868.546
        21.000          19.250
                  -3775707.330 6  -2943379.586 6  20598907.026    20598909.249
        18.500          22.000
                  -9419223.651 6  -7355555.963 6  22306005.667    22306008.425
        13.000          13.750
                  -1498710.737 5  -1167825.086 6  23185568.542    23185571.011
        10.500          12.250
                   4191997.882 6   3266488.955 6  21497299.347    21497301.519
        17.000          18.750
                  -9180062.221 6  -7153291.088 6  21710715.097    21710717.948
        15.000          17.000
 95  4 21 16 16 44.9990000  0  7G 2G18G19G27G28G29G31
                  -3353345.956 5  -2615565.881 5  23621238.667    23621243.370
         7.750           9.000
                  -1525431.505 7  -1188647.891 6  20157861.589    20157863.397
        21.000          19.250
                  -3788311.853 6  -2953201.287 6  20596508.597    20596510.753
        18.750          22.000
                  -9454891.244 6  -7383348.881 6  22299218.370    22299221.124
        13.000          14.000
                  -1486661.027 5  -1158435.710 6  23187861.378    23187864.323
        10.000          12.250
                   4223748.057 6   3291229.331 6  21503341.253    21503343.280
        17.000          18.750
                  -9203206.460 6  -7171325.552 6  21706310.909    21706313.776
        15.250          17.000
 95  4 21 16 16 59.9990000  0  7G 2G18G19G27G28G29G31
                  -3398243.280 5  -2650550.785 5  23612694.956    23612699.714
         7.750           9.000
                  -1514798.854 7  -1180362.717 6  20159884.823    20159886.698
        20.750          19.250
                  -3800848.981 6  -2962970.482 6  20594122.800    20594124.980
        18.750          22.000
                  -9490520.769 6  -7411112.141 6  22292438.276    22292441.183
        13.000          13.750
                  -1474459.791 5  -1148928.261 6  23190183.151    23190186.214
        10.000          12.250
                   4255606.377 6   3316053.976 6  21509403.675    21509405.843
        17.000          18.750
                  -9226199.212 6  -7189241.974 6  21701935.855    21701938.608
        15.250          17.250
 95  4 21 16 17 14.9990000  0  7G 2G18G19G27G28G29G31
                  -3443061.775 5  -2685474.266 5  23604166.308    23604171.054
         7.750           9.000
                  -1504012.414 7  -1171957.705 6  20161937.433    20161939.284
        20.750          19.500
                  -3813317.296 6  -2972686.045 6  20591750.159    20591752.331
        18.750          22.000
                  -9526112.399 6  -7438845.868 6  22285665.292    22285668.272
        13.000          13.750
                  -1462104.192 5  -1139300.527 6  23192534.355    23192537.405
        10.000          12.000
                   4287580.125 6   3340968.567 6  21515488.011    21515490.171
        17.000          18.750
                  -9249042.161 6  -7207041.666 6  21697588.737    21697591.413
        15.250          17.250
 95  4 21 16 17 29.9990000  0  7G 2G18G19G27G28G29G31
                  -3487806.105 5  -2720339.963 5  23595651.456    23595656.378
         7.750           9.000
                  -1493073.535 7  -1163433.909 6  20164019.034    20164020.968
        20.750          19.500
                  -3825716.136 6  -2982347.476 6  20589390.714    20589392.933
        18.750          22.000
                  -9561667.913 6  -7466551.457 6  22278899.276    22278902.319
        13.000          13.750
                  -1449596.082 5  -1129553.956 5  23194914.355    23194917.464
        10.000          11.750
                   4319670.817 6   3365974.283 6  21521594.839    21521596.839
        17.000          18.750
                  -9271738.743 6  -7224727.304 6  21693269.761    21693272.304
        15.500          17.000
 95  4 21 16 17 44.9990000  0  7G 2G18G19G27G28G29G31
                  -3532479.376 5  -2755150.277 5  23587150.550    23587155.382
         8.000           9.000
                  -1481987.078 7  -1154795.118 6  20166128.784    20166130.698
        20.750          19.500
                  -3838044.996 6  -2991954.380 6  20587044.511    20587046.827
        18.500          22.000
                  -9597185.710 6  -7494227.651 6  22272140.628    22272143.358
        13.000          13.750
                  -1436937.130 5  -1119689.836 5  23197323.534    23197326.331
        10.000          11.500
                   4351878.465 6   3391071.134 6  21527723.737    21527725.835
        17.000          18.500
                  -9294291.183 6  -7242300.624 6  21688978.253    21688980.835
        15.500          17.000
 95  4 21 16 17 59.9990000  0  7G 2G18G19G27G28G29G31
                  -3577082.282 5  -2789905.775 5  23578663.081    23578667.804
         8.000           9.000
                  -1470761.010 7  -1146047.539 6  20168264.909    20168266.929
        20.500          19.500
                  -3850306.209 6  -3001508.568 6  20584711.167    20584713.476
        18.500          22.000
                  -9632667.514 6  -7521875.798 6  22265388.542    22265391.358
        13.000          13.750
                  -1424128.394 5  -1109709.006 5  23199760.909    23199763.554
        10.250          11.250
                   4384208.028 6   3416262.985 6  21533875.815    21533878.147
        16.750          18.500
                  -9316700.616 6  -7259762.511 6  21684713.847    21684716.487
        15.500          17.000
 95  4 21 16 18 14.9990000  0  7G 2G18G19G27G28G29G31
                  -3621612.835 5  -2824604.888 5  23570189.042    23570194.073
         8.250           9.250
                  -1459400.350 7  -1137195.082 6  20170426.651    20170428.690
        20.500          19.500
                  -3862500.370 6  -3011010.515 6  20582390.714    20582393.077
        18.500          22.000
                  -9668112.862 6  -7549495.540 6  22258643.730    22258646.175
        13.250          13.500
                  -1411168.444 5  -1099610.345 5  23202227.308    23202229.952
        10.250          11.000
                   4416664.591 6   3441553.799 6  21540051.847    21540054.108
        16.500          18.500
                  -9338967.735 6  -7277113.505 6  21680476.456    21680479.089
        15.500          17.000
 95  4 21 16 18 29.9990000  0  7G 2G18G19G27G28G29G31
                  -3666071.660 5  -2859248.109 5  23561729.058    23561733.882
         8.500           9.500
                  -1447908.772 7  -1128240.610 6  20172613.511    20172615.659
        20.500          19.750
                  -3874628.108 6  -3020460.698 6  20580083.034    20580085.323
        18.750          22.000
                  -9703520.587 6  -7577085.964 6  22251905.761    22251908.519
        13.000          13.750
                  -1398057.342 5  -1089393.907 5  23204722.300    23204724.745
        10.500          11.000
                   4449246.210 6   3466942.056 6  21546252.011    21546254.218
        16.500          18.250
                  -9361093.082 6  -7294354.031 6  21676266.167    21676268.585
        15.500          16.750
 95  4 21 16 18 44.9990000  0  7G 2G18G19G27G28G29G31
                  -3710457.396 5  -2893834.376 5  23553282.526    23553287.585
         8.500           9.750
                  -1436283.709 7  -1119182.120 6  20174825.745    20174827.921
        20.250          19.750
                  -3886688.734 6  -3029858.587 6  20577788.011    20577790.374
        18.750          22.000
                  -9738887.366 6  -7604644.487 6  22245175.698    22245178.210
        13.250          13.750
                  -1384792.921 5  -1079057.997 5  23207246.284    23207249.272
        10.500          11.250
                   4481955.898 6   3492430.107 6  21552476.331    21552478.573
        16.500          18.250
                  -9383074.840 6  -7311482.668 6  21672083.097    21672085.597
        15.500          16.750
 95  4 21 16 18 59.9990000  0  7G 2G18G19G27G28G29G31
                  -3754769.913 5  -2928363.593 5  23544850.128    23544855.140
         8.500           9.750
                  -1424523.126 7  -1110018.032 6  20177063.651    20177065.827
        20.250          19.750
                  -3898684.167 6  -3039205.676 6  20575505.464    20575507.585
        18.750          22.000
                  -9774211.261 6  -7632169.585 6  22238453.800    22238456.347
        13.250          13.750
                  -1371374.498 5  -1068602.085 5  23209799.831    23209802.370
        10.500          11.000
                   4514793.706 6   3518017.993 6  21558725.370    21558727.589
        16.500          18.250
                  -9404910.265 6  -7328497.274 6  21667927.987    21667930.491
        15.500          16.750
 95  4 21 16 19 14.9990000  0  7G 2G18G19G27G28G29G31
                  -3799016.229 5  -2962841.219 5  23536430.464    23536435.159
         8.750           9.750
                  -1412630.565 7  -1100751.108 6  20179326.667    20179328.878
        20.250          19.750
                  -3910618.354 6  -3048505.040 6  20573234.308    20573236.542
        18.750          22.000
                  -9809499.950 6  -7659667.257 6  22231738.620    22231741.187
        13.250          13.750
                  -1357807.124 5  -1058030.104 5  23212381.683    23212384.120
        11.000          10.750
                   4547752.571 6   3543700.212 6  21564997.261    21564999.433
        16.500          18.250
                  -9426600.111 6  -7345398.446 6  21663800.534    21663803.038
        15.500          16.750
 95  4 21 16 19 29.9990000  0  7G 2G18G19G27G28G29G31
                  -3843189.382 5  -2997261.840 5  23528024.526    23528029.241
         8.750           9.750
                  -1400596.118 7  -1091373.622 6  20181616.878    20181618.964
        20.250          19.750
                  -3922481.328 6  -3057748.911 6  20570976.847    20570979.120
        18.750          22.000
                  -9844744.527 6  -7687130.555 6  22225031.776    22225034.292
        13.250          13.750
                  -1344083.837 5  -1047336.631 5  23214993.214    23214995.565
        11.250          10.750
                   4580836.141 6   3569479.605 6  21571292.901    21571295.183
        16.250          18.250
                  -9448132.910 6  -7362177.237 6  21659702.894    21659705.440
        15.250          16.750
 95  4 21 16 19 44.9990000  0  7G 2G18G19G27G28G29G31
                  -3887292.545 5  -3031627.919 5  23519631.769    23519636.526
         8.500          10.000
                  -1388424.155 7  -1081888.981 6  20183933.198    20183935.253
        20.250          19.750
                  -3934279.710 6  -3066942.456 6  20568731.753    20568734.022
        18.750          22.000
                  -9879948.192 6  -7714561.971 6  22218332.737    22218335.343
        13.500          14.000
                  -1330209.780 5  -1036525.682 5  23217633.394    23217635.530
        11.250          10.750
                   4614035.575 6   3595349.278 6  21577610.378    21577612.644
        16.250          18.250
                  -9469511.059 6  -7378835.529 6  21655634.690    21655637.190
        15.500          16.750
 95  4 21 16 19 59.9990000  0  7G 2G18G19G27G28G29G31
                  -3931326.874 5  -3065940.362 5  23511252.675    23511257.030
         8.750           9.750
                  -1376115.082 7  -1072297.502 6  20186275.558    20186277.589
        20.250          19.750
                  -3946019.982 6  -3076090.717 6  20566497.526    20566499.772
        18.750          22.000
                  -9915115.185 6  -7741964.813 6  22211640.636    22211643.124
        13.500          14.000
                  -1316187.448 5  -1025599.191 5  23220301.894    23220304.128
        11.750          10.750
                   4647346.018 6   3621305.460 6  21583949.128    21583951.413
        16.000          18.000
                  -9490737.615 6  -7395375.693 6  21651595.659    21651598.077
        15.500          16.750
 95  4 21 16 20 14.9990000  0  7G 2G18G19G27G28G29G31
                  -3975293.479 5  -3100200.043 5  23502885.792    23502890.491
         8.750           9.750
                  -1363667.272 7  -1062597.919 6  20188644.323    20188646.276
        20.250          19.750
                  -3957703.211 6  -3085194.531 6  20564274.440    20564276.659
        18.750          22.000
                  -9950250.099 6  -7769342.656 6  22204954.769    22204957.319
        13.500          14.250
                  -1302017.768 6  -1014557.885 5  23222998.355    23223000.249
        12.000          10.750
                   4680763.315 6   3647344.893 6  21590308.175    21590310.597
        16.000          18.000
                  -9511815.603 6  -7411800.090 6  21647584.597    21647586.960
        15.500          16.750
 95  4 21 16 20 29.9990000  0  7G 2G18G19G27G28G29G31
                  -4019190.252 5  -3134405.300 5  23494532.605    23494536.917
         8.500           9.500
                  -1351071.778 7  -1052783.257 6  20191040.972    20191042.944
        20.250          19.750
                  -3969324.720 6  -3094250.249 6  20562062.972    20562065.230
        18.750          22.000
                  -9985348.992 6  -7796692.437 6  22198275.753    22198278.124
        13.500          14.000
                  -1287698.111 5  -1003399.711 5  23225723.167    23225725.386
        11.750          10.750
                   4714284.839 6   3673465.542 6  21596687.230    21596689.624
        16.000          18.250
                  -9532741.661 6  -7428106.104 6  21643602.495    21643604.866
        15.500          16.750
 95  4 21 16 20 44.9990000  0  7G 2G18G19G27G28G29G31
                  -4063018.583 5  -3168557.224 5  23486192.167    23486196.562
         8.500           9.500
                  -1338324.412 7  -1042850.257 6  20193466.886    20193468.819
        20.250          19.750
                  -3980885.728 6  -3103258.821 6  20559862.823    20559865.073
        19.000          22.000
                 -10020412.244 6  -7824014.433 6  22191603.230    22191605.710
        13.500          14.250
                  -1273228.711 5   -992124.856 5  23228476.573    23228478.995
        11.750          11.000
                   4747909.305 6   3699666.410 6  21603085.800    21603088.081
        16.000          18.000
                  -9553512.156 6  -7444290.896 6  21639649.870    21639652.585
        15.500          17.000
 95  4 21 16 20 59.9990000  0  7G 2G18G19G27G28G29G31
                  -4106770.589 5  -3202649.676 5  23477866.526    23477871.120
         8.500           9.500
                  -1325413.117 7  -1032789.515 6  20195923.855    20195925.858
        20.250          19.750
                  -3992374.730 6  -3112211.286 6  20557676.636    20557678.769
        19.000          22.000
                 -10055428.711 6  -7851299.980 6  22184939.815    22184942.538
        13.500          14.250
                  -1258599.475 5   -980725.456 5  23231260.440    23231263.089
        11.500          11.250
                   4781646.621 6   3725955.211 6  21609505.815    21609508.261
        16.000          18.000
                  -9574114.735 6  -7460344.849 6  21635729.440    21635731.968
        15.500          17.000
 95  4 21 16 21 14.9990000  0  7G 2G18G19G27G28G29G31
                  -4150436.042 5  -3236674.686 5  23469557.284    23469561.651
         8.500           9.500
                  -1312328.221 7  -1022593.498 6  20198413.659    20198415.651
        20.250          19.750
                  -4003781.784 6  -3121099.896 6  20555506.136    20555508.202
        19.000          21.750
                 -10090390.027 6  -7878542.548 6  22178286.878    22178289.456
        13.500          14.250
                  -1243800.462 5   -969193.768 5  23234076.417    23234079.280
        11.000          11.500
                   4815508.543 6   3752341.109 6  21615949.433    21615951.921
        15.750          18.000
                  -9594536.855 6  -7476258.186 6  21631843.370    21631845.839
        15.750          17.000
 95  4 21 16 21 29.9990000  0  7G 2G18G19G27G28G29G31
                  -4194033.979 5  -3270647.085 5  23461260.776    23461265.245
         8.500           9.750
                  -1299090.529 7  -1012278.420 6  20200932.745    20200934.808
        20.000          19.750
                  -4015128.761 6  -3129941.695 6  20553346.761    20553348.831
        19.000          22.000
                 -10125317.750 6  -7905758.944 6  22171640.339    22171643.089
        13.250          14.250
                  -1228853.600 5   -957546.872 5  23236920.862    23236923.519
        10.750          11.500
                   4849473.657 6   3778807.415 6  21622412.839    21622415.308
        15.750          18.000
                  -9614800.648 6  -7492048.146 6  21627987.245    21627989.737
        15.750          17.250
 95  4 21 16 21 44.9990000  0  7G 2G18G19G27G28G29G31
                  -4237560.420 5  -3304563.765 5  23452977.948    23452982.382
         8.500           9.500
                  -1285701.827 7  -1001845.672 6  20203480.612    20203482.698
        20.000          19.750
                  -4026416.626 6  -3138737.432 6  20551198.808    20551200.968
        19.000          22.000
                 -10160209.050 6  -7932946.962 6  22165000.706    22165003.440
        13.250          14.250
                  -1213757.707 5   -945783.848 5  23239793.292    23239796.327
        10.500          11.500
                   4883544.169 6   3805355.845 6  21628896.308    21628898.749
        16.000          18.000
                  -9634908.210 6  -7507716.367 6  21624160.761    21624163.417
        15.750          17.000
 95  4 21 16 21 59.9990000  0  7G 2G18G19G27G28G29G31
                  -4281012.686 5  -3338422.646 5  23444709.300    23444713.765
         8.500           9.500
                  -1272162.103 7   -991295.246 6  20206057.034    20206059.237
        20.000          19.750
                  -4037642.452 6  -3147484.828 6  20549062.448    20549064.722
        19.000          22.000
                 -10195063.452 6  -7960106.226 6  22158368.011    22158370.940
        13.250          14.250
                  -1198509.767 5   -933902.347 5  23242694.839    23242697.808
        10.500          11.500
                   4917723.098 6   3831988.760 6  21635400.308    21635402.761
        16.000          17.750
                  -9654858.249 6  -7523261.846 6  21620364.433    21620366.874
        15.750          17.000
 95  4 21 16 22 14.9990000  0  7G 2G18G19G27G28G29G31
                  -4324385.121 5  -3372219.332 5  23436455.651    23436459.855
         8.500           9.250
                  -1258468.421 7   -980624.850 6  20208662.901    20208664.956
        20.000          19.750
                  -4048799.230 6  -3156178.421 6  20546939.456    20546941.730
        18.750          22.000
                 -10229876.885 6  -7987233.560 6  22151743.214    22151745.909
        13.250          14.250
                  -1183105.759 5   -921899.239 5  23245626.394    23245629.101
        10.750          11.500
                   4952013.705 6   3858708.698 6  21641925.784    21641928.003
        16.000          17.750
                  -9674644.739 6  -7538679.883 6  21616599.151    21616601.687
        15.500          17.000
 95  4 21 16 22 29.9990000  0  7G 2G18G19G27G28G29G31
                  -4367679.617 5  -3405955.279 5  23428217.042    23428221.077
         8.500           9.250
                  -1244623.622 7   -969836.699 6  20211297.378    20211299.413
        20.000          20.000
                  -4059886.917 6  -3164818.174 6  20544829.503    20544831.792
        19.000          22.000
                 -10264651.573 6  -8014330.709 6  22145125.808    22145128.394
        13.250          14.250
                  -1167548.588 5   -909776.781 5  23248586.839    23248589.737
        11.000          11.500
                   4986413.079 6   3885513.391 6  21648471.862    21648474.101
        16.000          17.500
                  -9694267.201 6  -7553970.107 6  21612865.300    21612867.796
        15.750          17.000
 95  4 21 16 22 44.9990000  0  7G 2G18G19G27G28G29G31
                  -4410895.882 5  -3439630.272 5  23419993.284    23419997.706
         8.500           9.500
                  -1230629.599 7   -958932.272 6  20213960.565    20213962.628
        20.000          20.000
                  -4070907.297 6  -3173405.481 6  20542732.386    20542734.655
        19.000          22.000
                 -10299385.136 6  -8041395.814 6  22138516.206    22138518.812
        13.500          14.250
                  -1151838.426 5   -897535.110 5  23251576.284    23251579.108
        11.000          11.500
                   5020923.323 6   3912404.474 6  21655038.745    21655040.909
        15.750          17.500
                  -9713722.057 6  -7569129.727 6  21609162.995    21609165.440
        15.500          16.750
 95  4 21 16 22 59.9990000  0  7G 2G18G19G27G28G29G31
                  -4454035.681 5  -3473245.672 5  23411784.120    23411788.507
         8.500           9.500
                  -1216490.268 7   -947914.620 6  20216651.198    20216653.249
        20.000          20.000
                  -4081864.586 6  -3181943.623 6  20540647.355    20540649.519
        19.000          22.000
                 -10334079.871 6  -8068430.661 6  22131914.112    22131916.792
        13.500          14.500
                  -1135977.382 5   -885175.868 5  23254594.573    23254597.155
        10.750          11.250
                   5055544.438 6   3939381.954 6  21661626.933    21661629.245
        15.750          17.500
                  -9733013.828 6  -7584162.270 6  21605491.792    21605494.171
        15.500          16.750
 95  4 21 16 23 14.9990000  0  7G 2G18G19G27G28G29G31
                  -4497095.443 5  -3506798.709 5  23403589.933    23403594.452
         8.500           9.500
                  -1202205.333 7   -936783.510 6  20219369.565    20219371.620
        20.000          20.000
                  -4092760.618 6  -3190434.040 6  20538573.862    20538576.069
        19.000          21.750
                 -10368735.627 6  -8095435.138 6  22125319.386    22125321.983
        13.750          14.500
                  -1119965.929 5   -872699.425 5  23257641.425    23257644.179
        10.750          11.250
                   5090277.725 6   3966446.834 6  21668236.456    21668238.862
        15.750          17.500
                  -9752145.609 6  -7599070.145 6  21601851.151    21601853.675
        15.500          16.500
 95  4 21 16 23 29.9990000  0  7G 2G18G19G27G28G29G31
                  -4540071.764 5  -3540286.728 5  23395411.948    23395416.069
         8.750           9.500
                  -1187772.089 7   -925536.832 6  20222116.159    20222118.265
        20.000          20.000
                  -4103595.146 6  -3198876.526 6  20536512.315    20536514.433
        19.250          22.000
                 -10403352.828 6  -8122409.569 6  22118731.855    22118734.644
        13.500          14.750
                  -1103801.831 5   -860104.039 5  23260717.394    23260720.038
        10.750          11.000
                   5125125.731 6   3993601.110 6  21674867.933    21674870.237
        15.750          17.250
                  -9771117.266 6  -7613853.247 6  21598240.980    21598243.546
        15.500          16.500
 95  4 21 16 23 44.9990000  0  7G 2G18G19G27G28G29G31
                  -4582967.732 5  -3573712.138 5  23387248.925    23387253.565
         8.750           9.750
                  -1173192.362 7   -914176.012 6  20224890.628    20224892.522
        20.250          20.000
                  -4114367.011 6  -3207270.186 6  20534462.409    20534464.554
        19.000          21.750
                 -10437930.267 6  -8149353.016 6  22112151.917    22112154.644
        13.500          14.500
                  -1087485.206 5   -847389.797 5  23263822.347    23263824.976
        10.750          11.000
                   5160086.620 6   4020843.345 6  21681520.636    21681522.890
        15.750          17.250
                  -9789931.363 6  -7628513.573 6  21594660.706    21594663.062
        15.500          16.500
 95  4 21 16 23 59.9990000  0  7G 2G18G19G27G28G29G31
                  -4625793.363 5  -3607082.741 5  23379099.550    23379104.144
         8.750          10.000
                  -1158473.696 7   -902706.932 6  20227691.456    20227693.394
        20.000          20.000
                  -4125080.446 6  -3215618.317 6  20532423.636    20532425.866
        19.000          22.000
                 -10472474.272 6  -8176270.414 6  22105578.651    22105581.132
        13.750          14.750
                  -1071022.197 5   -834561.494 5  23266955.394    23266957.772
        11.000          11.000
                   5195154.467 6   4048168.924 6  21688194.167    21688196.304
        15.750          17.250
                  -9808592.496 6  -7643054.711 6  21591109.815    21591112.097
        15.500          16.500
 95  4 21 16 24 14.9990000  0  7G 2G18G19G27G28G29G31
                  -4668547.280 5  -3640397.460 5  23370963.651    23370968.331
         9.000          10.000
                  -1143611.058 7   -891125.661 6  20230519.745    20230521.667
        20.000          20.000
                  -4135731.481 6  -3223917.822 6  20530396.878    20530399.089
        19.000          21.750
                 -10506981.048 6  -8203158.802 6  22099012.042    22099014.925
        13.500          14.750
                  -1054410.219 5   -821617.111 5  23270116.628    23270119.124
        11.000          10.750
                   5230332.134 6   4075580.077 6  21694888.136    21694890.409
        15.750          17.250
                  -9827095.813 6  -7657472.871 6  21587588.573    21587591.073
        15.500          16.750
 95  4 21 16 24 29.9990000  0  7G 2G18G19G27G28G29G31
                  -4711225.809 5  -3673653.435 5  23362842.339    23362847.214
         9.000          10.250
                  -1128601.949 7   -879430.259 6  20233375.886    20233377.843
        20.000          20.000
                  -4146318.801 6  -3232167.681 6  20528382.198    20528384.472
        19.000          22.000
                 -10541444.906 6  -8230013.747 6  22092453.933    22092456.745
        13.500          14.750
                  -1037645.441 5   -808553.659 5  23273306.737    23273309.257
        10.750          10.750
                   5265628.204 6   4103083.493 6  21701604.675    21701607.163
        15.750          17.500
                  -9845438.294 6  -7671765.708 6  21584098.081    21584100.675
        15.750          16.500
 95  4 21 16 24 44.9990000  0  7G 2G18G19G27G28G29G31
                  -4753833.610 5  -3706854.300 5  23354734.198    23354738.776
         9.000          10.250
                  -1113450.295 7   -867623.781 6  20236259.011    20236261.038
        20.000          20.000
                  -4156847.189 6  -3240371.621 6  20526378.683    20526380.952
        19.000          21.750
                 -10575865.871 6  -8256835.272 6  22085903.511    22085906.304
        13.500          15.000
                  -1020729.273 5   -795372.240 5  23276525.581    23276528.218
        10.250          10.750
                   5301043.069 6   4130679.473 6  21708343.878    21708346.421
        15.500          17.250
                  -9863623.356 6  -7685935.877 6  21580637.706    21580640.253
        16.000          16.750
 95  4 21 16 24 59.9990000  0  7G 2G18G19G27G28G29G31
                  -4796370.263 5  -3739999.731 5  23346639.683    23346644.522
         9.250          10.500
                  -1098157.066 7   -855706.987 6  20239169.175    20239171.144
        20.000          20.000
                  -4167318.961 6  -3248531.442 6  20524386.034    20524388.159
        19.000          22.000
                 -10610243.257 6  -8283622.833 6  22079361.706    22079364.733
        13.500          15.000
                  -1003660.977 5   -782072.289 5  23279773.659    23279776.444
        10.250          11.000
                   5336577.303 6   4158368.468 6  21715105.815    21715108.280
        15.500          17.250
                  -9881653.582 6  -7699985.395 6  21577206.917    21577209.179
        16.000          16.750
 95  4 21 16 25 14.9990000  0  7G 2G18G19G27G28G29G31
                  -4838838.713 5  -3773092.010 5  23338558.269    23338563.112
         9.000          10.500
                  -1082724.077 7   -843681.288 6  20242105.987    20242108.065
        20.000          20.000
                  -4177737.147 6  -3256649.511 6  20522403.526    20522405.671
        19.000          22.000
                 -10644579.274 6  -8310378.161 6  22072827.948    22072830.835
        13.500          15.000
                   -986444.352 5   -768656.754 5  23283049.894    23283052.855
        10.000          11.000
                   5372224.752 6   4186145.686 6  21721889.183    21721891.847
        15.250          17.000
                  -9899533.754 6  -7713917.988 6  21573804.464    21573806.769
        16.000          16.750
 95  4 21 16 25 29.9990000  0  7G 2G18G19G27G28G29G31
                  -4881235.960 5  -3806128.805 5  23330490.214    23330495.050
         9.250          10.750
                  -1067152.171 7   -831547.341 6  20245069.269    20245071.386
        20.000          20.000
                  -4188096.237 6  -3264721.529 6  20520432.198    20520434.456
        19.000          22.000
                 -10678870.874 6  -8337098.880 6  22066302.558    22066305.284
        13.750          15.000
                   -969077.664 5   -755124.293 5  23286354.589    23286357.456
         9.750          10.750
                   5407986.039 6   4214011.604 6  21728694.300    21728696.968
        15.500          17.000
                  -9917258.505 6  -7727729.473 6  21570431.456    21570433.819
        16.000          16.750
 95  4 21 16 25 44.9990000  0  7G 2G18G19G27G28G29G31
                  -4923562.937 5  -3839110.847 5  23322435.808    23322440.776
         9.250          11.000
                  -1051442.740 7   -819306.233 6  20248058.636    20248060.772
        20.000          20.000
                  -4198393.015 6  -3272744.988 6  20518472.745    20518475.011
        19.000          22.000
                 -10713116.920 6  -8363784.100 6  22059785.808    22059788.573
        14.000          15.000
                   -951561.452 5   -741475.310 5  23289687.776    23289690.425
         9.750          10.750
                   5443858.154 6   4241963.883 6  21735520.667    21735523.276
        15.500          17.000
                  -9934825.968 6  -7741418.396 6  21567088.331    21567090.866
        15.750          17.000
 95  4 21 16 25 59.9990000  0  7G 2G18G19G27G28G29G31
                  -4965819.313 5  -3872037.875 5  23314394.745    23314399.730
         9.500          10.750
                  -1035598.105 7   -806959.772 6  20251073.847    20251075.917
        20.000          20.000
                  -4208628.073 6  -3280720.359 6  20516524.987    20516527.280
        19.000          22.000
                 -10747317.516 6  -8390433.910 6  22053277.620    22053280.319
        14.250          15.250
                   -933898.493 5   -727711.985 5  23293048.644    23293051.843
         9.750          10.750
                   5479837.706 6   4269999.880 6  21742367.175    21742369.960
        15.500          17.000
                  -9952235.903 6  -7754984.568 6  21563775.230    21563777.847
        15.750          17.000
 95  4 21 16 26 14.9990000  0  7G 2G18G19G27G28G29G31
                  -5008000.814 5  -3904906.556 5  23306367.847    23306372.792
         9.250          10.750
                  -1019616.388 7   -794506.492 6  20254115.214    20254117.151
        20.000          20.000
                  -4218803.082 6  -3288648.935 6  20514588.683    20514591.034
        19.000          22.000
                 -10781473.901 6  -8417049.263 6  22046777.737    22046780.565
        14.250          15.250
                   -916088.260 5   -713833.905 5  23296438.034    23296441.003
         9.750          10.750
                   5515923.222 6   4298118.448 6  21749234.151    21749236.808
        15.250          17.000
                  -9969487.245 6  -7768427.158 6  21560492.355    21560494.983
        15.750          17.000
 95  4 21 16 26 29.9990000  0  7G 2G18G19G27G28G29G31
                  -5050104.219 5  -3937714.383 5  23298355.886    23298360.714
         9.250          11.000
                  -1003496.445 7   -781945.509 6  20257182.815    20257184.667
        20.000          20.000
                  -4228918.066 6  -3296530.736 6  20512663.933    20512666.214
        19.000          22.000
                 -10815585.208 6  -8443629.495 6  22040286.737    22040289.425
        14.250          15.250
                   -898129.940 5   -699840.425 5  23299855.542    23299858.269
         9.750          10.750
                   5552115.817 6   4326320.453 6  21756121.487    21756124.179
        15.500          16.750
                  -9986579.558 6  -7781745.835 6  21557239.737    21557242.206
        15.750          17.000
 95  4 21 16 26 44.9990000  0  7G 2G18G19G27G28G29G31
                  -5092129.263 5  -3970461.148 5  23290358.706    23290363.288
         9.250          10.750
                   -987238.406 7   -769276.912 6  20260276.480    20260278.499
        20.000          20.000
                  -4238973.022 6  -3304365.769 6  20510750.487    20510752.808
        19.000          22.000
                 -10849652.354 6  -8470175.314 6  22033803.995    22033806.776
        14.250          15.250
                   -880023.923 5   -685731.861 5  23303300.886    23303303.901
         9.750          11.000
                   5588413.824 6   4354604.597 6  21763028.815    21763031.331
        15.250          16.750
                 -10003513.575 6  -7794941.163 6  21554017.222    21554019.815
        15.750          16.750
 95  4 21 16 26 59.9990000  0  7G 2G18G19G27G28G29G31
                  -5134076.380 5  -4003147.193 5  23282376.206    23282381.112
         9.250          11.000
                   -970840.623 7   -756499.427 6  20263396.847    20263398.800
        20.000          20.000
                  -4248966.399 6  -3312152.817 6  20508848.987    20508851.202
        19.000          21.750
                 -10883678.628 6  -8496689.285 6  22027329.089    22027331.843
        14.250          15.500
                   -861772.291 5   -671509.828 5  23306773.901    23306777.097
         9.250          11.000
                   5624813.266 6   4382967.784 6  21769955.261    21769957.749
        15.250          16.500
                 -10020290.498 6  -7808014.078 6  21550824.644    21550827.378
        15.500          17.000
 95  4 21 16 27 14.9990000  0  7G 2G18G19G27G28G29G31
                  -5175940.115 5  -4035768.260 5  23274410.120    23274414.581
         9.500          10.750
                   -954298.304 7   -743609.317 6  20266544.808    20266546.749
        20.000          20.000
                  -4258893.098 6  -3319887.906 6  20506959.956    20506962.108
        19.000          22.000
                 -10917663.712 6  -8523171.158 6  22020861.909    22020864.628
        14.250          15.500
                   -843373.592 5   -657173.202 5  23310275.167    23310278.358
         9.250          10.750
                   5661314.133 6   4411410.000 6  21776901.300    21776903.855
        15.250          16.250
                 -10036906.721 6  -7820961.773 6  21547662.753    21547665.499
        15.750          17.000
 95  4 21 16 27 29.9990000  0  7G 2G18G19G27G28G29G31
                  -5217719.795 5  -4068323.839 5  23266459.433    23266464.409
         9.500          10.750
                   -937609.511 7   -730605.070 6  20269720.472    20269722.452
        20.000          20.250
                  -4268746.131 6  -3327565.593 6  20505085.167    20505087.358
        19.000          22.000
                 -10951607.110 6  -8549620.551 6  22014402.565    22014405.452
        14.000          15.750
                   -824826.682 5   -642721.094 5  23313804.940    23313807.702
         9.500          11.000
                   5697920.624 6   4439934.521 6  21783867.222    21783869.808
        15.250          16.500
                 -10053358.840 6  -7833781.597 6  21544532.144    21544534.737
        15.750          17.000
 95  4 21 16 27 44.9990000  0  7G 2G18G19G27G28G29G31
                  -5259419.449 5  -4100817.055 5  23258524.409    23258528.964
         9.500          10.500
                   -920777.239 7   -717489.020 6  20272923.792    20272925.726
        20.000          20.000
                  -4278527.370 6  -3335187.340 6  20503223.683    20503225.937
        19.000          22.000
                 -10985516.857 6  -8576043.723 6  22007949.839    22007952.608
        14.250          15.750
                   -806133.698 5   -628155.149 5  23317361.753    23317365.140
         9.250          11.000
                   5734633.206 6   4468541.712 6  21790853.464    21790855.855
        15.250          16.250
                 -10069648.971 6  -7846475.197 6  21541432.253    21541434.800
        15.750          17.000
 95  4 21 16 27 59.9990000  0  7G 2G18G19G27G28G29G31
                  -5301043.774 5  -4133251.570 5  23250603.448    23250608.042
         9.750          10.500
                   -903798.863 7   -704259.125 6  20276154.644    20276156.612
        20.000          20.250
                  -4288240.676 6  -3342756.151 6  20501375.362    20501377.655
        19.000          22.000
                 -11019393.096 6  -8602440.774 6  22001503.378    22001506.292
        14.250          16.000
                   -787295.290 5   -613475.885 5  23320946.823    23320949.905
         9.250          11.000
                   5771451.813 6   4497231.516 6  21797859.847    21797862.257
        15.250          16.000
                 -10085779.154 6  -7859044.162 6  21538362.644    21538365.308
        16.000          17.000
 95  4 21 16 28 14.9990000  0  7G 2G18G19G27G28G29G31
                  -5342596.304 5  -4165630.146 5  23242696.183    23242701.026
         9.750          10.500
                   -886674.544 7   -690915.506 6  20279413.347    20279415.257
        20.000          20.000
                  -4297889.026 6  -3350274.345 6  20499539.448    20499541.647
        19.250          22.000
                 -11053239.857 6  -8628814.860 6  21995062.370    21995065.175
        14.250          16.000
                   -768313.151 5   -598684.629 5  23324558.901    23324561.772
         9.500          11.000
                   5808375.499 6   4526003.201 6  21804886.472    21804888.687
        15.250          16.000
                 -10101752.015 6  -7871490.533 6  21535323.120    21535325.808
        15.750          17.000
 95  4 21 16 28 29.9990000  0  7G 2G18G19G27G28G29G31
                  -5384075.537 5  -4197951.613 5  23234803.128    23234807.636
         9.750          10.500
                   -869400.645 7   -677455.333 6  20282700.261    20282702.097
        20.000          20.000
                  -4307468.006 6  -3357738.488 6  20497716.683    20497718.831
        19.000          22.000
                 -11087053.607 6  -8655163.226 6  21988627.886    21988630.687
        14.250          16.000
                   -749183.545 5   -583778.457 5  23328199.495    23328202.069
         9.750          11.000
                   5845410.454 6   4554861.589 6  21811933.862    21811936.249
        15.250          16.250
                 -10117564.845 6  -7883812.208 6  21532314.026    21532316.542
        15.750          17.000
 95  4 21 16 28 44.9990000  0  7G 2G18G19G27G28G29G31
                  -5425483.638 5  -4230217.644 5  23226923.144    23226928.128
         9.750          10.500
                   -851976.957 7   -663878.441 6  20286016.019    20286017.897
        20.000          20.000
                  -4316977.378 6  -3365148.388 6  20495907.003    20495909.253
        19.250          22.000
                 -11120834.645 6  -8681486.102 6  21982199.667    21982202.386
        14.500          16.000
                   -729907.228 5   -568757.975 5  23331867.675    23331870.347
         9.750          10.750
                   5882558.658 6   4583808.223 6  21819002.925    21819005.327
        15.250          16.000
                 -10133216.143 6  -7896008.009 6  21529335.823    21529338.210
        16.000          17.000
 95  4 21 16 28 59.9990000  0  7G 2G18G19G27G28G29G31
                  -5466822.859 5  -4262430.001 5  23219056.753    23219061.120
        10.000          10.250
                   -834402.820 7   -650184.316 6  20289360.261    20289362.144
        20.000          20.000
                  -4326417.625 6  -3372504.425 6  20494110.542    20494112.800
        19.000          22.000
                 -11154585.914 6  -8707785.780 6  21975776.925    21975779.585
        14.500          16.000
                   -710485.232 5   -553623.971 5  23335563.667    23335566.147
        10.000          10.750
                   5919819.028 6   4612842.260 6  21826093.284    21826095.726
        15.000          16.000
                 -10148705.589 6  -7908077.694 6  21526388.245    21526390.780
        16.000          17.250
 95  4 21 16 29 14.9990000  0  7G 2G18G19G27G28G29G31
                  -5508094.212 5  -4294589.474 5  23211202.808    23211207.249
         9.750          10.000
                   -816677.955 6   -636372.744 6  20292733.261    20292735.226
        19.750          20.250
                  -4335789.080 6  -3379806.858 6  20492327.183    20492329.593
        19.000          22.000
                 -11188308.319 6  -8734062.972 6  21969359.933    21969362.433
        14.750          15.750
                   -690917.972 5   -538376.771 5  23339287.019    23339289.870
        10.000          10.750
                   5957189.185 6   4641961.845 6  21833204.503    21833207.034
        15.000          16.000
                 -10164032.446 6  -7920020.687 6  21523471.714    21523474.351
        16.000          17.250
 95  4 21 16 29 29.9990000  0  7G 2G18G19G27G28G29G31
                  -5549299.306 5  -4326697.323 5  23203361.894    23203366.097
         9.750          10.000
                   -798802.248 6   -622443.633 6  20296134.940    20296136.983
        19.750          20.250
                  -4345094.633 6  -3387057.936 6  20490556.440    20490558.937
        19.000          22.250
                 -11221999.905 6  -8760316.142 6  21962948.722    21962951.101
        14.750          15.750
                   -671205.747 5   -523016.610 5  23343038.128    23343040.722
        10.000          10.500
                   5994669.873 6   4671167.562 6  21840336.831    21840339.386
        14.750          15.750
                 -10179198.044 6  -7931838.025 6  21520585.753    21520588.366
        15.750          17.000
 95  4 21 16 29 44.9990000  0  7G 2G18G19G27G28G29G31
                  -5590440.614 5  -4358755.469 5  23195532.855    23195537.323
         9.750          10.000
                   -780778.021 6   -608398.791 6  20299564.769    20299566.644
        19.750          20.250
                  -4354340.263 6  -3394262.323 6  20488796.886    20488799.304
        19.000          22.000
                 -11255662.561 6  -8786546.778 6  21956542.815    21956545.167
        14.750          15.750
                   -651349.795 5   -507544.451 5  23346816.433    23346819.331
         9.750          10.250
                   6032259.635 6   4700458.270 6  21847489.940    21847492.382
        14.750          15.750
                 -10194205.382 6  -7943532.039 6  21517729.878    21517732.511
        16.000          17.000
 95  4 21 16 29 59.9990000  0  7G 2G18G19G27G28G29G31
                  -5631514.562 5  -4390761.128 5  23187717.214    23187721.214
        10.000          10.000
                   -762604.544 6   -594237.650 6  20303023.105    20303025.011
        19.750          20.250
                  -4363528.230 6  -3401421.780 6  20487048.605    20487050.991
        18.750          22.000
                 -11289290.540 6  -8812750.390 6  21950143.597    21950146.026
        14.750          15.500
                   -631349.808 5   -491960.058 5  23350622.409    23350625.292
         9.750          10.250
                   6069955.382 6   4729831.562 6  21854663.355    21854665.851
        14.750          15.750
                 -10209054.071 6  -7955102.431 6  21514904.315    21514906.784
        16.000          17.000
 95  4 21 16 30 14.9990000  0  7G 2G18G19G27G28G29G31
                  -5672516.949 5  -4422711.028 5  23179914.503    23179918.585
        10.000          10.000
                   -744282.062 7   -579960.398 6  20306509.636    20306511.585
        20.000          20.250
                  -4372656.480 6  -3408534.703 6  20485311.495    20485313.761
        18.750          22.000
                 -11322880.672 6  -8838924.507 6  21943751.487    21943754.062
        14.500          15.500
                   -611206.135 5   -476263.699 5  23354455.651    23354458.487
         9.500          10.250
                   6107755.212 6   4759285.958 6  21861856.472    21861858.862
        14.750          15.750
                 -10223743.714 6  -7966548.892 6  21512108.862    21512111.468
        15.750          17.250
 95  4 21 16 30 29.9990000  0  7G 2G18G19G27G28G29G31
                  -5713443.392 5  -4454601.743 5  23172126.315    23172130.456
         9.750          10.250
                   -725814.955 6   -565570.455 6  20310023.964    20310025.874
        19.750          20.250
                  -4381722.546 6  -3415599.174 6  20483586.300    20483588.538
        19.000          21.750
                 -11356433.243 6  -8865069.359 6  21937366.550    21937369.175
        14.500          15.500
                   -590918.566 5   -460455.220 5  23358316.105    23358319.019
         9.500          10.250
                   6145657.667 6   4788820.322 6  21869068.940    21869071.323
        14.750          15.500
                 -10238273.474 6  -7977870.770 6  21509343.800    21509346.562
        15.750          17.250
 95  4 21 16 30 44.9990000  0  7G 2G18G19G27G28G29G31
                  -5754292.177 5  -4486431.943 5  23164352.940    23164357.085
         9.750          10.250
                   -707204.340 7   -551068.683 6  20313565.472    20313567.397
        20.000          20.500
                  -4390727.389 6  -3422615.935 6  20481872.761    20481875.069
        19.000          22.000
                 -11389945.091 6  -8891182.481 6  21930989.565    21930992.054
        14.500          15.750
                   -570486.946 5   -444534.492 5  23362203.995    23362207.050
         9.250          10.250
                   6183663.952 6   4818435.597 6  21876301.206    21876303.632
        14.750          15.500
                 -10252641.807 6  -7989066.860 6  21506609.573    21506612.319
        15.750          17.250
 95  4 21 16 30 59.9990000  0  7G 2G18G19G27G28G29G31
                  -5795061.663 5  -4518200.356 5  23156595.042    23156598.968
        10.000          10.500
                   -688450.669 7   -536455.440 6  20317134.237    20317136.245
        20.000          20.500
                  -4399673.308 6  -3429586.784 6  20480170.401    20480172.683
        19.000          22.000
                 -11423415.822 6  -8917263.561 6  21924620.386    21924622.894
        14.500          15.750
                   -549912.304 5   -428502.317 5  23366119.308    23366121.948
         9.250          10.250
                   6221770.393 6   4848128.907 6  21883552.862    21883555.331
        14.750          15.500
                 -10266850.766 6  -8000138.770 6  21503905.870    21503908.370
        16.000          17.250
 95  4 21 16 31 14.9990000  0  7G 2G18G19G27G28G29G31
                  -5835747.923 5  -4549903.920 5  23148852.331    23148856.546
         9.750          10.500
                   -669554.143 7   -521730.890 6  20320730.144    20320732.116
        20.000          20.500
                  -4408559.014 6  -3436510.713 6  20478479.534    20478481.925
        19.000          22.000
                 -11456842.208 6  -8943310.088 6  21918259.503    21918261.952
        14.750          15.750
                   -529194.159 5   -412358.324 5  23370061.886    23370064.687
         9.250          10.250
                   6259977.155 6   4877900.392 6  21890823.519    21890825.886
        14.750          15.500
                 -10280901.175 6  -8011087.132 6  21501232.128    21501234.546
        16.000          17.000
 95  4 21 16 31 29.9990000  0  7G 2G18G19G27G28G29G31
                  -5876351.046 5  -4581542.692 5  23141125.831    23141130.241
         9.750          10.500
                   -650517.906 6   -506897.466 6  20324352.565    20324354.530
        19.750          20.500
                  -4417387.955 6  -3443390.406 6  20476799.534    20476801.862
        19.000          22.000
                 -11490222.359 6  -8969320.587 6  21911907.503    21911909.894
        14.750          15.750
                   -508334.793 5   -396104.290 5  23374031.292    23374034.218
         9.000          10.500
                   6298284.006 6   4907749.865 6  21898112.815    21898115.390
        14.750          15.500
                 -10294796.497 6  -8021914.646 6  21498587.987    21498590.433
        16.000          17.250
 95  4 21 16 31 44.9990000  0  7G 2G18G19G27G28G29G31
                  -5916874.800 5  -4613119.620 5  23133414.276    23133418.550
         9.750          10.500
                   -631347.226 7   -491959.283 6  20328000.769    20328002.765
        20.000          20.500
                  -4426162.521 6  -3450227.732 6  20475129.659    20475132.144
        19.000          22.250
                 -11523558.354 6  -8995296.678 6  21905563.769    21905566.292
        14.750          15.750
                   -487336.521 5   -379742.017 5  23378027.292    23378030.218
         9.250          11.000
                   6336690.303 6   4937676.831 6  21905421.487    21905424.155
        14.500          15.250
                 -10308536.033 6  -8032620.766 6  21495973.519    21495976.007
        16.000          17.250
 95  4 21 16 31 59.9990000  0  7G 2G18G19G27G28G29G31
                  -5957316.310 5  -4644632.463 5  23125718.620    23125722.882
        10.000          10.750
                   -612042.455 6   -476916.610 6  20331674.206    20331676.308
        19.750          20.500
                  -4434876.051 6  -3457017.499 6  20473471.456    20473474.073
        18.750          22.000
                 -11556847.917 6  -9021236.587 6  21899228.870    21899231.448
        14.750          15.750
                   -466196.905 5   -363269.606 5  23382049.847    23382053.022
         9.250          11.000
                   6375194.308 6   4967679.934 6  21912748.448    21912751.183
        14.500          15.250
                 -10322113.827 6  -8043200.853 6  21493389.659    21493392.124
        16.000          17.250
 95  4 21 16 32 14.9990000  0  7G 2G18G19G27G28G29G31
                  -5997679.300 5  -4676084.123 5  23118037.722    23118042.112
        10.000          11.000
                   -592603.463 6   -461769.354 6  20335373.245    20335375.304
        19.750          20.750
                  -4443525.940 6  -3463757.678 6  20471825.347    20471827.823
        18.750          22.000
                 -11590090.287 6  -9047139.723 6  21892903.136    21892905.507
        14.750          15.750
                   -444916.928 5   -346687.817 5  23386099.472    23386102.722
         9.500          11.250
                   6413795.422 6   4997758.713 6  21920094.011    21920096.679
        14.500          15.250
                 -10335528.454 6  -8053653.795 6  21490836.878    21490839.237
        16.000          17.000
 95  4 21 16 32 29.9990000  0  7G 2G18G19G27G28G29G31
                  -6037966.438 5  -4707476.671 5  23110371.237    23110375.831
        10.250          11.000
                   -573030.653 6   -446517.825 6  20339097.894    20339099.980
        19.750          20.500
                  -4452113.376 6  -3470449.190 6  20470191.331    20470193.690
        18.750          21.750
                 -11623287.169 6  -9073007.418 6  21886586.019    21886588.448
        14.750          15.750
                   -423495.881 5   -329996.107 5  23390175.839    23390179.007
        10.000          11.500
                   6452493.270 6   5027912.863 6  21927457.995    21927460.538
        14.500          15.000
                 -10348779.148 6  -8063978.997 6  21488315.503    21488317.444
        16.000          16.750
 95  4 21 16 32 44.9990000  0  7G 2G18G19G27G28G29G31
                  -6078180.681 5  -4738812.422 5  23102718.628    23102723.265
        10.500          10.750
                   -553322.026 6   -431160.466 6  20342848.323    20342850.390
        19.500          20.750
                  -4460639.157 6  -3477092.657 6  20468569.144    20468571.429
        18.750          21.750
                 -11656436.267 6  -9098837.875 6  21880277.753    21880280.190
        14.750          15.750
                   -401933.066 5   -313193.936 5  23394279.292    23394282.397
        10.000          11.750
                   6491290.858 6   5058144.734 6  21934840.925    21934843.397
        14.250          15.000
                 -10361865.475 6  -8074176.122 6  21485825.097    21485827.202
        16.000          16.750
 95  4 21 16 32 59.9990000  0  7G 2G18G19G27G28G29G31
                  -6118326.561 5  -4770094.907 5  23095079.355    23095083.831
        10.500          11.000
                   -533475.088 6   -415695.331 6  20346624.987    20346627.179
        19.500          20.500
                  -4469105.245 6  -3483689.611 6  20466958.206    20466960.351
        19.000          21.750
                 -11689540.070 6  -9124633.038 6  21873978.448    21873980.964
        14.750          15.750
                   -380230.107 5   -296282.547 5  23398409.105    23398412.187
        10.250          11.750
                   6530185.985 6   5088452.607 6  21942242.519    21942244.862
        14.500          14.750
                 -10374789.914 6  -8084247.097 6  21483365.651    21483367.866
        16.000          16.750
 95  4 21 16 33 14.9990000  0  7G 2G18G19G27G28G29G31
                  -6158406.154 5  -4801325.739 5  23087452.347    23087456.890
        10.750          11.250
                   -513491.221 6   -400123.498 6  20350427.730    20350429.901
        19.500          20.500
                  -4477511.172 6  -3490239.685 6  20465358.464    20465360.733
        19.000          21.750
                 -11722601.807 6  -9150395.424 6  21867686.823    21867689.394
        14.500          15.750
                   -358387.700 5   -279262.503 6  23402565.651    23402568.839
        10.750          12.000
                   6569176.651 6   5118834.922 6  21949662.167    21949664.589
        14.250          14.750
                 -10387552.421 6  -8094191.897 6  21480937.026    21480939.335
        16.000          17.000
 95  4 21 16 33 29.9990000  0  7G 2G18G19G27G28G29G31
                  -6198421.246 5  -4832506.308 5  23079837.776    23079842.296
        10.750          11.000
                   -493370.189 6   -384444.780 6  20354256.550    20354258.929
        19.250          20.750
                  -4485853.577 6  -3496740.259 6  20463770.901    20463773.257
        19.000          21.750
                 -11755622.330 6  -9176125.693 6  21861403.315    21861405.878
        14.750          15.750
                   -336404.699 5   -262132.902 5  23406748.933    23406751.827
        10.750          11.750
                   6608263.881 6   5149292.487 6  21957100.300    21957102.577
        14.250          14.750
                 -10400151.023 6  -8104008.977 6  21478539.644    21478542.019
        16.000          17.000
 95  4 21 16 33 44.9990000  0  7G 2G18G19G27G28G29G31
                  -6238378.878 5  -4863642.106 5  23072234.105    23072238.245
        11.000          11.000
                   -473115.540 6   -368661.946 6  20358110.980    20358113.257
        19.500          20.750
                  -4494135.056 6  -3503193.362 6  20462194.995    20462197.358
        18.750          21.750
                 -11788607.881 6  -9201828.713 6  21855126.308    21855128.835
        14.750          16.000
                   -314284.419 5   -244896.334 5  23410958.292    23410961.003
        10.500          11.500
                   6647441.302 6   5179820.326 6  21964555.394    21964557.866
        14.250          14.750
                 -10412588.487 6  -8113700.495 6  21476172.644    21476175.019
        15.750          17.000
 95  4 21 16 33 59.9990000  0  7G 2G18G19G27G28G29G31
                  -6278276.758 5  -4894731.347 5  23064641.894    23064646.034
        11.000          10.750
                   -452724.418 6   -352772.769 6  20361991.245    20361993.499
        19.250          20.750
                  -4502351.193 6  -3509595.547 6  20460631.526    20460633.882
        18.750          21.750
                 -11821558.207 6  -9227504.286 6  21848856.222    21848858.812
        14.750          16.000
                   -292024.406 5   -227550.882 5  23415194.151    23415197.011
        10.250          11.500
                   6686708.131 6   5210417.842 6  21972027.612    21972030.296
        14.250          14.750
                 -10424862.934 6  -8123264.989 6  21473836.769    21473839.312
        15.750          17.000
 95  4 21 16 34 14.9990000  0  7G 2G18G19G27G28G29G31
                  -6318112.587 5  -4925772.240 5  23057061.558    23057065.698
        11.250          11.000
                   -432195.046 6   -336775.860 6  20365897.894    20365900.140
        19.250          20.750
                  -4510505.413 6  -3515949.481 6  20459079.761    20459082.175
        18.750          21.750
                 -11854475.117 6  -9253153.813 6  21842592.183    21842594.772
        14.750          16.000
                   -269627.225 5   -210098.546 5  23419456.050    23419459.026
        10.000          11.000
                   6726064.126 6   5241084.834 6  21979516.714    21979519.440
        14.250          14.750
                 -10436980.737 6  -8132707.419 6  21471531.034    21471533.519
        15.750          17.250
 95  4 21 16 34 29.9990000  0  7G 2G18G19G27G28G29G31
                  -6357882.575 5  -4956761.826 5  23049493.308    23049497.827
        11.000          11.000
                   -411525.347 6   -320669.612 6  20369831.355    20369833.507
        19.250          20.750
                  -4518597.650 6  -3522255.120 6  20457539.862    20457542.339
        18.500          21.750
                 -11887359.887 6  -9278778.300 6  21836334.417    21836337.030
        15.000          16.250
                   -247091.034 5   -192537.895 5  23423744.589    23423747.655
         9.750          10.750
                   6765514.932 6   5271825.704 6  21987024.050    21987026.772
        14.000          14.750
                 -10448941.443 6  -8142027.445 6  21469255.308    21469257.714
        16.000          17.250
 95  4 21 16 34 44.9990000  0  7G 2G18G19G27G28G29G31
                  -6397583.436 5  -4987697.538 5  23041938.558    23041942.972
        11.250          11.000
                   -390715.677 6   -304454.292 6  20373791.214    20373793.261
        19.250          20.750
                  -4526629.606 6  -3528513.784 6  20456011.480    20456013.858
        18.500          21.750
                 -11920217.353 6  -9304381.509 6  21830082.003    21830084.628
        15.000          16.250
                   -224416.731 5   -174869.623 5  23428059.253    23428062.261
         9.500          10.250
                   6805063.683 6   5302642.896 6  21994549.925    21994552.730
        14.000          14.750
                 -10460745.588 6  -8151225.467 6  21467009.050    21467011.448
        16.250          17.500
 95  4 21 16 34 59.9990000  0  7G 2G18G19G27G28G29G31
                  -6437211.714 5  -5018576.704 5  23034397.808    23034401.765
        11.250          11.000
                   -369763.903 6   -288128.245 6  20377778.386    20377780.581
        19.250          20.750
                  -4534600.500 6  -3534724.877 6  20454494.573    20454497.105
        18.500          21.750
                 -11953048.925 6  -9329964.541 6  21823834.339    21823836.940
        15.000          16.500
                   -201603.781 5   -157093.308 5  23432400.378    23432403.183
         9.250          10.000
                   6844714.618 6   5333539.711 6  22002095.347    22002098.112
        14.250          14.750
                 -10472391.043 6  -8160299.835 6  21464793.019    21464795.347
        16.250          17.500
 95  4 21 16 35 14.9990000  0  7G 2G18G19G27G28G29G31
                  -6476762.355 5  -5049395.371 5  23026871.487    23026875.519
        11.000          11.000
                   -348671.026 6   -271692.247 6  20381792.112    20381794.206
        19.500          20.750
                  -4542510.248 6  -3540888.315 6  20452989.401    20452991.894
        18.500          21.750
                 -11985858.499 6  -9355530.434 6  21817590.862    21817593.417
        15.250          16.500
                   -178652.474 5   -139209.191 5  23436768.034    23436770.640
         9.500           9.750
                   6884465.177 6   5364514.159 6  22009659.558    22009662.339
        14.000          14.750
                 -10483876.321 6  -8169249.391 6  21462607.198    21462609.628
        16.250          17.250
 95  4 21 16 35 29.9990000  0  7G 2G18G19G27G28G29G31
                  -6516231.999 5  -5080150.926 5  23019360.550    23019364.628
        11.000          11.000
                   -327439.173 6   -255147.958 6  20385832.480    20385834.394
        19.500          20.750
                  -4550359.002 6  -3547004.230 6  20451495.909    20451498.194
        18.500          21.500
                 -12018645.178 6  -9381078.481 6  21811351.917    21811354.491
        15.000          16.500
                   -155563.840 5   -121218.060 5  23441161.667    23441164.272
         9.500           9.500
                   6924316.997 6   5395567.504 6  22017243.144    22017245.929
        14.000          14.750
                 -10495202.423 6  -8178074.919 6  21460452.011    21460454.198
        16.250          17.250
 95  4 21 16 35 44.9990000  0  7G 2G18G19G27G28G29G31
                  -6555618.129 5  -5110841.400 5  23011865.706    23011869.769
        11.250          11.250
                   -306068.451 6   -238495.455 6  20389899.159    20389901.218
        19.250          20.500
                  -4558147.133 6  -3553072.903 6  20450013.956    20450016.284
        18.500          21.250
                 -12051406.927 6  -9406607.105 6  21805117.448    21805119.991
        15.000          16.500
                   -132338.381 5   -103120.307 5  23445581.198    23445584.105
         9.500           9.000
                   6964269.864 6   5426699.591 6  22024845.948    22024848.702
        14.000          14.750
                 -10506368.083 6  -8186775.422 6  21458327.230    21458329.433
        16.500          17.500
 95  4 21 16 35 59.9990000  0  7G 2G18G19G27G28G29G31
                  -6594917.561 5  -5141464.317 5  23004387.159    23004391.327
        11.000          11.250
                   -284558.099 6   -221734.154 6  20393992.706    20393994.722
        19.500          20.500
                  -4565876.247 6  -3559095.589 6  20448543.151    20448545.417
        18.500          21.250
                 -12084140.326 6  -9432113.640 6  21798888.401    21798891.069
        15.250          16.500
                   -108975.234 5    -84915.258 5  23450027.409    23450029.722
         9.750           9.000
                   7004326.450 6   5457912.495 6  22032468.519    22032471.151
        14.000          14.750
                 -10517369.319 6  -8195347.807 6  21456233.722    21456235.995
        16.250          17.500
 95  4 21 16 36 14.9990000  0  7G 2G18G19G27G28G29G31
                  -6634129.044 5  -5172018.705 5  22996925.683    22996929.690
        11.250          11.250
                   -262908.596 6   -204864.423 6  20398112.269    20398114.319
        19.250          20.500
                  -4573548.520 6  -3565073.982 6  20447083.097    20447085.440
        18.500          21.500
                 -12116843.637 6  -9457596.727 6  21792665.190    21792667.890
        15.250          16.750
                    -85475.404 5    -66603.698 5  23454499.253    23454501.542
         9.750           9.250
                   7044488.141 6   5489207.302 6  22040110.956    22040113.749
        14.000          14.750
                 -10528206.870 6  -8203792.642 6  21454171.261    21454173.683
        16.250          17.500
 95  4 21 16 36 29.9990000  0  7G 2G18G19G27G28G29G31
                  -6673254.126 5  -5202505.778 5  22989480.315    22989484.331
        11.250          11.500
                   -241124.945 6   -187890.160 6  20402257.565    20402259.667
        19.250          20.500
                  -4581164.650 6  -3571008.628 6  20445633.690    20445636.026
        18.500          21.500
                 -12149517.609 6  -9483056.955 6  21786447.448    21786450.120
        15.250          16.500
                    -61840.340 5    -48186.764 5  23458996.925    23458999.179
        10.000           9.250
                   7084754.980 6   5520584.038 6  22047773.542    22047776.233
        14.000          14.500
                 -10538881.436 6  -8212110.477 6  21452139.870    21452142.366
        16.250          17.500
 95  4 21 16 36 44.9990000  0  7G 2G18G19G27G28G29G31
                  -6712294.953 5  -5232927.183 5  22982050.839    22982055.206
        11.250          11.750
                   -219209.721 6   -170813.373 6  20406427.917    20406429.983
        19.250          20.500
                  -4588723.938 6  -3576898.984 6  20444195.151    20444197.581
        18.500          21.250
                 -12182162.844 6  -9508494.789 6  21780235.480    21780238.163
        15.500          16.750
                    -38070.680 5    -29664.957 5  23463520.136    23463522.667
         9.750           9.500
                   7125121.866 6   5552038.735 6  22055455.292    22055457.855
        14.000          14.500
                 -10549390.977 6  -8220299.720 6  21450140.019    21450142.655
        16.000          17.500
 95  4 21 16 36 59.9990000  0  7G 2G18G19G27G28G29G31
                  -6751251.547 5  -5263282.960 5  22974637.730    22974641.925
        11.250          11.750
                   -197162.655 6   -153633.851 6  20410623.245    20410625.433
        19.250          20.500
                  -4596226.065 6  -3582744.797 6  20442767.589    20442770.046
        18.500          21.250
                 -12214771.043 6  -9533903.768 6  21774030.284    21774033.003
        15.500          16.750
                    -14165.285 5    -11037.383 5  23468069.105    23468071.417
         9.750           9.500
                   7165586.159 6   5583569.338 6  22063155.401    22063157.929
        14.000          14.500
                 -10559733.719 6  -8228358.994 6  21448172.065    21448174.401
        16.000          17.500
 95  4 21 16 37 14.9990000  0  7G 2G18G19G27G28G29G31
                  -6790126.040 5  -5293574.759 6  22967239.972    22967244.495
        11.250          12.000
                   -174985.831 6   -136353.219 6  20414843.323    20414845.409
        19.250          20.750
                  -4603667.932 6  -3588543.654 6  20441351.394    20441353.788
        18.500          21.500
                 -12247338.583 6  -9559281.066 6  21767832.925    21767835.589
        15.750          16.750
                      9876.077 5      7696.145 5  23472644.089    23472646.542
         9.750           9.750
                   7206142.899 6   5615171.970 6  22070873.042    22070875.421
        14.000          14.500
                 -10569910.381 6  -8236288.859 6  21446235.480    21446237.812
        16.250          17.500
 95  4 21 16 37 29.9990000  0  7G 2G18G19G27G28G29G31
                  -6828920.847 5  -5323804.461 6  22959857.659    22959862.054
        11.500          12.000
                   -152680.639 6   -118972.562 6  20419087.948    20419089.999
        19.000          20.750
                  -4611048.098 6  -3594294.434 6  20439946.878    20439949.417
        18.250          21.250
                 -12279861.579 6  -9584623.653 6  21761644.120    21761646.577
        15.750          17.000
                     34053.096 5     26535.377 5  23477244.628    23477247.468
         9.250          10.000
                   7246791.035 6   5646845.829 6  22078608.433    22078610.800
        14.000          14.250
                 -10579921.791 6  -8244089.951 6  21444330.105    21444332.585
        16.000          17.750
 95  4 21 16 37 44.9990000  0  7G 2G18G19G27G28G29G31
                  -6867640.497 5  -5353975.604 6  22952489.659    22952494.042
        11.500          12.000
                   -130247.191 6   -101491.961 6  20423356.894    20423358.999
        19.000          20.500
                  -4618366.980 6  -3599997.459 6  20438554.308    20438556.929
        18.500          21.250
                 -12312335.342 6  -9609927.875 6  21755464.503    21755466.913
        15.750          17.000
                     58365.831 5     45480.361 5  23481871.034    23481874.296
         9.250          10.250
                   7287531.760 6   5678591.820 6  22086360.972    22086363.495
        13.750          14.250
                 -10589766.889 6  -8251761.449 6  21442456.776    21442459.249
        16.000          17.750
 95  4 21 16 37 59.9990000  0  7G 2G18G19G27G28G29G31
                  -6906286.637 5  -5384089.465 6  22945135.386    22945139.761
        11.500          12.250
                   -107684.804 6    -83910.888 6  20427650.409    20427652.519
        19.000          20.750
                  -4625623.707 6  -3605652.051 6  20437173.425    20437175.964
        18.500          21.250
                 -12344759.407 6  -9635193.370 6  21749294.378    21749296.862
        15.750          17.250
                     82815.318 5     64531.903 5  23486523.714    23486526.847
         9.250          10.250
                   7328365.222 6   5710410.077 6  22094131.394    22094133.858
        13.750          14.250
                 -10599444.300 6  -8259302.282 6  21440615.308    21440617.808
        16.250          17.750
 95  4 21 16 38 14.9990000  0  7G 2G18G19G27G28G29G31
                  -6944863.353 5  -5414149.231 6  22937794.487    22937798.761
        11.750          12.250
                    -84995.038 6    -66230.560 6  20431968.120    20431970.167
        19.000          20.750
                  -4632818.292 6  -3611258.220 6  20435804.401    20435806.847
        18.500          21.250
                 -12377138.657 6  -9660423.944 6  21743132.839    21743135.456
        15.500          17.250
                    107399.387 5     83688.315 5  23491202.042    23491205.003
         9.000          10.250
                   7369290.577 6   5742299.943 6  22101919.261    22101921.827
        13.750          14.250
                 -10608959.008 6  -8266716.334 6  21438804.761    21438807.062
        16.250          17.750
 95  4 21 16 38 29.9990000  0  7G 2G18G19G27G28G29G31
                  -6983368.653 5  -5444153.346 6  22930467.034    22930471.667
        11.750          12.250
                    -62175.847 6    -48449.383 6  20436310.589    20436312.632
        19.000          20.750
                  -4639947.273 6  -3616813.269 6  20434447.862    20434450.347
        18.500          21.500
                 -12409474.477 6  -9685620.677 6  21736979.386    21736982.253
        15.500          17.500
                    132118.914 5    102950.276 5  23495906.089    23495908.901
         9.000          10.500
                   7410308.256 6   5774261.750 6  22109724.636    22109727.343
        13.500          14.500
                 -10618311.188 6  -8274003.743 6  21437025.065    21437027.374
        16.250          17.750
 95  4 21 16 38 44.9990000  0  7G 2G18G19G27G28G29G31
                  -7021805.064 5  -5474103.781 6  22923153.042    22923157.339
        11.750          12.250
                    -39227.667 6    -30567.695 6  20440677.472    20440679.433
        19.000          20.750
                  -4647011.638 6  -3622317.968 6  20433103.503    20433105.890
        18.500          21.500
                 -12441768.587 6  -9710784.906 6  21730834.097    21730836.968
        15.500          17.500
                    156971.677 5    122316.061 5  23500635.144    23500638.358
         8.500          10.500
                   7451414.012 6   5806292.193 6  22117546.519    22117549.401
        13.500          14.250
                 -10627501.587 6  -8281165.087 6  21435276.409    21435278.710
        16.250          17.750
 95  4 21 16 38 59.9990000  0  7G 2G18G19G27G28G29G31
                  -7060168.900 5  -5503997.670 6  22915852.519    22915857.007
        11.750          12.250
                    -16142.264 6    -12579.079 6  20445070.480    20445072.472
        19.250          20.750
                  -4654008.409 6  -3627769.993 6  20431771.956    20431774.417
        18.500          21.500
                 -12474014.717 6  -9735911.757 6  21724697.769    21724700.593
        15.500          17.750
                    181962.035 5    141789.058 5  23505390.526    23505393.948
         8.250          10.500
                   7492613.318 6   5838395.532 6  22125386.581    22125389.413
        13.500          14.250
                 -10636524.394 6  -8288195.835 6  21433559.253    21433561.222
        16.250          17.500
 95  4 21 16 39 14.9990000  0  7G 2G18G19G27G28G29G31
                  -7098464.794 5  -5533838.611 6  22908565.190    22908569.483
        11.750          12.250
                      7079.178 6      5515.543 6  20449489.472    20449491.401
        19.000          21.000
                  -4660940.264 6  -3633171.436 6  20430452.909    20430455.382
        18.500          21.500
                 -12506216.949 6  -9761004.395 6  21718569.972    21718572.675
        15.500          17.750
                    207086.541 5    161366.585 5  23510171.573    23510175.093
         8.000          10.250
                   7533905.869 6   5870571.526 6  22133244.394    22133247.144
        13.500          14.000
                 -10645384.928 6  -8295100.143 6  21431873.175    21431875.112
        16.500          17.500
 95  4 21 16 39 29.9990000  0  7G 2G18G19G27G28G29G31
                  -7136695.034 5  -5563628.393 6  22901290.089    22901294.444
        11.750          12.250
                     30436.441 6     23715.996 6  20453934.144    20453936.089
        19.000          21.000
                  -4667807.657 6  -3638522.648 6  20429145.987    20429148.452
        18.250          21.500
                 -12538381.343 6  -9786067.552 6  21712449.323    21712452.140
        15.500          17.750
                    232341.722 5    181045.945 5  23514977.659    23514980.644
         8.000          10.000
                   7575292.234 6   5902820.626 6  22141119.730    22141122.687
        13.250          13.750
                 -10654087.350 6  -8301881.243 6  21430217.042    21430218.995
        16.250          17.250
 95  4 21 16 39 44.9990000  0  7G 2G18G19G27G28G29G31
                  -7174851.332 5  -5593360.561 6  22894029.159    22894033.480
        11.750          12.250
                     53937.244 6     42028.301 6  20458406.105    20458408.062
        19.000          21.000
                  -4674607.089 6  -3643820.902 6  20427852.159    20427854.722
        18.250          21.250
                 -12570502.706 6  -9811097.177 6  21706336.745    21706339.480
        15.500          17.750
                    257732.086 5    200830.629 5  23519809.097    23519812.124
         7.750           9.750
                   7616777.914 6   5935147.111 6  22149014.206    22149017.183
        13.250          14.000
                 -10662625.469 6  -8308534.315 6  21428592.300    21428594.464
        16.250          17.250
 95  4 21 16 39 59.9990000  0  7G 2G18G19G27G28G29G31
                  -7212935.141 5  -5623036.237 6  22886782.058    22886786.331
        11.750          12.000
                     77580.095 6     60451.293 6  20462905.269    20462907.304
        19.000          21.000
                  -4681342.365 6  -3649069.165 6  20426570.573    20426573.108
        18.250          21.500
                 -12602588.598 6  -9836099.159 6  21700230.948    21700233.858
        15.500          17.750
                    283254.058 5    220717.868 5  23524665.737    23524668.858
         7.500           9.750
                   7658356.663 6   5967546.112 6  22156926.480    22156929.452
        13.250          14.000
                 -10671001.801 6  -8315061.323 6  21426998.339    21427000.358
        16.250          17.250
 95  4 21 16 40 14.9990000  0  7G 2G18G19G27G28G29G31
                  -7250941.063 5  -5652651.225 6  22879549.933    22879554.237
        11.750          12.000
                    101372.178 6     78990.569 6  20467432.612    20467434.757
        18.750          21.000
                  -4688007.038 6  -3654262.418 6  20425302.206    20425304.870
        18.250          21.500
                 -12634637.549 6  -9861072.366 6  21694132.073    21694135.026
        15.250          17.750
                    308912.616 5    240711.540 5  23529548.628    23529551.714
         7.500           9.500
                   7700033.372 6   6000021.451 6  22164857.339    22164860.042
        13.250          13.750
                 -10679210.419 6  -8321457.640 6  21425436.378    21425438.448
        16.250          17.250
 95  4 21 16 40 29.9990000  0  7G 2G18G19G27G28G29G31
                  -7288870.209 5  -5682206.378 6  22872331.917    22872336.401
        11.500          12.000
                    125312.919 6     97645.683 6  20471988.472    20471990.585
        18.750          21.000
                  -4694605.759 6  -3659404.279 6  20424046.659    20424049.358
        18.500          21.500
                 -12666650.140 6  -9886017.233 6  21688040.315    21688043.257
        15.250          17.750
                    334705.068 5    260809.539 5  23534456.909    23534459.601
         7.750           9.000
                   7741803.693 6   6032569.739 6  22172806.089    22172808.870
        13.250          13.750
                 -10687253.494 6  -8327724.966 6  21423905.776    21423907.847
        16.000          17.500
 95  4 21 16 40 44.9990000  0  7G 2G18G19G27G28G29G31
                  -7326724.337 5  -5711703.092 6  22865128.651    22865132.894
        11.750          12.000
                    149400.911 6    116415.535 6  20476572.136    20476574.304
        18.750          21.000
                  -4701140.789 6  -3664496.510 6  20422802.940    20422805.464
        18.500          21.500
                 -12698624.226 6  -9910932.097 6  21681955.925    21681958.819
        15.500          18.000
                    360630.656 5    281011.290 5  23539390.308    23539392.909
         8.000           8.750
                   7783664.930 6   6065188.867 6  22180771.980    22180775.003
        13.250          13.750
                 -10695131.167 6  -8333863.401 6  21422406.511    21422408.792
        16.250          17.500
 95  4 21 16 40 59.9990000  0  7G 2G18G19G27G28G29G31
                  -7364504.010 5  -5741141.772 6  22857939.394    22857943.667
        11.500          12.000
                    173633.718 6    135298.230 6  20481183.620    20481185.745
        18.750          21.000
                  -4707613.403 6  -3669540.105 6  20421571.362    20421573.870
        18.500          21.250
                 -12730560.778 6  -9935817.717 6  21675878.534    21675881.343
        15.500          18.000
                    386689.195 5    301316.640 5  23544348.956    23544351.788
         8.250           8.750
                   7825616.344 6   6097878.264 6  22188755.183    22188758.261
        13.000          14.000
                 -10702844.118 6  -8339873.488 6  21420938.761    21420941.101
        16.250          17.500
 95  4 21 16 41 14.9990000  0  7G 2G18G19G27G28G29G31
                  -7402208.654 5  -5770521.997 6  22850764.433    22850768.624
        11.500          12.000
                    198010.753 6    154293.315 6  20485822.386    20485824.679
        18.500          21.250
                  -4714021.063 6  -3674533.086 6  20420352.128    20420354.522
        18.500          21.500
                 -12762462.253 6  -9960676.002 6  21669807.894    21669810.565
        15.500          18.000
                    412882.073 5    321726.670 5  23549333.651    23549336.124
         8.500           8.500
                   7867661.289 6   6130640.541 6  22196756.050    22196759.362
        13.000          14.000
                 -10710392.375 6  -8345755.242 6  21419502.448    21419504.671
        16.000          17.750
 95  4 21 16 41 29.9990000  0  7G 2G18G19G27G28G29G31
                  -7439837.300 5  -5799843.005 6  22843603.730    22843608.101
        11.500          12.000
                    222526.570 6    173396.540 6  20490487.534    20490489.776
        18.500          21.250
                  -4720364.608 6  -3679476.107 6  20419144.823    20419147.300
        18.500          21.250
                 -12794333.276 6  -9985510.559 6  21663743.097    21663745.831
        15.500          18.000
                    439207.296 5    342239.828 5  23554343.175    23554346.069
         8.750           8.500
                   7909797.277 6   6163473.755 6  22204774.183    22204777.347
        12.750          13.750
                 -10717777.857 6  -8351510.162 6  21418097.245    21418099.577
        16.000          17.750
 95  4 21 16 41 44.9990000  0  7G 2G18G19G27G28G29G31
                  -7477383.176 5  -5829099.514 6  22836458.956    22836463.218
        11.500          12.000
                    247180.633 6    192607.489 6  20495179.237    20495181.405
        18.500          21.000
                  -4726644.460 6  -3684369.498 6  20417949.980    20417952.253
        18.500          21.250
                 -12826172.880 6 -10010320.631 6  21657684.128    21657686.788
        15.500          18.000
                    465667.513 5    362858.176 5  23559378.440    23559381.015
         9.000           8.500
                   7952024.072 6   6196377.727 6  22212809.722    22212812.585
        13.000          13.750
                 -10724996.163 6  -8357134.813 6  21416723.401    21416725.929
        16.000          18.000
 95  4 21 16 41 59.9990000  0  7G 2G18G19G27G28G29G31
                  -7514852.273 5  -5858296.195 6  22829328.940    22829333.233
        11.500          12.000
                    271965.744 6    211920.554 6  20499895.581    20499897.874
        18.500          21.250
                  -4732867.970 6  -3689218.986 6  20416765.558    20416768.019
        18.500          21.000
                 -12857986.293 6 -10035110.296 6  21651630.237    21651633.046
        15.500          18.000
                    492258.548 5    383578.463 5  23564438.409    23564441.167
         9.000           8.500
                   7994336.371 6   6229348.324 6  22220861.589    22220864.417
        13.000          13.750
                 -10732051.676 6  -8362632.610 6  21415380.808    21415383.378
        16.000          18.000
 95  4 21 16 42 14.9990000  0  7G 2G18G19G27G28G29G31
                  -7552245.216 5  -5887433.531 6  22822213.355    22822217.675
        11.500          12.250
                    296882.701 6    231336.353 6  20504637.128    20504639.386
        18.500          21.000
                  -4739030.843 6  -3694021.222 6  20415592.714    20415595.288
        18.250          21.000
                 -12889770.289 6 -10059877.038 6  21645581.980    21645584.769
        15.500          18.250
                    518984.082 5    404403.546 5  23569524.183    23569526.605
         9.000           8.750
                   8036739.523 6   6262389.728 6  22228930.644    22228933.413
        12.750          13.750
                 -10738942.398 6  -8368002.003 6  21414069.519    21414072.194
        16.000          18.250
 95  4 21 16 42 29.9990000  0  7G 2G18G19G27G28G29G31
                  -7589562.317 5  -5916511.773 6  22815111.933    22815116.456
        11.500          12.250
                    321926.981 6    250851.370 6  20509402.925    20509405.237
        18.500          21.250
                  -4745135.422 6  -3698778.038 6  20414430.894    20414433.456
        18.250          21.000
                 -12921521.498 6 -10084618.231 6  21639539.980    21639542.819
        15.500          18.000
                    545842.291 5    425332.024 5  23574634.956    23574637.448
         9.000           8.750
                   8079232.880 6   6295501.409 6  22237016.933    22237019.663
        12.750          13.500
                 -10745673.716 6  -8373247.184 6  21412788.675    21412791.226
        16.000          18.250
 95  4 21 16 42 44.9990000  0  7G 2G18G19G27G28G29G31
                  -7626801.252 5  -5945529.111 6  22808025.698    22808030.132
        11.500          12.500
                    347097.140 6    270464.471 6  20514192.573    20514194.753
        18.500          21.250
                  -4751181.237 6  -3703489.061 6  20413280.519    20413283.050
        18.250          21.000
                 -12953237.617 6 -10109332.083 6  21633504.519    21633507.327
        15.500          18.250
                    572833.671 5    446364.259 5  23579771.175    23579774.128
         9.250           9.500
                   8121818.296 6   6328684.829 6  22245120.581    22245123.300
        12.750          13.500
                 -10752245.898 6  -8378368.360 6  21411537.956    21411540.573
        16.000          18.250
 95  4 21 16 42 59.9990000  0  7G 2G18G19G27G28G29G31
                  -7663962.442 5  -5974485.864 6  22800954.151    22800958.687
        11.500          12.500
                    372390.490 6    290173.565 6  20519005.972    20519008.257
        18.500          21.000
                  -4757166.724 6  -3708153.083 6  20412141.534    20412144.077
        18.250          21.000
                 -12984918.903 6 -10134018.791 6  21627475.839    21627478.636
        15.750          18.250
                    599957.828 5    467499.958 5  23584932.980    23584935.780
         9.500           9.750
                   8164498.005 6   6361941.722 6  22253242.183    22253244.858
        13.000          13.500
                 -10758657.887 6  -8383364.714 6  21410317.831    21410320.308
        16.250          18.500
 95  4 21 16 43 14.9990000  0  7G 2G18G19G27G28G29G31
                  -7701045.215 5  -6003381.519 6  22793897.417    22793901.870
        11.500          12.500
                    397809.660 6    309980.701 6  20523843.198    20523845.397
        18.500          21.250
                  -4763091.986 6  -3712770.175 6  20411014.026    20411016.519
        18.250          20.750
                 -13016564.600 6 -10158677.762 6  21621453.784    21621456.671
        15.750          18.250
                    627214.597 5    488738.981 5  23590119.792    23590122.714
         9.500          10.500
                   8207272.283 6   6395272.305 6  22261382.097    22261384.632
        13.000          13.250
                 -10764909.646 6  -8388236.209 6  21409128.237    21409130.726
        16.250          18.250
 95  4 21 16 43 29.9990000  0  7G 2G18G19G27G28G29G31
                  -7738051.083 5  -6032217.241 6  22786855.425    22786859.948
        11.500          12.750
                    423355.330 6    329886.407 6  20528704.136    20528706.464
        18.500          21.250
                  -4768959.556 6  -3717342.307 6  20409897.378    20409899.897
        18.250          20.750
                 -13048171.729 6 -10183306.690 6  21615439.253    21615441.952
        15.750          18.250
                    654601.928 5    510079.739 5  23595331.370    23595334.515
         9.250          11.000
                   8250138.759 6   6428674.739 6  22269539.355    22269542.050
        12.750          13.250
                 -10771000.798 6  -8392982.560 6  21407969.065    21407971.491
        16.250          18.250
 95  4 21 16 43 44.9990000  0  7G 2G18G19G27G28G29G31
                  -7774977.735 5  -6060991.241 6  22779828.487    22779832.866
        11.500          12.750
                    449030.806 6    349893.262 6  20533589.917    20533592.190
        18.500          21.250
                  -4774768.311 6  -3721868.611 6  20408792.222    20408794.776
        18.250          20.750
                 -13079731.400 6 -10207898.632 6  21609433.456    21609436.218
        15.750          18.250
                    682121.520 5    531523.565 5  23600568.269    23600571.448
         9.500          11.500
                   8293098.401 6   6462149.768 6  22277714.120    22277716.862
        12.750          13.250
                 -10776929.334 6  -8397602.197 6  21406841.081    21406843.394
        16.250          18.250
 95  4 21 16 43 59.9990000  0  7G 2G18G19G27G28G29G31
                  -7811829.323 5  -6089706.746 6  22772815.870    22772820.210
        11.500          12.750
                    474839.432 6    370003.870 6  20538501.245    20538503.507
        18.500          21.250
                  -4780517.102 6  -3726348.189 6  20407698.230    20407700.632
        18.500          20.750
                 -13111239.911 6 -10232450.713 6  21603437.737    21603440.312
        16.000          18.250
                    709773.804 5    553070.782 5  23605830.261    23605833.624
         9.500          11.750
                   8336151.674 6   6495697.752 6  22285907.026    22285909.929
        12.750          13.250
                 -10782694.435 6  -8402094.478 6  21405743.956    21405746.351
        16.250          18.250
 95  4 21 16 44 14.9990000  0  7G 2G18G19G27G28G29G31
                  -7848610.726 5  -6118367.564 6  22765816.581    22765820.675
        11.500          12.500
                    500781.713 6    390218.627 6  20543437.909    20543440.210
        18.500          21.000
                  -4786205.261 6  -3730780.522 6  20406615.909    20406618.226
        18.500          20.750
                 -13142696.601 6 -10256962.413 6  21597451.690    21597454.249
        16.000          18.250
                    737556.684 5    574719.758 6  23611117.456    23611120.687
         9.500          12.000
                   8379298.984 6   6529319.006 6  22294117.808    22294120.335
        12.750          13.000
                 -10788296.532 6  -8406459.747 6  21404677.862    21404680.386
        16.250          18.250
 95  4 21 16 44 29.9990000  0  7G 2G18G19G27G28G29G31
                  -7885317.335 5  -6146970.095 6  22758831.683    22758835.866
        11.750          12.750
                    526861.693 6    410540.678 6  20548400.737    20548403.120
        18.500          21.000
                  -4791829.818 6  -3735163.293 6  20405545.519    20405547.866
        18.500          20.750
                 -13174096.899 6 -10281430.170 6  21591476.675    21591479.214
        16.250          18.500
                    765472.413 5    596472.257 6  23616429.698    23616432.855
         9.750          12.000
                   8422541.588 6   6563014.522 6  22302346.480    22302349.171
        12.750          13.000
                 -10793730.265 6  -8410693.823 6  21403643.831    21403646.425
        16.250          18.500
 95  4 21 16 44 44.9990000  0  7G 2G18G19G27G28G29G31
                  -7921948.869 5  -6175514.134 6  22751860.628    22751865.210
        11.750          12.750
                    553080.245 6    430970.709 6  20553389.917    20553392.272
        18.500          21.000
                  -4797390.460 6  -3739496.258 6  20404487.480    20404489.862
        18.500          20.750
                 -13205442.810 6 -10305855.549 6  21585511.769    21585514.210
        16.250          18.250
                    793520.383 5    618327.798 5  23621766.933    23621769.968
         9.750          11.500
                   8465878.023 6   6596783.152 6  22310593.128    22310595.788
        12.500          13.000
                 -10798993.703 6  -8414795.199 6  21402642.245    21402644.792
        16.250          18.500
 95  4 21 16 44 59.9990000  0  7G 2G18G19G27G28G29G31
                  -7958508.584 6  -6204002.200 6  22744903.737    22744908.112
        12.000          12.750
                    579438.169 6    451509.345 6  20558405.714    20558408.101
        18.250          21.000
                  -4802883.878 6  -3743776.845 6  20403441.909    20403444.405
        18.500          20.750
                 -13236737.096 6 -10330240.695 6  21579556.519    21579559.073
        16.250          18.250
                    821699.850 5    640285.816 5  23627129.433    23627132.171
        10.000          11.250
                   8509307.598 6   6630624.361 6  22318857.433    22318860.210
        12.500          13.000
                 -10804085.295 6  -8418762.671 6  21401673.292    21401675.983
        16.250          18.500
 95  4 21 16 45 14.9990000  0  7G 2G18G19G27G28G29G31
                  -7994996.298 6  -6232434.170 6  22737960.245    22737964.698
        12.000          12.750
                    605934.019 6    472155.456 6  20563447.659    20563450.026
        18.500          21.000
                  -4808309.031 6  -3748004.238 6  20402409.565    20402412.042
        18.500          20.750
                 -13267980.331 6 -10354586.067 6  21573611.206    21573613.620
        16.500          18.250
                    850010.136 5    662345.761 5  23632516.644    23632519.710
         9.500          11.250
                   8552828.774 6   6664536.944 6  22327139.300    22327142.136
        12.500          12.750
                 -10809004.793 6  -8422596.045 6  21400737.081    21400739.772
        16.250          18.500
 95  4 21 16 45 29.9990000  0  7G 2G18G19G27G28G29G31
                  -8031412.349 6  -6260810.296 6  22731030.683    22731035.011
        12.250          12.750
                    632567.331 6    492908.677 6  20568515.855    20568518.187
        18.500          21.000
                  -4813665.053 6  -3752177.763 6  20401390.370    20401392.878
        18.500          20.750
                 -13299174.081 6 -10378892.877 6  21567675.050    21567677.589
        16.250          18.500
                    878451.066 5    684507.506 5  23637928.831    23637931.808
         9.500          10.750
                   8596441.405 6   6698520.796 6  22335438.659    22335441.663
        12.500          13.250
                 -10813751.768 6  -8426294.983 6  21399833.792    21399836.370
        16.250          18.500
 95  4 21 16 45 44.9990000  0  7G 2G18G19G27G28G29G31
                  -8067752.296 6  -6289127.124 6  22724115.464    22724119.651
        12.500          12.500
                    659338.118 6    513769.021 6  20573610.261    20573612.480
        18.500          21.000
                  -4818948.104 6  -3756294.424 6  20400385.128    20400387.612
        18.250          20.750
                 -13330315.890 6 -10403159.211 6  21561748.933    21561751.522
        16.250          18.500
                    907026.175 5    706773.816 5  23643366.323    23643369.339
         9.500          10.500
                   8640150.589 6   6732579.873 6  22343756.128    22343759.370
        12.250          13.000
                 -10818323.654 6  -8429857.493 6  21398963.972    21398966.331
        16.500          18.250
 95  4 21 16 45 59.9990000  0  7G 2G18G19G27G28G29G31
                  -8104014.077 6  -6317383.042 6  22717215.120    22717219.300
        12.500          12.500
                    686247.744 6    534737.551 6  20578731.026    20578733.265
        18.500          21.000
                  -4824156.261 6  -3760352.730 6  20399394.019    20399396.456
        18.500          20.750
                 -13361410.271 6 -10427388.593 6  21555831.636    21555834.304
        16.250          18.500
                    935737.118 5    729145.970 5  23648829.644    23648832.897
         9.250          10.250
                   8683959.012 6   6766716.289 6  22352092.464    22352095.640
        12.250          13.250
                 -10822718.430 6  -8433281.991 6  21398127.823    21398130.038
        16.750          18.250
 95  4 21 16 46 14.9990000  0  7G 2G18G19G27G28G29G31
                  -8140202.014 6  -6345581.423 6  22710328.800    22710332.952
        12.750          12.500
                    713289.696 6    555809.190 6  20583876.995    20583879.190
        18.500          21.000
                  -4829295.838 6  -3764357.597 6  20398415.995    20398418.401
        18.500          20.500
                 -13392466.128 6 -10451587.956 6  21549922.112    21549924.597
        16.250          18.500
                    964578.361 5    751619.659 5  23654318.183    23654321.183
         9.250          10.000
                   8727861.515 6   6800926.011 6  22360447.097    22360450.112
        12.250          13.000
                 -10826940.577 6  -8436571.973 6  21397324.401    21397326.522
        16.750          18.250
 95  4 21 16 46 29.9990000  0  7G 2G18G19G27G28G29G31
                  -8176312.169 6  -6373719.195 6  22703457.198    22703461.397
        12.750          12.500
                    740462.364 6    576982.688 6  20589047.675    20589049.944
        18.500          21.000
                  -4834366.467 6  -3768308.737 6  20397451.034    20397453.476
        18.250          20.500
                 -13423484.365 6 -10475758.000 6  21544019.675    21544022.108
        16.500          18.500
                    993549.659 5    774194.683 5  23659831.065    23659834.136
         9.000          10.000
                   8771855.704 6   6835207.176 6  22368818.808    22368821.960
        12.250          13.250
                 -10830991.209 6  -8439728.306 6  21396553.417    21396555.640
        16.500          18.000
 95  4 21 16 46 44.9990000  0  7G 2G18G19G27G28G29G31
                  -8212343.193 6  -6401795.304 6  22696600.737    22696604.905
        12.750          12.500
                    767764.378 6    598256.975 6  20594243.019    20594245.339
        18.500          21.000
                  -4839367.828 6  -3772205.902 6  20396499.362    20396501.718
        18.250          20.500
                 -13454465.372 6 -10499899.034 6  21538124.284    21538126.593
        16.500          18.500
                   1022650.637 5    796870.770 5  23665369.065    23665372.085
         9.000           9.750
                   8815941.034 6   6869559.358 6  22377208.144    22377211.362
        12.000          13.250
                 -10834872.326 6  -8442752.552 6  21395814.862    21395817.108
        16.250          18.000
 95  4 21 16 46 59.9990000  0  7G 2G18G19G27G28G29G31
                  -8248294.383 6  -6429809.208 6  22689759.487    22689763.972
        12.750          12.750
                    795195.923 6    619632.196 6  20599463.120    20599465.495
        18.500          21.000
                  -4844298.584 6  -3776048.050 6  20395561.128    20395563.444
        18.500          20.500
                 -13485408.188 6 -10524010.314 6  21532236.058    21532238.515
        16.500          18.500
                   1051881.315 5    819647.914 5  23670931.269    23670934.382
         8.500           9.750
                   8860118.109 6   6903983.028 6  22385614.511    22385617.831
        12.000          13.000
                 -10838586.626 6  -8445646.810 6  21395107.909    21395110.116
        16.250          17.750
 95  4 21 16 47 14.9990000  0  7G 2G18G19G27G28G29G31
                  -8284163.636 6  -6457759.264 6  22682933.784    22682938.132
        13.000          12.750
                    822754.580 6    641106.463 6  20604707.440    20604709.698
        18.500          21.000
                  -4849162.581 6  -3779838.181 6  20394635.690    20394637.960
        18.500          20.500
                 -13516312.389 6 -10548091.501 6  21526355.058    21526357.456
        16.500          18.500
                   1081240.724 5    842525.372 5  23676518.253    23676521.261
         8.000           9.500
                   8904386.483 6   6938477.850 6  22394038.456    22394041.933
        12.000          12.750
                 -10842134.839 6  -8448411.649 6  21394432.940    21394434.960
        16.250          17.750
 95  4 21 16 47 29.9990000  0  7G 2G18G19G27G28G29G31
                  -8319950.146 6  -6485644.848 6  22676123.730    22676127.925
        13.000          13.000
                    850440.450 6    662679.859 6  20609975.933    20609978.132
        18.500          21.000
                  -4853966.227 6  -3783581.280 6  20393721.417    20393723.831
        18.500          20.500
                 -13547179.321 6 -10572143.652 6  21520481.253    21520483.769
        16.500          18.500
                   1110727.245 5    865501.874 5  23682129.159    23682132.503
         7.750           9.750
                   8948744.024 5   6973042.152 6  22402479.472    22402482.737
        11.750          12.750
                 -10845518.426 6  -8451048.212 6  21393788.808    21393790.831
        16.500          17.750
 95  4 21 16 47 44.9990000  0  7G 2G18G19G27G28G29G31
                  -8355650.960 6  -6513463.655 6  22669330.089    22669334.054
        13.000          13.000
                    878257.781 6    684355.691 6  20615269.362    20615271.597
        18.500          21.000
                  -4858709.775 6  -3787277.552 6  20392818.690    20392821.190
        18.250          20.500
                 -13578006.523 6 -10596164.844 6  21514614.980    21514617.437
        16.500          18.500
                   1140342.407 5    888578.607 5  23687764.690    23687768.179
         7.500           9.750
                   8993190.366 6   7007675.648 6  22410937.526    22410940.683
        12.000          12.750
                 -10848737.953 6  -8453556.932 6  21393176.128    21393178.233
        16.250          18.000
 95  4 21 16 47 59.9990000  0  7G 2G18G19G27G28G29G31
                  -8391261.916 6  -6541212.442 6  22662553.519    22662557.538
        13.000          13.000
                    906211.736 6    706137.984 6  20620588.831    20620591.124
        18.500          21.000
                  -4863390.029 6  -3790924.505 6  20391928.136    20391930.577
        18.250          20.500
                 -13608791.252 6 -10620152.935 6  21508756.862    21508759.202
        16.750          18.500
                   1170088.503 4    911757.373 5  23693425.144    23693428.601
         7.250           9.750
                   9037725.317 6   7042378.183 6  22419412.284    22419415.437
        12.000          12.750
                 -10851790.443 6  -8455935.490 6  21392595.269    21392597.491
        16.250          18.000
